[[{"header":{"parameterUnit":"m.s-1","parameterCategory":1,"la1":30.6,"la2":28.766,"lo1":-90.7593,"lo2":-88.6598,"dy":0.0162,"dx":0.0183,"nx":116,"ny":114,"refTime":"2023-04-07T18:00:00:Z","depth":0,"parameterNumber":2,"parameterNumberName":"U-component_of_WINDS"},"data":[0.0,0.0,0.0,0.0,0.0,0.0,0.0,0.0,0.0,0.0,0.0,0.0,0.0,0.0,0.0,0.0,0.0,0.0,0.0,0.0,0.0,0.0,0.0,0.0,0.0,0.0,0.0,0.0,0.0,0.0,0.0,0.0,0.0,0.0,0.0,0.0,0.0,0.0,0.0,0.0,0.0,0.0,0.0,0.0,0.0,0.0,0.0,0.0,0.0,0.0,0.0,0.0,0.0,0.0,0.0,0.0,0.0,0.0,0.0,0.0,0.0,0.0,0.0,0.0,0.0,0.0,0.0,0.0,0.0,0.0,0.0,0.0,0.0,0.0,0.0,0.0,0.0,0.0,0.0,0.0,0.0,0.0,0.0,0.0,0.0,0.0,0.0,0.0,0.0,0.0,0.0,0.0,0.0,0.0,0.0,0.0,0.0,0.0,0.0,0.0,0.0,0.0,0.0,0.0,0.0,0.0,0.0,0.0,0.0,0.0,0.0,0.0,0.0,0.0,0.0,0.0,0.0,0.0,0.0,0.0,0.0,0.0,0.0,0.0,0.0,0.0,0.0,0.0,0.0,0.0,0.0,0.0,0.0,0.0,0.0,0.0,0.0,0.0,0.0,0.0,0.0,0.0,0.0,0.0,0.0,0.0,0.0,0.0,0.0,0.0,0.0,0.0,0.0,0.0,0.0,0.0,0.0,0.0,0.0,0.0,0.0,0.0,0.0,0.0,0.0,0.0,0.0,0.0,0.0,0.0,0.0,0.0,0.0,0.0,0.0,0.0,0.0,0.0,0.0,0.0,0.0,0.0,0.0,0.0,0.0,0.0,0.0,0.0,0.0,0.0,0.0,0.0,0.0,0.0,0.0,0.0,0.0,0.0,0.0,0.0,0.0,0.0,0.0,0.0,0.0,0.0,0.0,0.0,0.0,0.0,0.0,0.0,0.0,0.0,0.0,0.0,0.0,0.0,0.0,0.0,0.0,0.0,0.0,0.0,0.0,0.0,0.0,0.0,0.0,0.0,0.0,0.0,0.0,0.0,0.0,0.0,0.0,0.0,0.0,0.0,0.0,0.0,0.0,0.0,0.0,0.0,0.0,0.0,0.0,0.0,0.0,0.0,0.0,0.0,0.0,0.0,0.0,0.0,0.0,0.0,0.0,0.0,0.0,0.0,0.0,0.0,0.0,0.0,0.0,0.0,0.0,0.0,0.0,0.0,0.0,0.0,0.0,0.0,0.0,0.0,0.0,0.0,0.0,0.0,0.0,0.0,0.0,0.0,0.0,0.0,0.0,0.0,0.0,0.0,0.0,0.0,0.0,0.0,0.0,0.0,0.0,0.0,0.0,0.0,0.0,0.0,0.0,0.0,0.0,0.0,0.0,0.0,0.0,0.0,0.0,0.0,0.0,0.0,0.0,0.0,0.0,0.0,0.0,0.0,0.0,0.0,0.0,0.0,0.0,0.0,0.0,0.0,0.0,0.0,0.0,0.0,0.0,0.0,0.0,0.0,0.0,0.0,0.0,0.0,0.0,0.0,0.0,0.0,0.0,0.0,0.0,0.0,0.0,0.0,0.0,0.0,0.0,0.0,0.0,0.0,0.0,0.0,0.0,0.0,0.0,0.0,0.0,0.0,0.0,0.0,0.0,0.0,0.0,0.0,0.0,0.0,0.0,0.0,0.0,0.0,0.0,0.0,0.0,0.0,0.0,0.0,0.0,0.0,0.0,0.0,0.0,0.0,0.0,0.0,0.0,0.0,0.0,0.0,0.0,0.0,0.0,0.0,0.0,0.0,0.0,0.0,0.0,0.0,0.0,0.0,0.0,0.0,0.0,0.0,0.0,0.0,0.0,0.0,0.0,0.0,0.0,0.0,0.0,0.0,0.0,0.0,0.0,0.0,0.0,0.0,0.0,0.0,0.0,0.0,0.0,0.0,0.0,0.0,0.0,0.0,0.0,0.0,0.0,0.0,0.0,0.0,0.0,0.0,0.0,0.0,0.0,0.0,0.0,0.0,0.0,0.0,0.0,0.0,0.0,0.0,0.0,0.0,0.0,0.0,0.0,0.0,0.0,0.0,0.0,0.0,0.0,0.0,0.0,0.0,0.0,0.0,0.0,0.0,0.0,0.0,0.0,0.0,0.0,0.0,0.0,0.0,0.0,0.0,0.0,0.0,0.0,0.0,0.0,0.0,0.0,0.0,0.0,0.0,0.0,0.0,0.0,0.0,0.0,0.0,0.0,0.0,0.0,0.0,0.0,0.0,0.0,0.0,0.0,0.0,0.0,0.0,0.0,0.0,0.0,0.0,0.0,0.0,0.0,0.0,0.0,0.0,0.0,0.0,0.0,0.0,0.0,0.0,0.0,0.0,0.0,0.0,0.0,0.0,0.0,0.0,0.0,0.0,0.0,0.0,0.0,0.0,0.0,0.0,0.0,0.0,0.0,0.0,0.0,0.0,0.0,0.0,0.0,0.0,0.0,0.0,0.0,0.0,0.0,0.0,0.0,0.0,0.0,0.0,0.0,0.0,0.0,0.0,0.0,0.0,0.0,0.0,0.0,0.0,0.0,0.0,0.0,0.0,0.0,0.0,0.0,0.0,0.0,0.0,0.0,0.0,0.0,0.0,0.0,0.0,0.0,0.0,0.0,0.0,0.0,0.0,0.0,0.0,0.0,0.0,0.0,0.0,0.0,0.0,0.0,0.0,0.0,0.0,0.0,0.0,0.0,0.0,0.0,0.0,0.0,0.0,0.0,0.0,0.0,0.0,0.0,0.0,0.0,0.0,0.0,0.0,0.0,0.0,0.0,0.0,0.0,0.0,0.0,0.0,0.0,0.0,0.0,0.0,0.0,0.0,0.0,0.0,0.0,0.0,0.0,0.0,0.0,0.0,0.0,0.0,0.0,0.0,0.0,0.0,0.0,0.0,0.0,0.0,0.0,0.0,0.0,0.0,0.0,0.0,0.0,0.0,0.0,0.0,0.0,0.0,0.0,0.0,0.0,0.0,0.0,0.0,0.0,0.0,0.0,0.0,0.0,0.0,0.0,0.0,0.0,0.0,0.0,0.0,0.0,0.0,0.0,0.0,0.0,0.0,0.0,0.0,0.0,0.0,0.0,0.0,0.0,0.0,0.0,0.0,0.0,0.0,0.0,0.0,0.0,0.0,0.0,0.0,0.0,0.0,0.0,0.0,0.0,0.0,0.0,0.0,0.0,0.0,0.0,0.0,0.0,0.0,0.0,0.0,0.0,0.0,0.0,0.0,0.0,0.0,0.0,0.0,0.0,0.0,0.0,0.0,0.0,0.0,0.0,0.0,0.0,0.0,0.0,0.0,0.0,0.0,0.0,0.0,0.0,0.0,0.0,0.0,0.0,0.0,0.0,0.0,0.0,0.0,0.0,0.0,0.0,0.0,0.0,0.0,0.0,0.0,0.0,0.0,0.0,0.0,0.0,0.0,0.0,0.0,0.0,0.0,0.0,0.0,0.0,0.0,0.0,0.0,0.0,0.0,0.0,0.0,0.0,0.0,0.0,0.0,0.0,0.0,0.0,0.0,0.0,0.0,0.0,0.0,0.0,0.0,0.0,0.0,0.0,0.0,0.0,0.0,0.0,0.0,0.0,0.0,0.0,0.0,0.0,0.0,0.0,0.0,0.0,0.0,0.0,0.0,0.0,0.0,0.0,0.0,0.0,0.0,0.0,0.0,0.0,0.0,0.0,0.0,0.0,0.0,0.0,0.0,0.0,0.0,0.0,0.0,0.0,0.0,0.0,0.0,0.0,0.0,0.0,0.0,0.0,0.0,0.0,0.0,0.0,0.0,0.0,0.0,0.0,0.0,0.0,0.0,0.0,0.0,0.0,0.0,0.0,0.0,0.0,0.0,0.0,0.0,0.0,0.0,0.0,0.0,0.0,0.0,0.0,0.0,0.0,0.0,0.0,0.0,0.0,0.0,0.0,0.0,0.0,0.0,0.0,0.0,0.0,0.0,0.0,0.0,0.0,0.0,0.0,0.0,0.0,0.0,0.0,0.0,0.0,0.0,0.0,0.0,0.0,0.0,0.0,0.0,0.0,0.0,0.0,0.0,0.0,0.0,0.0,0.0,0.0,0.0,0.0,0.0,0.0,0.0,0.0,0.0,0.0,0.0,0.0,0.0,0.0,0.0,0.0,0.0,0.0,0.0,0.0,0.0,0.0,0.0,0.0,0.0,0.0,0.0,0.0,0.0,0.0,0.0,0.0,0.0,0.0,0.0,0.0,0.0,0.0,0.0,0.0,0.0,0.0,0.0,0.0,0.0,0.0,0.0,0.0,0.0,0.0,0.0,0.0,0.0,0.0,0.0,0.0,0.0,0.0,0.0,0.0,0.0,0.0,0.0,0.0,0.0,0.0,0.0,0.0,0.0,0.0,0.0,0.0,0.0,0.0,0.0,0.0,0.0,0.0,0.0,0.0,0.0,0.0,0.0,0.0,0.0,0.0,0.0,0.0,0.0,0.0,0.0,0.0,0.0,0.0,0.0,0.0,0.0,0.0,0.0,0.0,0.0,0.0,0.0,0.0,0.0,0.0,0.0,0.0,0.0,0.0,0.0,0.0,0.0,0.0,0.0,0.0,0.0,0.0,0.0,0.0,0.0,0.0,0.0,0.0,0.0,0.0,0.0,0.0,0.0,0.0,0.0,0.0,0.0,0.0,0.0,0.0,0.0,0.0,0.0,0.0,0.0,0.0,0.0,0.0,0.0,0.0,0.0,0.0,0.0,0.0,0.0,0.0,0.0,0.0,0.0,0.0,0.0,0.0,0.0,0.0,0.0,0.0,0.0,0.0,0.0,0.0,0.0,0.0,0.0,0.0,0.0,0.0,0.0,0.0,0.0,0.0,0.0,0.0,0.0,0.0,0.0,0.0,0.0,0.0,0.0,0.0,0.0,0.0,0.0,0.0,0.0,0.0,0.0,0.0,0.0,0.0,0.0,0.0,0.0,0.0,0.0,0.0,0.0,0.0,0.0,0.0,0.0,0.0,0.0,0.0,0.0,0.0,0.0,0.0,0.0,0.0,0.0,0.0,0.0,0.0,0.0,0.0,0.0,0.0,0.0,0.0,0.0,0.0,0.0,0.0,0.0,0.0,0.0,0.0,0.0,0.0,0.0,0.0,0.0,0.0,0.0,0.0,0.0,0.0,0.0,0.0,0.0,0.0,0.0,0.0,0.0,0.0,0.0,0.0,0.0,0.0,0.0,0.0,0.0,0.0,0.0,0.0,0.0,0.0,0.0,0.0,0.0,0.0,0.0,0.0,0.0,0.0,0.0,0.0,0.0,0.0,0.0,0.0,0.0,0.0,0.0,0.0,0.0,0.0,0.0,0.0,0.0,0.0,0.0,0.0,0.0,0.0,0.0,0.0,0.0,0.0,0.0,0.0,0.0,0.0,0.0,0.0,0.0,0.0,0.0,0.0,0.0,0.0,0.0,0.0,0.0,0.0,0.0,0.0,0.0,0.0,0.0,0.0,0.0,0.0,0.0,0.0,0.0,0.0,0.0,0.0,0.0,0.0,0.0,0.0,0.0,0.0,0.0,0.0,0.0,0.0,0.0,0.0,0.0,0.0,0.0,0.0,0.0,0.0,0.0,0.0,0.0,0.0,0.0,0.0,0.0,0.0,0.0,0.0,0.0,0.0,0.0,0.0,0.0,0.0,0.0,0.0,0.0,0.0,0.0,0.0,0.0,0.0,0.0,0.0,0.0,0.0,0.0,0.0,0.0,0.0,0.0,0.0,0.0,0.0,0.0,0.0,0.0,0.0,0.0,0.0,0.0,0.0,0.0,0.0,0.0,0.0,0.0,0.0,0.0,0.0,0.0,0.0,0.0,0.0,0.0,0.0,0.0,0.0,0.0,0.0,0.0,0.0,0.0,0.0,0.0,0.0,0.0,0.0,0.0,0.0,0.0,0.0,0.0,0.0,0.0,0.0,0.0,0.0,0.0,0.0,0.0,0.0,0.0,0.0,0.0,0.0,0.0,0.0,0.0,0.0,0.0,0.0,0.0,0.0,0.0,0.0,0.0,0.0,0.0,0.0,0.0,0.0,0.0,0.0,0.0,0.0,0.0,0.0,0.0,4.1622,0.0,0.0,0.0,0.0,0.0,0.0,0.0,0.0,0.0,0.0,0.0,0.0,0.0,0.0,0.0,0.0,0.0,0.0,0.0,0.0,0.0,0.0,0.0,0.0,4.0577,4.1056,4.1915,4.2211,4.2441,4.2783,4.2962,4.3227,4.3651,4.386,4.4074,4.4318,4.4495,4.4678,4.4941,4.4958,4.5062,4.5177,4.4334,4.4057,4.438,0.0,0.0,0.0,0.0,0.0,0.0,0.0,0.0,0.0,0.0,0.0,0.0,0.0,0.0,0.0,0.0,0.0,0.0,0.0,0.0,0.0,0.0,0.0,0.0,0.0,0.0,0.0,0.0,0.0,0.0,0.0,0.0,0.0,0.0,0.0,0.0,0.0,0.0,0.0,0.0,0.0,0.0,0.0,0.0,0.0,0.0,0.0,0.0,0.0,0.0,0.0,0.0,0.0,0.0,0.0,0.0,0.0,0.0,0.0,0.0,0.0,0.0,0.0,0.0,0.0,0.0,0.0,0.0,0.0,0.0,0.0,4.2048,0.0,0.0,0.0,0.0,0.0,0.0,0.0,0.0,0.0,0.0,0.0,0.0,0.0,0.0,0.0,0.0,0.0,0.0,0.0,0.0,0.0,4.0165,4.0482,4.127,4.2061,4.2783,4.3182,4.3581,4.399,4.4243,4.4233,4.4097,4.4741,4.5115,4.5026,4.5556,4.5905,4.5905,4.5701,4.5563,4.5436,4.5275,4.5343,4.5608,4.5505,0.0,0.0,0.0,0.0,0.0,0.0,0.0,0.0,0.0,0.0,0.0,0.0,0.0,0.0,0.0,0.0,0.0,0.0,0.0,0.0,0.0,0.0,0.0,0.0,0.0,0.0,0.0,0.0,0.0,0.0,0.0,0.0,0.0,0.0,0.0,0.0,0.0,0.0,0.0,0.0,0.0,0.0,0.0,0.0,0.0,0.0,0.0,0.0,0.0,0.0,0.0,0.0,0.0,0.0,0.0,0.0,0.0,0.0,0.0,0.0,0.0,0.0,0.0,4.6349,4.6154,4.5958,4.5403,4.5056,4.4827,4.4528,4.377,4.2801,4.2624,0.0,0.0,0.0,0.0,0.0,0.0,0.0,0.0,0.0,0.0,0.0,0.0,0.0,0.0,0.0,0.0,0.0,0.0,0.0,4.0294,4.1349,4.1985,4.2382,4.2625,4.3487,4.3909,4.3745,4.4198,4.4607,4.4834,4.5164,4.56,4.6028,4.6119,4.5905,4.5494,4.4961,4.506,4.5648,4.5874,4.6215,4.6564,4.5953,4.6021,4.654,0.0,0.0,0.0,0.0,0.0,0.0,0.0,0.0,0.0,0.0,0.0,0.0,0.0,0.0,0.0,0.0,0.0,0.0,0.0,0.0,0.0,0.0,0.0,0.0,0.0,0.0,0.0,0.0,0.0,0.0,0.0,0.0,0.0,0.0,0.0,0.0,0.0,0.0,0.0,0.0,0.0,4.8122,4.7546,0.0,0.0,0.0,0.0,0.0,0.0,0.0,0.0,0.0,0.0,0.0,0.0,0.0,4.7326,4.7022,4.7413,4.6995,4.5958,4.6154,4.5761,4.492,4.5336,4.5478,4.5505,4.5917,0.0,4.3744,4.3615,0.0,0.0,0.0,0.0,0.0,0.0,0.0,0.0,0.0,0.0,0.0,0.0,0.0,0.0,0.0,0.0,0.0,0.0,0.0,0.0,0.0,4.1811,4.2375,4.2936,4.3763,4.444,4.4858,4.5185,4.5374,4.5481,4.5628,4.5754,4.5717,4.5892,4.604,4.6157,4.5704,4.5796,4.651,4.6544,4.6801,4.7394,4.709,4.6887,4.6786,4.6608,0.0,0.0,0.0,0.0,0.0,0.0,0.0,0.0,0.0,0.0,0.0,0.0,0.0,0.0,0.0,0.0,0.0,0.0,0.0,0.0,0.0,0.0,0.0,0.0,0.0,0.0,0.0,0.0,0.0,0.0,0.0,0.0,0.0,0.0,0.0,0.0,0.0,0.0,0.0,4.8263,4.8337,4.806,4.7588,4.7231,0.0,0.0,0.0,0.0,0.0,0.0,0.0,0.0,0.0,4.7846,4.7626,4.7441,4.7275,4.7714,4.7589,4.7091,4.6891,4.6588,4.6107,4.607,4.6102,4.6102,4.6374,4.6079,4.5358,4.4801,4.391,4.2971,0.0,0.0,0.0,0.0,4.1864,4.1727,0.0,0.0,0.0,0.0,0.0,0.0,0.0,0.0,0.0,0.0,0.0,0.0,4.1441,4.2154,4.2837,4.3454,4.418,4.4974,4.5631,4.5854,4.587,4.5701,4.5854,4.5803,4.5441,4.5754,4.6181,4.6646,4.6397,4.6692,4.7408,4.7174,4.7462,4.8206,4.8084,4.7781,4.7301,4.706,4.6938,4.6876,0.0,0.0,0.0,0.0,0.0,0.0,0.0,0.0,0.0,0.0,0.0,0.0,0.0,0.0,0.0,0.0,0.0,0.0,0.0,0.0,0.0,0.0,0.0,0.0,0.0,0.0,0.0,0.0,0.0,0.0,0.0,0.0,0.0,0.0,0.0,0.0,0.0,4.8773,4.8934,4.8845,4.8446,4.8324,0.0,0.0,0.0,0.0,0.0,0.0,4.8886,4.8816,4.8341,4.7606,4.7673,4.7631,4.7431,4.7909,4.8032,4.8032,4.7494,4.7371,4.7432,4.691,4.6781,4.6916,4.6916,4.6916,4.6889,4.5978,4.4916,4.3888,4.4019,4.3672,4.3269,4.3136,4.3028,4.3048,0.0,0.0,0.0,0.0,0.0,0.0,0.0,0.0,0.0,0.0,0.0,4.2181,4.2276,4.34,4.4182,4.4182,4.4872,4.5407,4.5441,4.5666,4.5701,4.5423,4.5649,4.5701,4.5389,4.5823,4.6067,4.6135,4.6588,4.7124,4.7868,4.7868,4.824,4.8951,4.8606,4.8543,4.8668,4.8668,4.8416,4.7967,4.7934,0.0,0.0,0.0,0.0,0.0,0.0,0.0,0.0,0.0,0.0,0.0,0.0,0.0,0.0,0.0,0.0,0.0,0.0,0.0,0.0,0.0,0.0,0.0,0.0,0.0,0.0,0.0,0.0,0.0,0.0,0.0,0.0,0.0,0.0,0.0,0.0,0.0,0.0,5.0284,5.0599,0.0,0.0,0.0,0.0,4.9164,4.9119,4.9128,4.9128,4.9233,4.9259,4.9161,4.8453,4.8078,4.8078,4.8106,4.7931,4.7726,4.7391,4.7488,4.7722,4.7537,4.7622,4.8138,4.8138,4.8138,4.8002,4.7163,4.6598,4.6326,4.6637,4.6514,4.629,4.5953,4.55,4.4929,0.0,0.0,0.0,3.776,3.8078,3.8607,3.9504,4.0087,4.0613,4.1148,4.1812,4.2202,4.225,4.3202,4.3833,4.3833,4.4497,4.494,4.5049,4.5177,4.5283,4.523,4.5441,4.5731,4.6021,4.6418,4.6853,4.7463,4.7477,4.7902,4.8612,4.8612,4.8686,4.8894,4.8769,4.858,4.842,4.8325,4.8196,4.8001,4.7869,4.7704,0.0,0.0,0.0,0.0,0.0,0.0,0.0,0.0,0.0,0.0,0.0,0.0,0.0,0.0,0.0,0.0,0.0,0.0,0.0,0.0,0.0,0.0,0.0,0.0,0.0,0.0,0.0,0.0,0.0,0.0,0.0,0.0,0.0,0.0,0.0,0.0,0.0,5.0276,5.0033,0.0,4.967,4.9393,4.9356,4.9705,4.9846,4.9772,4.9223,4.9231,4.9079,4.8509,4.8601,4.8724,4.8724,4.9117,4.9314,4.921,4.8869,4.8664,4.8673,4.8352,4.8246,4.8246,4.8246,4.8246,4.8246,4.8299,4.7945,4.732,4.7287,4.6922,4.6473,4.6108,4.5768,4.5362,0.0,3.7317,0.0,3.8113,3.8545,3.9181,4.0313,4.0778,4.12,4.1876,4.2323,4.2639,4.2783,4.351,4.4028,4.3973,4.4338,4.4699,4.4831,4.494,4.5069,4.5177,4.5417,4.5862,4.654,4.6963,4.745,4.8082,4.8192,4.8545,4.9018,4.8956,4.9029,4.914,4.9013,4.8955,4.8895,4.8796,4.8531,4.8166,4.8,4.8029,4.8155,0.0,0.0,0.0,0.0,0.0,0.0,0.0,0.0,0.0,0.0,0.0,0.0,0.0,0.0,0.0,0.0,0.0,0.0,0.0,0.0,0.0,0.0,0.0,0.0,0.0,0.0,0.0,0.0,0.0,0.0,0.0,0.0,0.0,0.0,5.0472,5.0512,4.9968,4.9849,4.9723,4.9574,4.9318,4.9368,4.9708,4.964,4.9531,4.9166,4.9195,4.9108,4.8724,4.9145,4.9342,4.9342,4.9764,4.996,4.996,4.9643,4.9514,4.9522,4.9198,4.8982,4.8953,4.8843,4.8843,4.887,4.9166,4.8973,4.84,4.7953,4.7389,4.682,4.6334,4.5872,4.5313,0.0,3.7314,3.7562,3.8306,3.9084,3.9858,4.0418,4.1321,4.2097,4.2544,4.2992,4.3508,4.3957,4.4497,4.472,4.4643,4.4587,4.472,4.4995,4.4995,4.5049,4.5211,4.567,4.6191,4.6819,4.7564,4.7936,4.7936,4.868,4.8984,4.9018,4.8866,4.9173,4.9749,4.9458,4.9726,5.0426,5.0255,4.9585,4.8584,4.8551,4.8768,4.903,0.0,0.0,0.0,0.0,0.0,0.0,0.0,0.0,0.0,0.0,0.0,0.0,0.0,0.0,0.0,0.0,0.0,0.0,0.0,0.0,0.0,0.0,0.0,0.0,0.0,0.0,0.0,0.0,0.0,0.0,0.0,0.0,0.0,4.9764,5.0396,5.0577,4.9592,5.0248,5.0632,5.0383,4.9473,4.9009,4.9305,4.8538,4.8443,4.9033,4.9061,4.9342,4.9932,4.9988,4.9988,4.9988,5.0016,5.0016,5.0016,4.9699,4.99,5.0348,4.9913,4.9912,5.0487,5.015,5.001,5.001,4.967,4.9556,4.9442,4.8868,4.8146,4.756,4.661,4.5889,4.5037,3.7352,3.7854,3.8493,3.8954,3.9722,4.0496,4.1183,4.2,4.259,4.2664,4.3407,4.4009,4.4079,4.4418,4.4643,4.4587,4.4587,4.4643,4.4699,4.4776,4.5124,4.567,4.649,4.712,4.7597,4.8342,4.8714,4.8714,4.8793,4.8832,4.8832,4.9244,4.9387,4.9458,4.9926,5.0158,5.0255,5.005,5.0007,5.0058,4.9501,4.9295,4.9238,0.0,0.0,0.0,0.0,0.0,0.0,0.0,0.0,0.0,0.0,0.0,0.0,0.0,0.0,0.0,0.0,0.0,0.0,0.0,0.0,0.0,0.0,0.0,0.0,0.0,0.0,0.0,0.0,0.0,0.0,0.0,5.0819,5.0668,5.103,5.1135,5.1047,5.0398,5.0377,5.0092,4.9108,4.918,4.9161,4.9087,4.9305,4.9539,4.9707,4.9707,4.9792,4.996,5.0382,5.0607,5.0607,5.1056,5.1281,5.1281,5.1173,5.1176,5.1125,5.0657,5.0546,5.0487,5.015,4.9897,4.967,4.967,4.9354,4.8895,4.8779,4.7795,4.6585,4.6105,4.5013,4.3654,3.739,3.8069,3.8851,3.9265,4.0123,4.0941,4.1543,4.2361,4.2929,4.3049,4.3735,4.4263,4.4481,4.4552,4.4587,4.4587,4.4587,4.4643,4.4665,4.5026,4.5592,4.634,4.714,4.7793,4.8376,4.872,4.8894,4.8894,4.8769,4.8841,4.9114,4.9387,4.9692,5.0259,5.0624,5.0886,5.0975,5.0905,5.0922,5.0961,5.0536,5.0301,5.0148,5.0464,5.0367,5.0115,5.0066,4.9839,4.9354,4.8673,0.0,0.0,0.0,0.0,0.0,0.0,0.0,0.0,0.0,0.0,0.0,0.0,0.0,0.0,0.0,0.0,0.0,0.0,0.0,0.0,0.0,0.0,0.0,0.0,5.0783,5.056,5.1274,5.1179,5.0708,4.9881,5.0112,4.9893,4.8861,4.9239,4.9606,4.9426,4.9764,5.0073,5.0326,5.0354,5.0466,5.0719,5.1056,5.1253,5.1253,5.1618,5.1787,5.1787,5.1787,5.1677,5.1596,5.1128,5.0795,5.0487,5.001,4.9442,4.8726,4.8611,4.8146,4.7442,0.0,0.0,0.0,0.0,4.338,4.2143,3.7496,3.8249,3.8993,3.937,4.0394,4.1262,4.1587,4.252,4.3313,4.356,4.4026,4.4536,4.506,4.4822,4.4587,4.4587,4.4643,4.4665,4.4776,4.5513,4.6235,4.6927,4.7564,4.8281,4.8923,4.8832,4.8769,4.8769,4.8647,4.8952,4.9588,4.9559,5.0192,5.1456,5.1416,5.1636,5.2013,5.2013,5.1794,5.1499,5.1499,5.135,5.1199,5.1199,5.1232,5.1199,5.0487,5.026,5.0228,4.9418,0.0,0.0,0.0,0.0,0.0,0.0,0.0,0.0,0.0,0.0,0.0,0.0,0.0,0.0,0.0,0.0,0.0,0.0,0.0,0.0,0.0,0.0,0.0,0.0,5.052,5.034,5.0971,5.0859,5.0198,4.8865,4.9756,5.0134,4.9202,4.9707,5.0073,5.0073,5.0129,5.041,5.0944,5.1056,0.0,0.0,0.0,5.1983,5.1983,5.1983,5.1983,5.1983,5.1983,5.1983,5.1983,5.1433,5.0988,5.0652,4.9973,4.8912,4.7741,4.7385,4.6522,4.5673,4.6155,4.6105,4.5646,4.3028,4.1527,4.0647,3.8322,3.8954,3.9691,4.0389,4.1082,4.1603,4.1831,4.2898,4.372,4.3628,4.4524,4.5172,4.5094,4.4822,4.4587,4.4587,4.4665,4.4776,4.4776,4.5657,4.64,4.6786,4.767,4.8316,4.8832,4.8832,4.8707,4.8547,4.8924,4.9226,4.9392,5.0423,5.0982,5.1102,5.1696,5.1882,5.1868,5.1647,5.1573,5.1499,5.135,5.1242,5.1199,5.1199,5.1523,5.1912,5.1232,5.1329,5.1588,5.0325,5.0293,5.0552,4.9199,4.9158,0.0,0.0,0.0,0.0,0.0,0.0,0.0,0.0,0.0,0.0,0.0,0.0,0.0,0.0,0.0,0.0,0.0,0.0,0.0,5.114,5.0685,5.0428,5.109,5.1023,5.0586,5.0096,5.0691,5.0784,4.9848,5.0326,5.0691,5.0691,5.1169,5.1478,5.1618,5.2096,5.2405,5.2517,5.3023,5.3304,5.3304,5.3304,5.3304,5.3304,5.3304,0.0,5.3304,5.2966,5.237,5.1768,5.0548,4.9479,4.8538,4.7531,4.6535,4.5223,4.4362,4.3755,4.3279,4.1655,4.0777,4.0453,3.926,3.953,3.9904,4.0806,4.1379,4.1788,4.1874,4.2722,4.3428,4.3699,4.4509,4.5146,4.5293,4.5072,4.4886,4.4776,4.4776,4.4946,4.532,4.6126,4.6748,4.7207,4.8039,4.8547,4.8644,4.858,4.862,4.889,4.9094,4.9559,5.029,5.0846,5.1267,5.1559,5.1849,5.1868,5.1647,5.1573,5.1424,5.1382,5.1631,5.1685,5.1685,5.1685,5.1912,5.2139,5.1815,5.1685,5.162,5.1264,5.1167,5.1199,5.1048,5.1016,5.0843,0.0,0.0,0.0,0.0,0.0,0.0,0.0,0.0,0.0,0.0,0.0,0.0,0.0,0.0,5.0366,5.1394,0.0,4.9959,5.0946,5.0845,5.0891,5.1229,5.1463,5.1321,5.0493,5.1095,5.1299,5.0466,5.0972,5.145,5.1759,5.1787,5.2068,5.2686,5.2714,5.2854,5.3164,5.3501,5.3669,5.3669,5.3669,5.3669,5.3669,5.3669,5.3669,5.3669,5.3187,5.2355,5.1132,5.0153,4.8697,4.7006,4.5966,4.5066,4.4547,4.3752,4.3309,4.2662,4.177,4.1243,4.1022,4.0056,4.0,4.0116,4.1181,4.1653,4.1874,4.1959,4.245,4.2987,4.3494,4.4092,4.4613,4.5218,4.5097,4.4986,4.5015,4.4967,4.5196,4.5864,4.6515,4.708,4.7591,4.8366,4.8707,4.842,4.8425,4.8727,4.926,4.9426,5.0121,5.128,5.1234,5.1526,5.2086,5.1868,5.1721,5.1573,5.1736,5.162,5.1502,5.2053,5.23,5.243,5.243,5.243,5.2398,5.2236,5.1944,5.1653,5.2074,5.1944,5.1815,5.2948,5.2916,5.2353,5.2197,5.2765,0.0,0.0,0.0,0.0,0.0,0.0,0.0,0.0,5.1599,5.1585,5.2424,5.1425,5.0717,5.1783,5.0916,5.0154,5.0673,5.1052,5.1236,5.1484,5.1915,5.1887,5.0889,5.1497,5.1759,5.1281,5.1674,5.218,5.2658,5.2236,5.2405,5.3416,5.322,5.3304,5.3838,5.3978,5.4035,5.4035,5.4035,5.4035,5.4035,5.4035,5.3921,5.3921,5.3176,5.1954,5.0349,4.9276,4.7555,4.529,4.4503,4.4107,4.4107,4.3974,4.3575,4.3063,4.246,4.2103,4.1699,0.0,4.0428,4.0842,4.2203,4.2008,4.178,4.2205,4.2538,4.2777,4.273,4.3131,4.3696,4.4354,4.4231,4.4384,4.5142,4.5094,4.5361,4.6067,4.6716,4.7216,4.7564,4.8366,4.8644,4.8227,4.886,4.9161,4.9094,5.0386,5.1115,5.128,5.1729,5.202,5.2086,5.1868,5.1794,5.1827,5.2482,5.2594,5.2335,5.2541,5.2811,5.3207,5.3207,5.3207,5.311,5.243,5.256,5.2981,5.2398,5.2592,5.311,5.3272,5.3272,5.3129,5.2939,5.2989,5.3005,5.2444,5.272,5.3102,5.2753,5.2722,5.2762,0.0,5.2193,5.1659,5.316,5.2326,5.1482,5.2132,5.1439,5.0777,5.1108,5.1095,5.1164,5.1943,5.2428,5.2459,5.2,5.229,5.2574,5.2517,5.2574,5.263,5.2686,5.263,5.2658,5.2798,5.381,5.44,5.4484,5.5018,5.5299,5.5299,5.5299,5.5299,5.5299,5.4948,5.4831,5.4831,5.3561,5.2322,5.1184,4.8411,4.6485,4.5321,4.5321,4.5186,4.5186,4.4778,4.4505,4.4004,4.3108,4.2237,4.1743,0.0,4.1136,4.1478,4.2577,4.2127,4.178,4.2246,4.2192,4.2226,4.2636,4.2812,4.3284,4.4435,4.4699,4.4921,4.5283,4.5219,4.5689,4.6681,4.6837,4.7295,4.8077,4.8316,4.8325,4.8131,4.8829,4.936,4.9756,5.0783,5.1512,5.191,5.2026,5.2119,5.2086,5.1868,5.2024,5.245,5.2744,5.3029,5.3346,5.3726,5.3929,5.4143,5.4373,5.4308,5.392,5.3596,5.3402,0.0,5.3434,5.3402,5.3466,5.4276,5.4276,5.3873,5.3713,5.4098,5.4589,5.441,5.4356,5.4206,5.4033,5.3946,5.3922,5.3819,5.3186,5.2795,5.3371,5.2435,5.1537,5.1829,5.1288,5.0897,5.1045,5.1586,5.1899,5.1924,5.2769,5.2911,5.2008,5.3078,5.336,5.2264,5.2489,5.2854,5.3248,5.3276,5.3585,5.4288,5.4484,5.4737,5.5102,5.5383,5.5496,5.5496,5.5496,5.5379,5.5144,5.4497,5.4019,5.3779,5.2412,5.1016,4.9361,4.7051,4.5754,4.537,4.537,4.537,4.5347,4.521,4.4937,4.4481,4.3666,4.2963,4.2573,0.0,4.1675,4.1917,4.2768,4.2169,4.178,4.2246,4.1909,4.1815,4.2412,4.252,4.3079,4.4416,4.5079,4.5423,4.5423,4.5478,4.5998,4.7067,4.7066,4.7428,4.8386,4.8292,4.8098,4.8001,4.8928,4.969,5.022,5.1115,5.1843,5.2373,5.2158,5.2119,5.2158,5.1941,5.2335,5.3025,5.3222,5.3715,5.4328,5.4698,5.477,5.4756,5.5117,5.4907,5.4405,5.4405,5.4082,5.3693,5.4244,5.4179,5.4082,5.5086,5.5086,5.4697,5.4503,5.4998,5.5559,5.5374,5.5121,5.4893,5.4851,5.4825,5.4679,5.4386,5.3837,5.3462,5.3458,5.2394,5.1568,5.177,5.1547,5.1304,5.1365,5.2124,5.2602,5.2349,5.3248,5.3529,5.2433,5.3669,5.3978,5.2461,5.2854,5.3416,5.3894,5.3922,5.4316,5.5215,5.499,5.5046,5.5496,5.5496,5.558,5.5749,5.5367,5.5095,5.5022,5.3877,5.3112,5.2864,5.12,4.9382,4.7449,4.6025,4.537,4.537,4.537,4.5438,4.5576,4.5576,4.5302,4.4867,4.4313,4.3691,4.3302,0.0,0.0,4.2127,4.2768,4.2169,4.178,4.2246,4.1909,4.1604,4.1639,4.2079,4.2888,4.4164,4.4975,4.5423,4.5423,4.5788,4.6317,4.6952,4.7342,4.7776,4.8194,4.8227,4.8098,4.8001,4.9425,5.0187,5.022,5.1645,5.2373,5.2373,5.2158,5.2158,5.2373,5.2158,5.2554,5.3467,5.4195,5.4741,5.5249,5.5282,5.5083,5.4691,5.4724,5.4565,5.4405,5.4405,5.4405,5.4373,5.4405,5.4826,5.5345,5.5409,5.5409,5.5377,5.5377,5.5278,5.498,5.4337,5.4306,5.4518,5.4956,5.497,5.4804,5.4976,5.4043,5.3196,5.3585,5.2587,5.1852,5.2509,5.2408,5.2283,5.2545,5.2686,5.2911,5.3529,5.4147,5.4316,5.3697,5.4203,5.4344,5.3669,5.4175,5.454,5.4569,5.4569,5.4569,5.4625,5.5159,5.5468,5.5496,5.5496,5.5777,5.6395,5.499,5.465,5.522,5.3422,5.2673,5.2517,4.9992,4.7906,4.6405,4.5754,4.537,4.537,4.537,4.5645,4.6104,4.6104,4.5827,4.5549,4.5107,4.4375,4.358,0.0,0.0,0.0,4.2649,4.221,4.1831,4.2002,4.178,4.178,4.2342,4.3301,0.0,0.0,0.0,0.0,0.0,4.6032,4.6622,4.6986,4.7474,4.7961,4.8227,4.8098,4.8066,4.8001,4.9458,5.022,5.022,5.1678,5.2373,5.2373,5.2302,5.2302,5.2407,5.2798,5.3394,5.4195,5.4957,5.5577,5.6239,5.6084,5.5883,5.5712,5.617,5.5831,5.515,0.0,5.5669,5.5086,5.5086,5.5215,5.5409,5.5409,5.5409,5.5328,5.5278,5.5196,5.4948,5.4412,5.4591,5.483,5.4907,5.475,5.47,5.4622,5.4428,5.3888,5.3123,5.3001,5.2801,5.2169,5.2343,5.2572,5.2658,5.3079,5.3416,5.3641,5.4203,5.4372,5.3754,5.4569,5.4962,5.4344,5.4456,5.4597,5.4597,5.4962,5.5187,5.5187,5.5383,5.5693,5.6086,5.6114,5.5814,5.5139,5.4909,5.4244,5.2922,5.1762,5.0905,5.0235,4.8868,4.788,4.7463,4.6635,4.6357,4.6357,4.6357,4.6472,4.6609,4.6609,4.6632,4.6352,4.5743,4.5229,4.4865,0.0,0.0,0.0,4.2688,4.2333,0.0,0.0,0.0,0.0,0.0,0.0,0.0,0.0,0.0,0.0,0.0,0.0,4.6777,4.6869,4.7646,4.8163,4.8098,4.8066,4.8001,4.8001,4.9193,4.9955,5.022,5.1413,5.2108,5.2373,5.2373,5.2373,5.2407,5.2837,5.3434,5.4162,5.4924,5.5653,5.6349,5.6426,5.6402,5.6277,5.677,5.6319,0.0,5.632,5.6157,5.5766,5.5507,5.5409,5.5474,5.5733,5.5716,5.5698,5.5706,5.5525,5.5281,5.4994,5.5146,5.538,5.5184,5.5008,5.4844,5.4608,5.4488,5.42,5.3184,5.3102,5.3115,5.259,5.2374,5.2602,5.3276,5.3557,5.381,5.4259,5.4681,5.4765,5.4372,5.5018,5.5355,5.4962,5.4906,5.4906,5.4906,5.5271,5.5496,5.5496,5.5693,5.6002,5.6395,5.6113,5.5701,5.503,5.4373,5.3192,5.138,5.0814,5.0093,4.9097,4.8542,4.8029,4.7726,4.7166,4.6885,4.6885,4.6885,4.6977,4.7138,4.7138,4.7138,4.7019,4.6262,4.5864,4.5497,0.0,0.0,0.0,0.0,0.0,0.0,0.0,0.0,0.0,0.0,0.0,0.0,0.0,0.0,0.0,0.0,0.0,0.0,4.6693,4.7799,4.8322,4.8001,4.8001,4.8001,4.8001,4.873,4.9458,5.022,5.0916,5.1645,5.2373,5.2373,5.2373,5.2373,5.2473,5.287,5.3533,5.4295,5.5024,5.5752,5.6415,5.6603,5.6402,5.6468,5.6231,5.5799,5.5864,5.6206,5.6381,5.5668,5.5409,5.5539,5.6284,5.6344,5.6337,5.6755,5.6413,5.5825,5.5789,5.5978,5.6046,5.5813,5.5429,5.5129,5.4738,5.4509,5.4156,5.3664,5.3164,5.2966,5.3537,5.265,5.2517,5.4288,5.4119,5.4175,5.5327,5.5496,5.5496,5.5496,5.5496,5.5496,5.5496,5.5524,5.5552,5.5552,5.5552,5.5552,5.5552,5.6142,5.6479,5.6507,5.5676,5.5474,5.607,5.3288,5.1481,5.0696,5.0696,5.029,4.9367,4.8944,4.8381,4.7493,4.7095,4.6954,4.6954,4.6954,4.7229,4.7689,4.7689,4.7689,4.7522,4.678,4.62,4.5654,0.0,0.0,0.0,0.0,0.0,0.0,0.0,0.0,0.0,0.0,0.0,0.0,0.0,0.0,0.0,0.0,0.0,0.0,4.6574,4.7328,4.7851,4.7968,4.8001,4.8001,4.8001,4.873,4.9458,5.022,5.0916,5.1645,5.2373,5.2373,5.2373,5.244,5.35,5.4063,5.4328,5.5587,5.6249,5.6448,5.6614,5.6603,5.6501,5.7747,5.7277,5.5929,5.725,5.7134,5.6381,5.5668,5.5246,5.5242,5.5834,5.6091,5.622,5.6495,5.6733,5.6723,5.6214,5.6053,5.6,5.5717,5.5085,5.4506,5.445,5.4404,5.4226,5.369,5.3846,5.3998,5.3725,5.3782,5.4035,5.4512,5.485,5.5159,5.5468,5.5496,5.5496,5.5496,5.5496,5.5496,5.5496,5.5917,5.617,5.617,5.617,5.617,5.617,5.6788,5.7229,5.7433,5.6429,5.5371,5.421,5.1705,5.0562,5.0696,5.0696,5.0482,4.9914,4.9463,4.9107,4.8585,4.8154,4.801,4.801,4.801,4.8079,4.8194,4.8194,4.8049,4.7613,4.686,4.633,4.5631,0.0,0.0,0.0,0.0,0.0,0.0,0.0,0.0,0.0,0.0,0.0,0.0,0.0,0.0,0.0,0.0,0.0,0.0,0.0,4.716,4.7651,4.7968,4.8001,4.8166,4.8498,4.8895,4.9624,5.0684,5.1082,5.1645,5.2373,5.2373,5.2373,5.244,5.3533,5.403,5.4129,5.5587,5.6216,0.0,0.0,5.6603,5.6657,5.7972,5.7588,5.6515,5.7658,5.7572,5.6796,5.6582,5.6498,5.6509,5.6723,5.6819,5.7034,5.7299,5.7388,5.7317,5.701,5.6995,5.6929,5.6189,5.5571,5.4953,5.4538,5.4206,5.4033,5.3863,5.399,5.4087,5.4205,5.4261,5.4372,5.4906,5.5046,5.5187,5.5468,5.5496,5.5496,5.5496,5.5496,5.5496,5.5496,5.6058,5.6423,5.6423,5.6676,5.6845,5.6845,5.6798,5.69,5.7106,5.5515,5.3941,5.2352,5.0888,5.0383,5.0696,5.0696,5.0412,4.9795,4.9652,4.9245,4.8691,4.8546,4.84,4.84,4.84,4.84,4.84,4.8232,4.7626,4.6869,4.581,4.5063,4.4117,0.0,0.0,0.0,0.0,0.0,0.0,0.0,0.0,0.0,4.3629,4.434,4.4913,4.558,4.5494,0.0,0.0,0.0,0.0,0.0,0.0,4.7458,4.7968,4.8001,4.8299,4.8961,4.9061,4.9756,5.1115,5.1214,5.1645,5.2373,5.2373,5.2373,5.2407,5.3202,5.3566,5.3665,5.5156,5.5786,5.5819,5.6448,5.668,5.6779,0.0,5.7569,5.7102,5.7673,5.7547,5.7281,5.7877,5.8125,5.8084,5.7916,5.7828,5.7956,5.8387,5.8196,5.7788,5.8026,5.8152,5.8009,5.691,5.6359,5.5738,5.473,5.4033,5.3724,5.392,5.3904,5.4002,5.497,5.4516,5.4259,5.5327,5.5046,5.4906,5.544,5.5496,5.5496,5.5496,5.5496,5.5524,5.5608,5.617,5.6592,5.6648,5.7266,5.7575,5.7519,5.6789,5.6178,5.5794,5.3747,5.2139,5.0696,5.0696,5.0696,5.0696,5.0696,5.0246,4.9509,4.9509,4.9101,4.84,4.84,4.84,4.84,4.84,4.84,4.84,4.7941,4.7016,4.5639,4.444,4.3228,4.1942,0.0,0.0,0.0,0.0,0.0,0.0,0.0,0.0,0.0,4.4262,4.4038,4.4272,4.5613,4.5581,0.0,0.0,0.0,0.0,0.0,0.0,0.0,4.7934,4.8001,4.8067,4.8199,4.8796,4.9525,5.0386,5.0982,5.1645,5.2373,5.2373,5.2373,5.244,5.3765,5.4328,5.4427,5.5885,5.6514,5.6514,5.6647,5.668,5.6846,5.8204,5.7701,0.0,5.7344,5.7324,5.7172,5.8364,5.8044,5.7181,5.7491,5.7682,5.7719,5.8237,5.8546,5.8792,5.8719,5.808,5.7412,5.7384,5.639,5.5342,5.4389,5.4483,5.4581,5.4144,5.4487,5.4941,5.5331,5.5271,5.5271,5.5468,5.5412,5.5383,5.5496,5.5496,5.5496,5.5496,5.5496,5.5693,5.6226,5.6845,5.7435,5.794,5.8559,5.8671,5.8165,5.7394,5.5865,5.3445,5.2754,5.1886,5.0696,5.0696,5.0696,5.0696,5.0388,4.9961,4.9509,4.9245,4.8835,4.84,4.84,4.84,4.84,4.84,4.84,4.84,4.7941,4.6869,4.5341,4.4138,4.2616,4.1094,0.0,0.0,0.0,0.0,0.0,0.0,0.0,4.2688,4.3109,4.4563,4.4218,4.4483,4.6028,4.5752,4.5528,0.0,0.0,0.0,0.0,0.0,0.0,4.7934,4.8001,4.8166,4.8564,4.8928,4.9657,5.075,0.0,5.1645,5.2373,5.2373,5.2373,5.2407,5.3467,5.4162,5.4593,5.5686,5.6349,5.668,5.668,5.668,5.6812,5.7827,5.7624,0.0,5.7571,5.7611,5.7596,5.8441,5.851,5.8137,5.8303,5.8237,5.8169,5.8497,5.8712,5.8673,5.8467,5.8204,5.7901,5.7523,5.6912,5.6063,5.48,5.4518,5.4357,5.4175,5.4375,5.4743,5.5327,5.5496,5.5496,5.5496,5.5423,5.5507,5.5552,5.5423,5.5507,5.5552,5.5496,5.5608,5.5917,5.6816,5.7519,5.78,5.8022,5.8032,5.7729,5.5865,5.3868,5.1747,5.1492,5.1236,5.0696,5.0696,5.0696,5.0696,5.0246,4.9961,4.9509,4.9124,4.8835,4.84,4.84,4.84,4.84,4.84,4.8232,4.7941,4.6891,4.5512,4.3815,4.1982,4.0452,3.8919,0.0,0.0,0.0,0.0,0.0,0.0,4.2882,4.2804,4.3228,4.4772,4.4571,4.491,4.6553,4.6154,4.5752,0.0,0.0,0.0,0.0,0.0,0.0,0.0,4.7901,4.8266,4.8862,0.0,0.0,5.1048,5.1214,0.0,0.0,0.0,0.0,0.0,5.3102,5.3732,5.4328,5.5256,5.5951,0.0,0.0,5.668,5.6746,0.0,0.0,0.0,0.0,5.7692,5.7732,5.8414,5.8899,5.9002,5.8971,5.8813,5.8712,5.8751,5.8592,5.8367,5.8153,5.8107,5.8105,5.7631,5.7298,5.6749,5.5233,5.4696,5.4362,5.4063,5.4234,5.46,5.5327,5.5496,5.5496,5.5379,5.5297,5.5317,5.5345,5.5325,5.5317,5.5435,5.5608,5.5749,5.5889,5.666,5.7238,5.7378,5.6677,5.6156,5.6156,5.4004,5.2139,5.0696,5.0696,5.0696,5.0696,5.0696,5.0696,5.0554,5.0104,4.9818,4.9365,4.898,4.8691,4.84,4.84,4.84,4.8377,4.8255,4.7941,4.7186,4.581,4.4138,4.2289,3.9983,3.8444,3.7205,0.0,0.0,0.0,0.0,0.0,0.0,4.2882,4.2882,4.3462,4.5052,4.4863,4.5257,4.7052,4.6554,4.602,0.0,0.0,0.0,0.0,0.0,0.0,0.0,0.0,0.0,0.0,0.0,0.0,5.032,5.0949,0.0,0.0,0.0,0.0,0.0,0.0,5.3467,5.3599,5.5024,0.0,0.0,0.0,0.0,0.0,0.0,0.0,0.0,0.0,5.7216,5.6885,5.8435,5.8673,5.8464,5.8814,5.8876,5.8782,5.8434,5.8121,5.7997,5.834,5.7617,5.6907,5.7828,5.7222,5.6119,5.4902,5.5478,5.5738,5.4121,5.4569,5.5383,5.5468,5.5496,5.5379,5.5144,5.5082,5.5082,5.5026,5.5082,5.52,5.5496,5.6002,5.6564,5.7154,5.6941,5.6894,5.7159,5.473,5.3189,5.3189,5.2916,5.2139,5.0696,5.0696,5.0696,5.0696,5.0696,5.0554,5.0104,4.9795,4.9389,4.898,4.8691,4.84,4.84,4.84,4.84,4.84,4.7941,4.7163,4.5937,4.5213,4.338,4.1094,3.9669,3.8444,3.7205,0.0,0.0,0.0,0.0,0.0,0.0,4.2882,4.2882,4.3462,4.4975,4.4982,4.5466,4.7088,4.6916,4.659,4.6266,0.0,0.0,0.0,0.0,0.0,0.0,0.0,0.0,0.0,0.0,4.8796,4.9558,5.0286,0.0,0.0,0.0,0.0,0.0,0.0,5.3268,5.4129,5.4725,0.0,0.0,0.0,0.0,0.0,0.0,0.0,0.0,0.0,0.0,5.7484,5.8473,5.8712,5.8656,5.853,5.8688,5.8845,5.8688,5.8311,5.784,5.7521,5.7014,5.6432,5.6482,5.6045,5.5539,5.4219,5.4651,5.4912,5.3895,5.4344,5.5074,5.544,5.5496,5.5496,5.5261,5.5095,5.4966,5.5317,5.5095,5.5086,5.5435,5.603,5.6269,5.5917,5.6307,5.6212,5.4942,5.3623,5.2391,5.1607,5.1492,5.1211,5.0696,5.0696,5.0696,5.0696,5.0696,5.0554,5.0104,4.9652,4.9389,4.9003,4.8546,4.84,4.84,4.84,4.84,4.8255,4.7163,4.6255,4.5341,4.338,4.1868,4.049,3.9077,3.7986,3.7365,0.0,0.0,0.0,0.0,0.0,4.2955,4.3208,4.3063,4.3423,4.4935,4.5024,4.5509,4.7044,4.7088,4.6916,4.6731,4.635,0.0,0.0,0.0,0.0,0.0,0.0,0.0,0.0,4.8001,4.8365,4.9094,4.9624,5.0353,0.0,0.0,5.2175,5.2373,0.0,0.0,0.0,0.0,0.0,0.0,0.0,0.0,0.0,0.0,0.0,0.0,0.0,0.0,0.0,0.0,0.0,5.8719,5.8432,5.8497,5.8719,5.8719,5.8248,5.7684,5.7084,5.6549,5.6029,5.5797,5.5352,5.4742,5.3937,5.4112,5.4203,5.3782,5.4147,5.4765,5.5383,5.5496,5.5496,5.5379,5.515,5.5049,5.5228,5.5058,5.4929,5.52,5.5989,5.6076,5.4951,5.5256,5.4787,5.2941,5.2416,5.1747,5.0696,5.0696,5.0696,5.0696,5.0696,5.0696,5.0696,5.0696,5.0412,4.9961,4.9652,4.9245,4.8835,4.8546,4.84,4.8377,4.8232,4.8086,4.7794,4.6255,4.5041,4.4138,4.1868,4.049,3.9726,3.8463,3.7685,3.7365,0.0,0.0,0.0,0.0,0.0,4.3172,4.3969,4.3348,4.3382,4.5091,4.5024,4.543,4.714,4.7098,4.6998,4.6998,4.6637,0.0,0.0,0.0,0.0,0.0,0.0,0.0,0.0,0.0,4.8365,4.9094,4.9127,4.9856,5.128,5.128,5.1678,5.2373,0.0,0.0,0.0,0.0,0.0,0.0,0.0,0.0,5.6151,0.0,0.0,0.0,0.0,0.0,0.0,0.0,0.0,0.0,0.0,5.8274,5.8274,5.8274,5.7903,5.7495,5.7495,5.6311,5.5347,5.6347,5.5323,5.4064,5.4033,5.4063,5.3979,5.3782,5.4147,5.4765,5.5383,5.5496,5.5379,5.5026,5.5026,5.4936,5.4607,5.4607,5.4607,5.4607,5.5899,5.6347,5.4898,5.3576,5.2391,5.1352,5.0954,5.0696,5.0696,5.0696,5.0696,5.0696,5.0696,5.0696,5.0696,5.0696,5.0246,4.9509,4.9509,4.9078,4.84,4.84,4.84,4.84,4.7941,4.7355,4.6596,4.5362,4.3532,4.1713,4.0802,3.9726,3.864,3.8163,3.7685,3.7365,0.0,0.0,0.0,0.0,0.0,0.0,4.4693,4.4144,4.4137,4.5719,4.5767,4.6032,4.699,4.7043,4.6998,4.6998,4.687,0.0,0.0,0.0,0.0,0.0,0.0,0.0,0.0,4.8827,4.8899,4.9043,4.9547,5.019,5.086,5.1393,5.2027,5.2764,5.2764,5.3171,0.0,0.0,0.0,0.0,5.5421,5.5743,5.648,0.0,0.0,0.0,0.0,0.0,0.0,0.0,0.0,0.0,0.0,0.0,0.0,5.8274,5.7871,5.7401,5.7084,5.6017,5.5036,5.4834,5.4071,5.3238,5.2897,5.3156,5.3498,5.3698,5.4147,5.4765,5.5383,5.5496,5.5496,5.5379,5.5144,5.4908,5.4908,5.4791,5.4825,5.4825,5.4619,5.4224,5.3687,5.2346,5.1516,5.1187,5.0813,5.0696,5.0696,5.0696,5.0696,5.0696,5.0696,5.0696,5.0696,5.0412,4.9961,4.9509,4.9245,4.8835,4.84,4.84,4.8232,4.7941,4.7332,4.6743,4.6002,4.3684,4.2309,4.1539,3.9883,3.8956,3.8481,3.8163,3.7685,3.7365,0.0,0.0,0.0,0.0,0.0,0.0,4.5526,4.4975,4.4859,4.6152,4.6126,4.6283,4.7026,4.7043,4.6998,4.6998,4.6998,0.0,0.0,0.0,0.0,0.0,0.0,0.0,4.8813,4.9086,4.9135,4.9107,4.9458,5.0004,5.0618,5.136,5.2034,5.2741,5.3044,5.3619,0.0,0.0,0.0,0.0,5.5381,5.5709,5.648,0.0,0.0,0.0,0.0,0.0,0.0,0.0,0.0,0.0,0.0,0.0,0.0,0.0,5.7714,5.7089,5.7022,5.6017,5.4875,5.4495,5.3569,5.2737,5.2424,5.2484,5.2795,5.3192,5.381,5.4428,5.5046,5.5355,5.5496,5.5379,5.5261,5.511,5.4828,5.4852,5.4815,5.4538,5.3471,5.2645,5.245,5.1073,5.036,5.0731,5.0524,5.0479,5.0696,5.0696,5.0696,5.0696,5.0696,5.0554,5.0412,5.0246,4.9818,4.9245,4.9124,4.8835,4.84,4.84,4.8232,4.7794,4.6743,4.5853,0.0,4.2483,4.1249,4.0627,3.9096,3.8481,3.8322,3.8163,3.7685,3.7045,0.0,0.0,0.0,0.0,0.0,0.0,0.0,4.5843,4.5585,4.6463,4.6284,4.6398,4.7204,4.7098,4.6998,4.6998,4.6998,0.0,0.0,0.0,0.0,0.0,0.0,0.0,4.8401,4.9001,4.9316,4.9256,4.9168,4.9603,5.0564,5.1191,5.1813,5.2595,5.3343,5.3849,0.0,0.0,0.0,0.0,5.5329,5.5762,0.0,0.0,0.0,0.0,0.0,0.0,0.0,0.0,0.0,0.0,0.0,0.0,0.0,0.0,0.0,0.0,0.0,5.6054,5.473,5.5041,5.3588,5.2283,5.2628,5.2208,0.0,5.2574,5.322,5.3866,5.4484,5.5074,5.5379,5.5026,5.5261,5.5221,5.4474,5.4787,5.4662,5.4039,5.2646,5.1595,5.128,4.9989,4.9277,4.9782,4.9878,5.0143,5.0624,5.0672,5.0696,5.0696,5.0696,5.0412,5.0104,5.0104,4.9699,4.898,4.898,4.8691,4.84,4.84,4.8086,4.7648,4.6448,4.5084,4.3421,4.1733,4.0334,3.9272,3.8798,3.8322,3.8004,3.8004,3.7365,3.6742,0.0,0.0,0.0,0.0,0.0,0.0,0.0,0.0,0.0,0.0,4.7068,4.6999,4.7187,4.7088,4.6998,0.0,0.0,0.0,0.0,0.0,0.0,0.0,0.0,0.0,4.9028,4.9868,5.0194,4.9942,5.0057,5.0379,5.0926,5.1657,5.2386,5.3014,5.3734,5.4205,0.0,0.0,0.0,0.0,5.5508,5.613,0.0,0.0,0.0,0.0,5.5945,5.6047,0.0,0.0,0.0,0.0,0.0,0.0,0.0,0.0,5.7152,5.6869,5.6308,0.0,5.4845,5.4065,5.3271,5.2494,0.0,5.1899,5.1955,5.2574,5.322,5.3866,5.4484,5.5074,5.5379,5.5026,5.5261,5.5221,5.4474,5.4997,5.5203,5.4246,5.3166,5.2228,5.1305,5.0149,4.9406,4.9253,5.0046,5.0383,5.007,5.0479,5.0696,5.0696,5.0412,5.0246,5.0104,4.9556,4.9124,4.898,4.8691,4.8546,4.84,4.84,4.7941,4.7208,4.5683,4.4482,4.3442,4.1133,4.0059,3.9745,3.8956,3.8322,3.8004,3.7685,3.7205,3.6742,0.0,0.0,0.0,0.0,0.0,0.0,0.0,0.0,0.0,0.0,4.7399,4.7267,4.7267,4.7088,4.6998,0.0,0.0,0.0,0.0,0.0,0.0,0.0,0.0,4.8679,4.8835,4.9971,5.0509,5.0285,5.0341,5.055,5.0818,5.1592,5.2295,5.2969,5.3914,5.4431,0.0,0.0,5.5066,5.6371,5.5788,0.0,0.0,0.0,0.0,0.0,5.5653,5.5615,0.0,5.4853,5.5809,5.7168,0.0,0.0,0.0,0.0,5.6996,5.6555,5.5791,5.515,5.4509,5.3681,5.2972,5.2358,5.1896,5.2012,5.2321,5.263,5.322,5.3866,5.4484,5.4734,5.4837,5.4762,5.479,5.4745,5.4474,5.5114,5.5141,5.3476,5.3114,5.2246,5.0419,4.9523,4.9189,4.9397,4.9758,4.9926,4.9878,5.0167,5.0215,4.9974,4.9604,4.9558,4.9795,4.9268,4.8835,4.8691,4.8546,4.8232,4.8086,4.8086,4.7502,4.6299,4.5063,4.3705,4.235,4.0685,3.9588,3.9272,3.8798,3.8163,3.7685,3.7525,3.7045,3.642,0.0,0.0,0.0,0.0,0.0,0.0,0.0,0.0,0.0,0.0,0.0,0.0,0.0,0.0,0.0,0.0,0.0,0.0,0.0,0.0,0.0,0.0,4.7929,4.8643,4.8487,4.994,5.0564,5.0453,5.0453,5.0509,5.062,5.1311,5.2068,5.2879,5.3998,5.4494,5.4494,5.4494,5.5066,5.5996,5.6133,0.0,0.0,0.0,0.0,0.0,0.0,0.0,0.0,5.4378,5.543,5.6947,5.6252,0.0,0.0,0.0,0.0,0.0,5.5577,5.4917,5.4215,5.3605,5.2865,5.2221,5.1896,5.2208,5.2602,5.2686,5.3135,5.3754,5.4456,5.4222,5.4213,5.4497,5.4424,5.4227,5.4243,5.4979,5.4751,5.2541,5.2638,5.1993,4.9616,4.886,4.8748,4.9565,4.9277,4.9229,4.9614,4.971,4.9541,4.9084,4.8683,4.8827,4.9131,4.9031,4.8691,4.84,4.84,4.8232,4.7794,4.7648,4.6743,4.5405,4.4482,4.2943,4.1113,4.0216,3.943,3.864,3.8481,3.8004,3.7365,3.7365,3.6724,3.6097,0.0,0.0,0.0,0.0,0.0,0.0,0.0,0.0,0.0,0.0,0.0,0.0,0.0,0.0,0.0,0.0,0.0,0.0,0.0,0.0,0.0,4.659,4.7829,4.8785,4.9291,5.0309,5.0764,5.0585,5.0764,5.0764,5.062,5.1424,5.237,5.3463,5.4178,5.4494,5.4494,5.4494,5.5262,5.6371,5.6235,0.0,0.0,0.0,0.0,0.0,0.0,0.0,0.0,5.4306,5.5083,5.622,5.5525,0.0,0.0,0.0,0.0,0.0,5.5317,5.4654,5.411,5.3405,5.2865,5.2465,5.1896,5.1871,5.2068,5.2602,5.277,5.3108,5.4027,5.4107,5.4213,5.4497,5.4633,5.4555,5.3782,5.4484,5.4427,5.314,5.2411,5.1715,5.1173,4.9801,4.8844,4.8555,4.8868,4.8916,4.8555,4.8964,4.9019,4.8672,4.8352,4.8006,4.7796,4.8252,4.84,4.84,4.84,4.8232,4.7794,4.7038,4.6299,4.5256,4.3877,4.2503,4.1598,4.0372,3.943,3.864,3.8163,3.7525,3.6742,3.6742,3.6581,3.6097,0.0,0.0,0.0,0.0,0.0,0.0,0.0,0.0,0.0,0.0,0.0,0.0,0.0,0.0,0.0,0.0,0.0,0.0,0.0,0.0,4.6931,4.7731,4.8272,4.8679,4.8943,5.0223,5.0764,5.0509,5.0675,5.0675,5.0509,5.173,5.274,5.3549,5.4184,5.4494,5.4494,5.4494,5.4957,5.5722,0.0,0.0,0.0,0.0,0.0,0.0,0.0,0.0,0.0,0.0,5.5335,5.6125,5.56,0.0,0.0,0.0,0.0,0.0,5.5486,5.4786,5.4136,5.3348,5.2703,5.2296,5.1873,5.2256,5.2724,5.2899,5.3176,5.3591,5.429,5.4124,5.3979,5.4231,5.4441,5.4133,5.3498,5.3955,5.3714,5.2156,5.1631,5.1139,5.0332,4.9213,4.8676,4.8724,4.8676,4.8555,4.8315,4.8396,4.826,4.7702,4.744,4.7306,4.7423,4.7597,4.7698,4.7987,4.8118,4.7648,4.6743,4.6151,4.5106,4.3725,4.2657,4.1753,4.0666,3.9588,3.8798,3.8163,3.7845,3.7205,3.6742,3.642,3.5935,3.545,0.0,0.0,0.0,0.0,0.0,0.0,0.0,0.0,0.0,0.0,0.0,0.0,0.0,0.0,0.0,0.0,0.0,0.0,0.0,4.6684,4.7179,4.8458,4.8588,4.8731,4.8995,5.0187,5.071,5.0397,5.0509,5.0509,5.0376,5.1882,5.2805,5.3149,5.4115,5.4494,5.4529,5.4431,5.4686,5.5142,0.0,0.0,0.0,0.0,0.0,0.0,0.0,0.0,0.0,0.0,0.0,0.0,0.0,0.0,0.0,5.6093,5.6056,5.6158,5.562,5.4934,5.4094,5.3144,5.2545,5.2003,5.1801,5.2424,5.3143,5.3213,5.3426,5.3865,5.4552,5.4193,5.3909,5.4112,5.4314,5.4047,5.3078,5.3209,5.2754,5.0735,5.0588,5.0246,4.9197,4.8603,4.8459,4.8868,4.8411,4.8171,4.8156,4.7885,4.7631,4.7076,4.6814,4.6935,4.7283,4.6968,4.7144,4.7683,4.7467,4.6891,4.5853,4.5106,4.3877,4.2216,4.1598,4.0821,3.9745,3.8956,3.8322,3.7845,3.7365,3.6885,3.642,3.608,3.5433,3.4621,0.0,0.0,0.0,0.0,0.0,0.0,0.0,0.0,0.0,0.0,0.0,0.0,0.0,0.0,0.0,0.0,0.0,0.0,0.0,4.6731,4.6979,4.7864,4.8358,4.917,5.041,5.055,5.0564,5.0397,5.0397,5.0341,5.0206,5.1613,5.2252,5.2356,5.3839,5.4494,5.4494,5.4303,5.4556,5.5109,5.569,0.0,0.0,0.0,0.0,0.0,0.0,0.0,0.0,0.0,0.0,0.0,0.0,0.0,5.5624,5.5286,5.5441,5.5612,5.527,5.4687,5.3934,5.2905,5.2346,5.2146,5.1818,5.1874,5.2266,5.3388,5.3184,5.3082,5.4386,5.4552,5.4405,5.4194,5.479,5.4643,5.2439,5.2218,5.1428,4.9686,4.912,4.9072,4.9036,4.8603,4.8315,4.8339,4.7858,4.7652,4.7726,4.7773,4.7553,4.7446,4.6912,4.6797,4.6862,4.6626,4.6819,4.7749,4.6721,4.5853,4.5405,4.3877,4.2657,4.1753,4.0977,4.004,3.9272,3.8798,3.8163,3.7365,3.6885,3.6241,3.5433,3.5433,3.4946,3.4131,0.0,0.0,0.0,0.0,0.0,0.0,0.0,0.0,0.0,0.0,0.0,0.0,0.0,0.0,0.0,0.0,0.0,0.0,0.0,4.6684,4.7108,4.8317,4.838,4.9046,5.0474,5.053,5.053,5.0397,5.0285,5.0657,5.145,5.2062,5.2796,5.3667,5.4253,5.4431,5.4303,5.4239,5.4151,5.4126,5.4941,5.5342,0.0,0.0,0.0,0.0,0.0,0.0,0.0,0.0,5.4925,5.4995,5.4568,5.4898,5.5405,5.4696,5.4853,5.5074,5.4431,5.3714,5.3016,5.2533,5.1846,5.1433,5.1732,5.2086,5.2388,5.2701,5.3076,5.3645,5.4497,5.4523,5.4512,5.4396,5.4314,5.3806,5.2315,5.1294,5.0232,4.8977,4.8342,4.8016,4.8074,4.7906,4.781,4.781,4.7617,4.746,4.7518,4.7116,4.6805,4.6721,4.6148,4.5898,4.6146,4.5997,4.6051,4.6145,4.602,4.527,4.4188,4.331,4.21,4.0607,4.0257,3.9745,3.9272,3.8481,3.7845,3.7365,3.6563,3.5935,3.5433,3.5433,3.4783,3.4131,0.0,0.0,0.0,0.0,0.0,0.0,0.0,0.0,0.0,0.0,0.0,0.0,0.0,0.0,0.0,0.0,0.0,0.0,4.7226,4.7074,4.7639,4.9094,4.8907,4.9291,5.0418,5.0509,5.0453,5.0263,5.0206,5.0748,5.1873,5.2235,5.303,5.4184,5.4391,5.4367,5.4175,5.4175,5.3915,5.3551,5.4228,5.4693,0.0,0.0,0.0,0.0,0.0,0.0,0.0,0.0,5.4798,5.4711,5.4568,5.4617,5.4812,5.451,5.4481,5.4413,5.4012,5.3302,5.2594,5.2004,5.1458,5.1238,5.1386,5.1878,5.2328,5.2338,5.3138,5.3874,5.4259,5.4118,5.393,5.4249,5.3713,5.2861,5.1819,5.0689,4.9668,4.8576,4.7918,4.7497,4.7497,4.7497,4.7497,4.7497,4.7497,4.7436,4.7337,4.6957,4.6599,4.6491,4.5942,4.5714,4.5798,4.5557,4.5288,4.487,4.5077,4.4332,4.2791,4.2086,4.098,3.9451,3.958,3.9318,3.8956,3.8163,3.7525,3.6885,3.6402,3.5757,3.5271,3.5271,3.4621,3.3968,0.0,0.0,0.0,0.0,0.0,0.0,0.0,0.0,0.0,0.0,0.0,0.0,0.0,0.0,0.0,0.0,0.0,0.0,4.8104,4.7938,4.8502,5.0024,4.9837,4.9977,5.0585,5.0453,5.0263,5.0011,5.0011,5.039,5.1149,5.1873,5.2666,5.3425,5.4184,5.4367,5.4175,5.4045,5.3849,5.3719,5.3917,5.4443,5.5108,0.0,0.0,0.0,0.0,0.0,0.0,0.0,5.4103,5.4103,5.3876,5.3584,5.3658,5.4789,5.4324,5.3639,5.4154,5.3652,5.2701,5.121,5.1348,5.1677,5.1017,5.1348,5.1955,5.2574,5.2995,5.3347,5.3828,5.3196,5.2886,5.3483,5.2956,5.2094,5.0842,5.0181,4.954,4.8158,4.7762,4.7497,4.7497,4.7497,4.7497,4.7497,4.7497,4.7471,4.7205,4.7228,4.705,4.6839,4.638,4.6218,4.6275,4.54,4.4671,4.3961,4.3547,4.2816,4.1616,4.0014,3.9051,3.8676,3.8676,3.8743,3.8481,3.7685,3.6885,3.6097,3.6097,3.5595,3.4783,3.4783,3.4294,3.3492,0.0,0.0,0.0,0.0,0.0,0.0,0.0,0.0,0.0,0.0,0.0,0.0,0.0,0.0,0.0,0.0,0.0,0.0,4.7226,4.7571,4.8204,4.9094,4.9398,4.9851,5.0453,5.0263,5.0068,5.0011,5.0528,5.1149,5.1908,5.2701,5.346,5.4184,5.4264,5.4175,5.4045,5.3584,5.355,5.374,5.4189,5.4551,5.4897,0.0,0.0,0.0,0.0,0.0,0.0,0.0,0.0,0.0,5.3876,5.3584,5.3565,5.42,5.3863,5.3256,5.3491,5.2885,5.1948,5.1677,5.1348,5.1238,5.1458,5.1677,5.1955,5.2574,5.2741,5.2955,5.3342,5.3097,5.285,5.2634,5.205,5.1194,5.0334,4.959,4.8812,4.8026,4.7762,4.7497,4.7497,4.7497,4.7497,4.7497,4.7232,4.717,4.7068,4.6529,4.6328,4.6194,4.5508,4.5095,4.4838,4.462,4.3916,4.2565,4.2331,4.1792,4.1191,4.0744,3.9926,3.9141,3.9141,3.89,3.8481,3.8004,3.7525,3.7045,3.6581,3.5757,3.4783,3.4783,3.4294,3.3492,0.0,0.0,0.0,0.0,0.0,0.0,0.0,0.0,0.0,0.0,4.7178,4.7088,0.0,0.0,0.0,0.0,0.0,0.0,4.7666,4.8019,4.865,4.9607,4.9925,5.0165,5.0397,5.0149,5.0149,5.0459,5.0907,5.1666,5.2701,5.3184,5.3804,5.4494,5.4303,5.4045,5.3749,5.345,5.3408,5.3612,5.3824,5.424,5.4724,0.0,0.0,0.0,0.0,0.0,0.0,0.0,0.0,0.0,5.3876,5.3584,5.3476,5.3898,5.3516,5.2961,5.3143,5.2521,5.1868,5.1568,5.1348,5.1348,5.1677,5.1787,5.1899,5.2264,5.2296,5.2406,5.2882,5.2369,5.1817,5.1924,5.1021,5.0079,4.9797,4.9097,4.8445,4.8026,4.7762,4.7497,4.7497,4.7497,4.7497,4.7364,4.7098,4.6831,4.6563,4.616,4.589,4.5754,4.5074,4.4663,4.4273,4.4147,4.3284,4.1594,4.1626,4.1106,4.0057,3.9889,3.9372,3.8761,3.8925,3.8734,3.8322,3.8163,3.7685,3.7045,3.6742,3.5918,3.4783,3.4783,3.4294,3.3492,0.0,0.0,4.6567,4.735,0.0,0.0,0.0,0.0,0.0,0.0,4.7088,4.7043,0.0,0.0,0.0,0.0,0.0,0.0,4.891,4.9011,4.9604,5.0947,5.0892,5.071,5.0397,5.0218,5.0459,5.1218,5.1218,5.1977,5.3391,5.346,5.3873,5.4431,5.4239,5.3881,5.3382,5.3416,5.3405,5.346,5.3305,5.3749,5.4565,5.4034,0.0,0.0,0.0,0.0,0.0,0.0,0.0,0.0,5.3876,5.3584,5.3361,5.3772,5.3308,5.2723,5.299,5.2623,5.2004,5.1238,5.1348,5.1787,5.1787,5.1787,5.1787,5.1787,5.1787,5.1955,5.2517,5.1167,5.0297,5.1243,4.9914,4.881,4.8923,4.8812,4.8445,4.8026,4.763,4.7497,4.7497,4.7497,4.7364,4.6965,4.6965,4.6697,4.589,4.589,4.5754,4.5347,4.4937,4.4663,4.4273,4.3858,4.2721,4.1025,4.1276,4.0464,3.8567,3.8307,3.8085,3.8024,3.8356,3.8213,3.7896,3.7896,3.7436,3.6689,3.6689,3.5901,3.4783,3.4783,3.4294,3.3492,0.0,0.0,4.6857,4.8053,0.0,0.0,0.0,0.0,0.0,0.0,0.0,0.0,0.0,0.0,0.0,0.0,0.0,0.0,0.0,4.9074,4.9818,4.9978,5.0305,5.0397,5.0263,5.0679,5.1218,5.1977,5.1977,5.2459,5.3425,5.4011,5.4293,5.4239,5.411,5.3783,5.328,5.3365,5.3526,5.3803,5.4007,5.4358,5.4723,5.4557,5.4401,0.0,0.0,0.0,0.0,0.0,0.0,0.0,5.3876,5.3321,5.3034,5.3926,5.3144,5.2222,5.3094,5.2837,5.2113,5.1677,5.1677,5.1787,5.1787,5.1787,5.1787,5.1787,5.1787,5.1843,5.1955,5.0894,5.0031,5.0271,4.9399,4.8557,4.8041,4.8305,4.8313,4.763,4.7497,4.7497,4.7497,4.7497,4.7364,4.6965,4.6697,4.6294,4.589,4.5619,4.5483,4.537,4.48,4.4411,4.4273,4.358,4.2743,4.1735,4.0944,3.9979,3.8983,3.8619,3.8065,3.7576,3.762,3.7686,3.7531,3.7531,3.7246,3.6764,3.6764,3.5983,3.4783,3.4783,3.4294,3.3492,0.0,0.0,0.0,0.0,0.0,0.0,0.0,0.0,0.0,0.0,0.0,0.0,0.0,0.0,0.0,0.0,0.0,0.0,0.0,4.9517,4.996,5.0099,5.03,5.0341,5.0171,5.0759,5.1459,5.2218,5.2597,5.3184,5.3942,5.4322,5.4367,5.4175,5.4045,5.3754,5.3405,5.3157,5.3404,5.4137,5.4013,5.4422,5.4948,5.4948,5.4613,5.4242,5.4242,0.0,0.0,0.0,0.0,0.0,0.0,0.0,5.2823,5.336,5.2753,5.202,5.2704,5.2544,5.2113,5.1896,5.1787,5.1787,5.1787,5.1787,5.1787,5.1787,5.1787,5.1677,5.121,5.0227,4.9488,4.9311,4.8564,4.8058,4.7947,4.8139,4.802,4.7738,4.763,4.7497,4.7497,4.7497,4.7232,4.6697,4.654,4.6136,4.5754,4.5483,4.537,4.537,4.4686,4.4273,4.4273,4.358,4.2603,4.1452,4.0719,3.955,3.797,3.7968,3.7821,3.7422,3.7338,3.7539,3.7704,3.7704,3.7475,3.7046,3.6869,3.5953,3.4536,3.4519,3.4034,3.3254,0.0,0.0,0.0,0.0,0.0,0.0,0.0,0.0,0.0,0.0,0.0,0.0,0.0,0.0,0.0,0.0,0.0,0.0,0.0,5.0082,5.0294,5.0759,5.0662,5.0563,5.0587,5.1173,5.1804,5.2425,5.3218,5.3908,5.4431,5.4431,5.4367,5.4175,5.4051,5.3855,5.3551,5.3147,5.356,5.4421,5.4013,5.4373,5.5113,5.5031,5.4781,5.4327,5.4327,5.4242,5.4103,5.4103,0.0,0.0,0.0,0.0,5.2551,5.2755,5.2269,5.1701,5.2174,5.2221,5.2004,5.1787,5.1787,5.1787,5.1787,5.1787,5.1787,5.1568,5.1568,5.132,5.0517,4.9529,4.8769,4.8444,4.7663,4.7332,4.788,4.777,4.7783,4.7831,4.7714,4.7497,4.7364,4.7364,4.7098,4.6405,4.6271,4.6025,4.5483,4.537,4.5347,4.5347,4.4686,4.4273,4.4273,4.358,4.2462,4.1025,4.0269,3.8826,3.6664,3.6998,3.72,3.7209,3.7209,3.7393,3.7704,3.7704,3.7529,3.7135,3.6816,3.5815,3.4338,3.4321,3.3839,3.3095,0.0,0.0,0.0,0.0,0.0,0.0,0.0,0.0,0.0,0.0,4.7747,4.7788,0.0,0.0,0.0,0.0,0.0,0.0,5.0095,0.0,0.0,5.1394,5.1372,5.1512,5.1908,5.2701,5.3149,5.3253,5.4011,5.4328,5.4239,5.4239,5.4175,5.4014,5.4161,5.3874,5.3467,5.4283,5.4632,5.4677,5.5004,5.5166,5.5113,5.4896,5.4528,5.4189,5.4189,5.4103,5.4103,5.4103,5.4103,0.0,0.0,0.0,5.2154,5.2852,5.1876,5.0875,5.2301,5.2221,5.1787,5.1486,5.1596,5.1677,5.1486,5.1596,5.1568,5.074,5.0628,5.0517,5.0405,4.9045,4.7821,4.7807,4.7409,4.7057,4.6836,4.7277,4.7636,4.7321,4.7472,4.7364,4.7098,4.7122,4.6697,4.6025,4.6025,4.5754,4.5347,4.537,4.521,4.4937,4.4526,4.4135,4.3836,4.3441,4.2743,4.1877,3.9714,3.7824,3.6201,3.6404,3.6311,3.6366,3.6366,3.6402,3.6439,3.6439,3.6461,3.6372,3.6319,3.5605,3.4717,3.4717,3.4229,3.3429,0.0,0.0,0.0,0.0,0.0,0.0,0.0,0.0,0.0,0.0,0.0,4.8442,0.0,0.0,0.0,4.9412,5.0004,5.0424,5.0559,5.1192,5.159,5.1511,5.1964,5.2171,5.2218,5.3011,5.3391,5.3391,5.4149,5.4367,5.4239,5.411,5.3915,5.3685,5.4194,5.4209,5.3874,5.4349,5.4685,5.5117,5.4891,5.5149,5.5661,5.5274,5.5037,5.4813,5.4603,5.4359,5.4103,5.4103,5.4103,5.4017,5.3377,0.0,0.0,0.0,5.1754,5.127,5.2017,5.2004,5.1677,5.1514,5.1486,5.1486,5.1404,5.1486,5.1348,5.0517,4.9956,4.9502,4.893,4.8262,4.7586,4.6993,4.6743,4.6534,4.6341,4.6535,4.6822,4.6891,4.7051,4.7053,4.6941,4.6965,4.6697,4.6025,4.589,4.5754,4.537,4.537,4.521,4.48,4.4526,4.4135,4.3697,4.3302,4.23,4.0719,3.8555,3.7089,3.6201,3.6201,3.6201,3.6201,3.6201,3.6347,3.6567,3.6567,3.6594,3.6505,3.635,3.5469,3.4525,3.4565,3.3985,3.3222,0.0,0.0,0.0,0.0,0.0,0.0,0.0,0.0,0.0,0.0,0.0,0.0,0.0,0.0,0.0,0.0,5.0524,5.0783,5.1227,5.1681,5.2004,5.2103,5.2636,5.2899,5.2804,5.3391,5.3667,5.3667,5.4155,5.4303,5.4175,5.4251,5.4056,5.3618,5.4258,5.4534,5.4448,5.4459,5.4914,5.5539,5.5053,5.5407,5.6195,5.573,5.5525,5.5398,5.4868,0.0,0.0,0.0,5.4103,5.3844,5.3113,5.2734,0.0,0.0,0.0,5.1746,5.1666,5.1783,5.1706,5.1461,5.1405,5.1322,5.1127,5.1044,5.0822,4.9843,4.9186,4.8495,4.7468,4.7349,4.7112,4.6421,4.6301,4.633,4.6118,4.6167,4.6312,4.648,4.6665,4.6741,4.6594,4.676,4.6563,4.589,4.5754,4.5619,4.5347,4.5347,4.5074,4.4663,4.4388,4.3997,4.358,4.2861,4.1573,3.9714,3.7677,3.6664,3.6201,3.6201,3.6201,3.6201,3.6201,3.6384,3.6677,3.6677,3.6612,3.6498,3.619,3.5383,3.435,3.4283,3.3806,3.3111,0.0,0.0,0.0,0.0,0.0,0.0,0.0,0.0,0.0,0.0,0.0,0.0,4.964,5.0376,5.0701,5.0346,5.1007,5.1651,5.2075,5.2052,5.2494,5.3669,5.3593,0.0,5.4391,5.4425,5.446,5.446,5.4269,5.4175,5.4014,5.4698,5.4771,5.4289,5.4422,5.4816,5.5237,5.5343,5.5588,5.6039,5.6007,5.6247,5.6395,5.5942,0.0,0.0,0.0,0.0,0.0,0.0,0.0,5.3615,5.2667,5.2063,5.1566,0.0,0.0,0.0,5.1343,5.1553,5.1708,5.1398,5.1348,5.1183,5.0255,5.0047,4.967,4.8146,4.7795,4.7468,4.6541,4.6421,4.6301,4.6301,4.6301,4.6326,4.6351,4.6437,4.6415,4.6216,4.6743,4.6834,4.5809,4.6123,4.616,4.5483,4.5506,4.537,4.537,4.5074,4.4663,4.4411,4.3997,4.358,4.3184,4.1431,4.0146,3.9714,3.7677,3.6664,3.6201,3.6201,3.6201,3.6201,3.6201,3.6219,3.6237,3.6237,3.6044,3.5645,3.5645,3.5003,3.4189,3.4222,3.3969,3.3413,0.0,0.0,0.0,0.0,0.0,0.0,0.0,0.0,0.0,0.0,0.0,0.0,0.0,5.1024,5.128,5.0977,5.1476,5.2091,5.281,5.3169,5.3463,5.3808,5.4148,5.4441,5.4494,5.4494,5.4431,5.4303,5.4239,5.435,5.4698,5.4804,5.5109,5.552,5.5536,5.5505,5.5347,5.5553,5.5766,5.5912,5.6136,5.6433,5.6905,5.6421,0.0,0.0,0.0,0.0,0.0,0.0,0.0,0.0,5.3435,5.2882,5.2479,5.1845,5.1678,5.1718,5.1796,5.1835,5.1734,5.1405,5.1376,5.1093,5.0135,4.9986,4.9525,4.799,4.7703,4.7468,4.6421,4.6301,4.6301,4.6301,4.6301,4.618,4.6059,4.5991,4.5995,4.5844,4.5983,4.6086,4.6001,4.6215,4.6076,4.5731,4.5754,4.5483,4.5074,4.5074,4.4937,4.4273,4.4135,4.3858,4.3184,4.1004,3.9858,3.9714,3.753,3.6349,3.6201,3.6201,3.6201,3.6201,3.6201,3.6201,3.6201,3.6201,3.6143,3.6008,3.5655,3.5158,3.4542,3.4299,3.3839,3.3127,0.0,0.0,0.0,4.8901,0.0,4.9003,4.9367,4.9434,4.9676,5.0164,0.0,0.0,0.0,0.0,5.1967,5.1935,5.2376,5.2846,5.3449,5.3801,5.4042,5.4105,5.4503,5.4655,5.4494,5.419,5.4126,5.4239,5.4175,5.4422,5.5007,5.5485,5.5818,5.6218,5.6378,5.6136,5.5476,5.5651,5.5685,5.5864,5.626,5.6649,5.7002,0.0,0.0,0.0,0.0,0.0,0.0,0.0,0.0,0.0,0.0,0.0,5.2408,5.2384,5.1908,5.1461,5.1953,5.1802,5.1425,5.121,5.121,5.1007,5.0108,4.9525,4.8852,4.7755,4.7231,4.6874,4.6421,4.6301,4.6301,4.6301,4.6301,4.618,4.5939,4.5817,4.5698,4.5575,4.5521,4.5658,4.5609,4.599,4.6083,4.5611,4.5797,4.5619,4.5074,4.5074,4.4937,4.4273,4.3997,4.358,4.2861,4.0719,3.957,3.9136,3.7089,3.6201,3.6201,3.6201,3.6201,3.6201,3.6201,3.6201,3.6201,3.6201,3.6052,3.579,3.5308,3.488,3.4189,3.3908,3.3402,3.2777,0.0,4.8643,4.8712,4.9163,4.9149,4.9227,4.9667,4.9856,5.0145,5.0689,0.0,0.0,0.0,0.0,0.0,5.3212,5.358,5.3898,5.408,5.3938,5.4105,5.4745,5.4592,5.4494,5.4529,5.3582,5.3484,5.4274,5.408,5.4324,5.4907,5.6611,5.6975,5.6285,5.6763,5.6525,5.5766,5.5523,5.5523,5.5815,5.6606,5.6893,5.6829,0.0,0.0,0.0,5.5493,5.5709,0.0,0.0,0.0,0.0,0.0,0.0,0.0,5.2632,5.1931,5.0966,0.0,0.0,0.0,5.0851,5.0906,5.0736,5.0024,4.8799,4.7703,4.7324,4.6516,4.5939,4.618,4.6301,4.6301,4.6301,4.6301,4.6301,4.6301,4.6059,4.5696,4.5331,4.5427,4.5368,4.4634,4.5562,4.5893,4.5123,4.5587,4.5731,4.537,4.4937,4.4663,4.4273,4.358,4.2721,4.1975,4.0412,3.9136,3.797,3.6793,3.6201,3.6201,3.6201,3.6201,3.6201,3.6201,3.6201,3.6201,3.6201,3.5754,3.5007,3.4556,3.389,3.3027,3.3074,3.2729,3.2396,5.0039,5.0264,5.0335,5.02,5.0277,5.041,5.0642,5.0659,5.0976,0.0,0.0,0.0,0.0,5.3085,5.3399,5.3928,5.3998,5.4256,5.485,5.4678,5.4661,5.493,5.462,5.4592,5.4717,5.4161,5.4308,5.5098,5.4734,5.5315,5.6679,5.6596,5.6707,5.6988,5.6536,5.6165,5.5766,5.5523,5.5523,5.5815,5.6606,5.6863,0.0,0.0,0.0,0.0,0.0,5.6686,0.0,0.0,5.6604,5.5964,0.0,0.0,0.0,0.0,5.2558,5.203,5.1757,0.0,0.0,0.0,0.0,0.0,5.0081,4.964,4.8878,4.7519,4.6968,4.6636,4.6059,4.5696,4.5574,4.5574,4.5939,4.618,4.5939,4.5817,4.5574,4.4963,4.4962,4.4957,4.4966,4.5,4.5219,4.5451,4.5129,4.4844,4.4663,4.425,4.3974,4.3858,4.284,4.2116,4.1551,3.955,3.8263,3.797,3.6793,3.6201,3.6201,3.6201,3.6201,3.6201,3.6201,3.6201,3.6201,3.6201,3.5754,3.5007,3.4556,3.389,3.2994,3.2797,3.2376,3.2046,5.0695,5.0729,5.0758,5.0757,5.0744,5.0967,5.1574,5.162,5.1886,0.0,0.0,0.0,5.3823,5.3817,5.3985,5.4642,5.4688,5.4839,5.5139,5.5053,5.493,5.493,5.4717,5.4793,5.5104,5.4539,5.4724,5.572,5.5519,5.5962,5.7046,5.6886,5.6813,5.6911,5.6447,5.6006,5.5604,5.5604,5.5604,5.5734,5.652,0.0,0.0,5.7474,5.7667,0.0,0.0,0.0,5.7932,5.7932,5.7172,0.0,0.0,0.0,0.0,0.0,0.0,5.2365,0.0,5.1498,5.0995,5.1101,0.0,0.0,5.0617,4.9959,4.9086,4.8276,4.7802,4.7248,4.6301,4.6113,4.5944,4.5355,4.5574,4.5817,4.5574,4.5453,4.5208,4.484,4.4717,4.4591,4.4505,4.4594,4.4593,4.4818,4.4758,4.4684,4.4503,4.4112,4.3697,4.3258,4.2257,4.1247,4.0249,3.8681,3.7677,3.7236,3.6497,3.6201,3.6201,3.6201,3.6201,3.6201,3.6201,3.6201,3.6201,3.6052,3.5456,3.4707,3.4105,3.3331,3.2626,3.2323,3.2076,3.1935,0.0,5.0733,5.0737,5.1321,5.1131,5.1294,5.2604,5.2644,5.2802,0.0,5.3626,5.3795,5.4349,5.4419,5.4642,5.5129,5.5354,5.5294,5.5053,5.5183,5.5157,5.4981,5.4988,5.5208,5.5736,5.4987,5.5135,5.6338,5.6372,5.6471,5.6645,5.7211,5.7139,5.6447,5.6369,5.6039,5.5621,5.5815,5.5848,5.5766,5.667,5.6766,0.0,0.0,5.8055,0.0,5.8213,5.8808,5.9241,5.8972,5.7809,0.0,0.0,0.0,0.0,0.0,5.3186,0.0,0.0,0.0,0.0,5.1314,5.112,0.0,5.123,5.002,4.8974,4.9388,4.8811,4.782,4.6925,4.6894,4.6584,4.5527,4.5331,4.5331,4.5208,4.4963,4.484,4.4717,4.447,4.4223,4.3802,4.423,4.4286,4.3589,4.441,4.4953,4.464,4.4388,4.3675,4.2656,4.1672,4.0392,3.8661,3.8097,3.7236,3.6201,3.6201,3.6201,3.6201,3.6201,3.6201,3.6201,3.6201,3.6201,3.6201,3.5754,3.5007,3.4255,3.35,3.274,3.1888,3.19,3.1887,3.181,5.2053,5.2287,5.2587,5.3013,5.3026,5.3219,5.3907,5.3725,5.3725,5.4226,5.4781,5.5121,5.5262,5.5108,5.5084,5.5164,5.5174,5.5113,5.5139,5.5549,5.5772,5.5834,5.6206,5.6391,5.6495,5.6194,5.6438,5.7089,5.6985,5.7111,5.7386,5.7072,5.6757,5.6603,5.6165,5.6334,5.7099,5.6776,5.7021,5.7691,5.7566,0.0,5.8199,5.8885,5.886,5.8645,5.9016,5.9198,5.9241,0.0,5.7586,5.6495,0.0,0.0,0.0,0.0,0.0,0.0,0.0,0.0,0.0,0.0,0.0,0.0,5.0933,5.0542,4.9951,4.9347,4.8769,4.825,4.7324,4.6711,4.628,4.5842,4.5428,4.5184,4.4963,4.484,4.4717,4.447,4.4347,4.4223,4.3802,4.3647,4.3505,4.3566,4.4015,4.4143,4.3952,4.3836,4.358,4.3023,4.1147,3.9838,3.9405,3.753,3.6497,3.6201,3.6201,3.6201,3.6201,3.6201,3.6201,3.6201,3.6201,3.6201,3.6201,3.5456,3.4707,3.3802,3.3348,3.2435,3.1549,3.1474,3.137,3.1292,5.3017,5.3116,5.3277,5.3832,5.3677,5.3723,5.4349,5.4221,5.4226,5.477,5.5227,5.5448,5.5354,5.5644,5.5793,5.5672,5.6055,5.6361,5.6388,5.6613,5.6697,5.6697,5.6824,5.7009,5.7288,5.7256,5.7432,5.7909,5.7698,5.7543,5.7289,5.6911,5.6603,5.6402,5.6526,5.692,5.7361,5.7609,5.8231,5.9128,5.8398,0.0,5.8708,5.9512,5.9708,5.953,5.9891,5.9707,5.9274,5.8991,5.7932,0.0,0.0,5.5217,5.423,0.0,5.3261,5.3095,0.0,0.0,0.0,5.1982,0.0,0.0,0.0,5.0819,5.0344,4.9818,4.9525,4.8954,4.7847,4.7436,4.6844,4.5988,4.5793,4.5768,4.555,4.4816,4.4199,4.4075,4.395,4.3701,4.3326,4.32,4.3158,4.3309,4.3631,4.3759,4.3596,4.3863,4.328,4.1452,4.0289,3.9136,3.7951,3.6793,3.6201,3.6201,3.6201,3.6201,3.6201,3.6201,3.6201,3.6201,3.6201,3.6201,3.6052,3.5157,3.4406,3.3802,3.3196,3.2299,3.1395,3.1395,3.1136,3.0505,5.3748,5.3616,5.367,5.441,5.4029,5.3929,5.467,5.464,5.4712,5.5189,5.5354,5.5483,5.5469,0.0,0.0,0.0,5.7436,5.7884,5.7884,5.7926,5.7799,5.7532,5.7443,5.7628,5.8048,5.8116,5.8222,5.8419,5.8277,5.7876,5.7187,5.6989,5.6822,5.6625,5.7427,5.7756,5.7788,5.8511,5.9395,6.0196,0.0,5.9088,5.9249,6.0214,6.0417,6.0208,6.0468,5.9924,5.9015,5.9278,0.0,5.6373,5.6564,5.5525,0.0,0.0,0.0,0.0,0.0,0.0,0.0,0.0,0.0,5.1405,0.0,0.0,0.0,5.0405,5.0166,4.9542,4.8458,4.8184,4.7624,4.6105,4.62,4.6345,4.6125,4.4841,4.4051,4.4299,4.3678,4.32,4.3075,4.2822,4.2777,4.3051,4.3533,4.3773,4.3647,4.4004,4.2979,4.0269,3.9858,3.8681,3.6497,3.6349,3.6201,3.6201,3.6201,3.6201,3.6201,3.6201,3.6201,3.6201,3.6201,3.6201,3.6052,3.4857,3.4105,3.3651,3.274,3.1993,3.1395,3.1241,3.067,2.9888,5.3953,5.4245,5.4547,5.4902,5.4737,5.4818,5.5596,5.5543,5.5402,5.5448,5.5354,5.5504,0.0,0.0,0.0,0.0,0.0,0.0,5.8815,0.0,5.9029,5.8333,5.8594,5.8737,5.8737,5.8841,5.8668,5.8243,5.8171,5.8146,5.7986,5.7752,5.7926,5.8297,5.8656,5.9067,5.9712,5.9768,6.0348,0.0,6.0913,6.0907,0.0,6.1229,6.1,6.0606,6.0261,5.926,5.8055,0.0,5.7045,5.5342,0.0,5.4632,0.0,0.0,0.0,0.0,0.0,0.0,0.0,0.0,5.2221,0.0,0.0,0.0,5.0822,5.0569,0.0,4.9522,4.901,0.0,0.0,4.6473,4.6569,4.6339,4.5291,4.4865,4.5159,4.6225,4.4521,4.3576,4.4051,4.3075,4.2545,4.3051,4.3533,4.3906,4.3894,4.4141,4.3536,4.1834,4.0412,3.9136,3.7824,3.6793,3.6201,3.6201,3.6201,3.6201,3.6201,3.6201,3.6201,3.6201,3.6201,3.6052,3.5605,3.4707,3.3954,3.3196,3.2452,3.184,3.1395,3.0933,3.0202,2.9254,5.4813,5.4706,5.4902,5.5557,5.5419,5.5296,5.5613,5.5859,5.6054,5.6139,5.6465,0.0,0.0,0.0,0.0,0.0,0.0,0.0,0.0,0.0,0.0,5.9133,5.9145,5.9081,5.8909,5.9183,5.9211,5.8851,5.8923,5.8806,5.8594,5.8515,5.8521,5.8642,5.9428,5.9774,6.001,6.0627,6.1023,0.0,0.0,0.0,0.0,6.1369,6.1023,6.0424,5.9693,5.8744,5.7731,0.0,5.6564,0.0,0.0,0.0,0.0,0.0,0.0,0.0,0.0,0.0,0.0,0.0,0.0,0.0,0.0,0.0,5.1045,0.0,0.0,0.0,0.0,0.0,0.0,0.0,4.7548,4.739,4.6923,4.6125,4.5525,4.5013,4.3802,4.2939,4.2962,4.2624,4.2457,4.2685,4.3402,4.3768,4.3598,4.3961,4.3258,4.0963,4.0126,3.8846,3.6941,3.6497,3.6201,3.6201,3.6201,3.6201,3.6201,3.6201,3.6201,3.6201,3.5903,3.5754,3.5456,3.4556,3.3651,3.3044,3.2299,3.1533,3.0933,3.0299,2.913,2.7871,5.547,5.5198,5.5263,5.5922,5.5742,5.5578,5.5788,5.616,5.658,5.6912,0.0,0.0,5.7981,5.8694,0.0,0.0,0.0,6.0839,0.0,0.0,6.0504,0.0,0.0,0.0,5.9702,5.9833,5.9779,5.9633,5.9573,5.9397,5.9278,5.9198,5.9216,5.9317,6.0201,6.0548,6.0406,6.1142,6.149,6.149,6.149,6.1386,6.131,6.1271,6.0913,6.0292,5.9564,5.8559,5.7536,5.727,5.6412,0.0,5.5486,0.0,0.0,0.0,0.0,0.0,5.3675,0.0,0.0,0.0,0.0,0.0,0.0,0.0,0.0,0.0,0.0,0.0,0.0,0.0,4.8495,4.8105,0.0,4.8003,4.773,4.701,4.6035,4.5159,4.3778,4.2812,4.2176,4.1961,4.1961,4.2091,4.2935,4.3408,4.3413,4.3985,4.2966,4.0371,3.9982,3.8681,3.6201,3.6201,3.6201,3.6201,3.6201,3.6201,3.6201,3.6201,3.6201,3.6052,3.5754,3.5456,3.5157,3.4255,3.35,3.2892,3.2299,3.1379,3.0469,2.9974,2.8559,2.6887,5.5671,5.5786,5.5786,5.5566,5.5507,5.5753,5.6455,5.6596,5.6877,5.7649,0.0,0.0,0.0,0.0,0.0,0.0,0.0,6.1867,6.1742,0.0,6.1967,0.0,0.0,0.0,0.0,6.0968,6.0529,6.0381,5.9809,5.9744,6.0284,6.0041,6.0357,6.1053,6.1271,6.1339,6.1339,6.1678,6.1821,6.1821,6.1821,6.167,6.1404,0.0,6.0739,6.0378,6.0378,0.0,0.0,5.7335,5.6213,0.0,0.0,0.0,0.0,0.0,0.0,0.0,0.0,0.0,0.0,5.2894,0.0,0.0,0.0,0.0,5.1266,0.0,0.0,0.0,4.967,4.9125,4.8363,4.7555,4.7574,0.0,0.0,4.6688,4.7138,4.7938,4.5451,4.3255,4.2443,4.1187,4.0691,4.1338,4.1763,4.2497,4.3785,4.3913,4.3029,4.08,4.0371,3.8951,3.6201,3.6201,3.6201,3.6201,3.6201,3.6201,3.6201,3.6201,3.6052,3.5605,3.5605,3.5174,3.4441,3.3954,3.3348,3.2588,3.2146,3.1225,3.0129,3.0129,2.8715,2.7045,5.5378,5.5799,5.6069,5.5695,0.0,5.649,5.7263,5.786,5.8457,0.0,0.0,0.0,0.0,0.0,6.1086,0.0,0.0,6.1422,6.1929,6.1962,0.0,0.0,0.0,6.1814,0.0,6.1263,6.1011,6.0935,6.0658,6.0654,6.0804,6.0721,6.0854,6.1152,6.1337,6.1371,6.1437,6.171,6.1653,6.1522,6.1414,6.1435,6.1632,0.0,6.0652,6.0206,5.8908,5.7776,0.0,5.6199,5.5436,5.4844,5.5083,5.5126,5.504,5.4862,5.4613,0.0,0.0,0.0,5.3599,5.3095,0.0,0.0,0.0,0.0,0.0,0.0,0.0,0.0,0.0,4.967,4.8842,4.863,4.83,4.7886,0.0,4.6773,4.6541,4.6636,4.4463,4.2669,4.1893,4.1683,4.1618,4.1596,4.246,4.3219,4.3534,4.3735,4.2805,4.0514,4.0126,3.8681,3.6201,3.6201,3.6201,3.6201,3.6201,3.6201,3.6201,3.5903,3.5754,3.5605,3.5025,3.4574,3.4441,3.3988,3.3365,3.2604,3.2435,3.1686,3.0454,2.9027,2.7619,2.6453,5.5669,5.616,5.6395,5.6082,0.0,5.7298,5.8105,5.873,0.0,0.0,6.0691,0.0,6.2094,0.0,6.1821,0.0,6.1955,6.191,6.2418,6.2514,0.0,6.304,6.2888,0.0,0.0,6.2186,6.1816,6.2042,6.1399,6.1119,6.1119,6.1119,6.1119,6.1119,6.1245,6.1393,6.1532,6.175,6.1653,6.1522,6.1231,6.1466,6.1857,0.0,6.0499,6.0008,0.0,5.7461,5.6572,5.5871,5.5317,5.4997,5.5126,5.5179,5.5179,5.5006,5.4773,5.4539,5.4097,5.3975,0.0,5.3202,5.2954,0.0,5.242,0.0,0.0,0.0,0.0,0.0,0.0,0.0,4.9125,4.9125,4.8548,4.8055,0.0,4.6874,4.618,4.5696,4.3986,4.2586,4.2118,4.1617,4.1262,4.1303,4.2012,4.2748,4.324,4.3551,4.2892,4.1191,4.0351,3.8971,3.6793,3.6349,3.6201,3.6201,3.6201,3.6201,3.6201,3.5754,3.5456,3.5306,3.4724,3.429,3.4139,3.3837,3.3382,3.2588,3.2588,3.1533,2.9989,2.8559,2.7148,2.5512,5.6465,5.6701,0.0,0.0,5.7368,0.0,0.0,0.0,5.9549,0.0,6.0627,6.1034,6.1884,6.2044,6.2453,6.32,6.3387,0.0,6.3271,6.3754,0.0,0.0,6.4216,6.4672,6.5224,6.3501,6.2887,6.3509,6.1832,6.1119,6.1119,6.1119,6.1119,6.1119,6.1119,6.1369,6.1789,6.1789,6.1789,6.1783,6.1258,6.1516,6.208,6.0844,6.0193,5.99,5.9106,5.7715,5.6311,5.6213,5.575,5.5179,5.5179,5.5179,5.5179,5.5179,5.5179,5.5078,5.4406,5.4333,5.4156,5.3319,0.0,0.0,0.0,0.0,5.2221,0.0,0.0,0.0,0.0,0.0,0.0,4.9125,4.8548,4.7938,4.7324,4.6704,4.601,4.5331,4.4127,4.3145,4.2913,4.102,3.9951,4.0468,4.049,4.1169,4.2945,4.3284,4.3156,4.2614,4.1069,3.955,3.797,3.6793,3.6201,3.6201,3.6201,3.6201,3.6201,3.5754,3.5306,3.5007,3.4574,3.4139,3.3837,3.3837,3.3365,3.2604,3.2604,3.1055,2.8886,2.873,2.6833,2.4221,5.7227,5.7938,5.8562,0.0,5.8913,5.8948,0.0,0.0,0.0,0.0,6.2216,6.284,6.422,6.406,6.3875,6.4053,6.3708,0.0,0.0,0.0,0.0,6.4897,6.4566,6.4568,6.4883,6.3377,0.0,6.2819,6.1647,6.1119,6.1119,6.1119,6.1119,6.1119,6.1119,6.1245,6.149,6.149,6.149,6.148,6.1198,6.1432,6.1824,0.0,5.9984,5.9315,5.8153,5.7149,5.6213,5.5651,5.5381,5.5179,5.5179,5.5179,5.5179,5.5179,5.5108,5.4773,5.4406,5.4241,5.3975,5.354,5.3238,5.3143,0.0,0.0,0.0,0.0,0.0,0.0,0.0,0.0,0.0,4.9178,4.8405,4.7703,4.7205,4.6281,4.5585,4.5281,4.3723,4.2503,4.2153,4.1436,4.1,4.0964,4.0444,4.0985,4.3061,4.2688,4.1912,4.1007,4.0801,3.9599,3.7107,3.6812,3.6516,3.6201,3.5903,3.5754,3.5754,3.5025,3.4574,3.4574,3.4139,3.3837,3.3837,3.3837,3.3517,3.3044,3.274,3.0732,2.7762,2.6201,2.4627,2.3085,5.7805,0.0,0.0,6.0399,0.0,0.0,6.0727,0.0,0.0,6.2775,6.3038,0.0,6.4776,6.4592,6.4515,6.4805,6.4444,0.0,0.0,0.0,0.0,6.5046,6.4706,6.4708,6.5093,6.352,0.0,6.3101,6.1795,6.1119,6.1119,6.1119,6.1119,6.1119,6.1119,6.1231,6.1404,6.1555,6.1653,6.1852,6.1422,6.156,0.0,6.0554,5.9524,5.8592,5.7463,5.6603,5.5948,5.5381,5.5179,5.5179,5.5179,5.5179,5.5179,5.5179,5.5078,5.4875,5.4406,5.4257,5.4042,5.3588,5.3366,5.3296,5.3299,5.2972,5.2865,0.0,0.0,0.0,0.0,0.0,0.0,4.9267,4.8405,4.7703,4.7324,4.6831,4.618,4.5058,4.4111,4.3017,4.18,4.1075,4.0629,4.0409,3.9909,4.0087,4.138,4.1592,4.1362,4.0576,4.0679,3.9665,3.753,3.7107,3.6516,3.5903,3.5754,3.5456,3.5306,3.4724,3.4441,3.4441,3.3988,3.3837,3.3837,3.3837,3.3517,3.3044,3.1347,2.9168,2.6819,2.4467,2.3199,2.2602,0.0,0.0,0.0,0.0,0.0,0.0,0.0,6.2457,0.0,6.3342,0.0,6.3814,6.4444,6.4515,6.4734,6.5278,0.0,6.5216,6.4979,6.5014,6.4911,6.4706,6.4706,6.4953,6.5513,6.3801,0.0,0.0,6.1963,6.1119,6.1119,6.1119,6.1152,6.1251,6.1251,6.1396,6.1535,6.1638,6.1955,6.231,6.159,6.1587,6.1863,6.0261,5.9088,5.8024,5.7053,5.6244,5.5481,5.528,5.5179,5.5179,5.5179,5.5179,5.5179,5.5179,5.5179,5.5078,5.4406,5.4304,5.42,5.3605,5.35,5.35,5.35,5.35,5.35,5.35,5.2844,5.2335,0.0,0.0,0.0,4.9301,4.8806,4.825,4.756,4.7964,4.7457,4.5216,4.513,0.0,4.2149,4.0621,3.9736,3.9714,3.9176,3.9093,3.9475,4.0721,4.1165,4.0779,4.0535,3.9674,3.8331,3.7364,3.6479,3.5533,3.5587,3.5306,3.4857,3.4423,3.429,3.429,3.3988,3.3837,3.3837,3.3837,3.3365,3.2571,2.9479,2.7449,2.5885,2.352,2.2567,2.244,0.0,0.0,0.0,0.0,0.0,6.4107,6.3665,6.3229,6.3187,6.4088,6.4223,6.4508,6.5226,6.5332,6.5303,6.5349,6.5415,0.0,0.0,0.0,0.0,6.4706,6.4706,6.4776,6.4847,6.3565,6.2966,0.0,6.1776,6.1119,6.1119,6.1119,6.1417,6.198,6.198,6.2121,6.2245,6.1488,6.139,6.159,6.1212,6.1117,6.0882,6.0066,5.912,5.8087,5.7084,5.6047,5.528,5.5179,5.5179,5.5179,5.5179,5.5179,5.5179,5.5179,5.5179,5.5078,5.4406,5.4304,5.42,5.3605,5.35,5.35,5.35,5.35,5.35,5.35,5.3159,5.2845,5.2335,0.0,0.0,0.0,0.0,4.9836,4.924,4.9266,4.8852,4.7665,4.5842,4.4571,4.4205,4.2006,4.0865,4.144,4.008,3.9965,4.1902,4.1494,4.0933,4.0261,4.0675,3.9533,3.7162,3.7232,3.6497,3.5136,3.5163,3.4857,3.4441,3.4139,3.3837,3.3837,3.3837,3.3837,3.3837,3.3837,3.274,3.1008,2.9308,2.7291,2.5104,2.3199,2.2406,2.1922,0.0,0.0,0.0,0.0,0.0,0.0,0.0,6.4675,0.0,6.4906,6.4977,6.5054,6.5212,6.5247,6.518,6.4979,6.5046,6.4979,6.4843,6.4843,6.4775,6.4706,6.4706,0.0,6.4774,6.3968,6.3528,6.3543,6.2315,6.1649,6.1649,6.1649,6.1848,6.2179,6.2286,6.2332,6.2299,6.1742,6.1578,6.1772,6.1442,6.108,6.0633,5.9652,5.876,5.784,5.6892,5.6047,5.5381,5.528,5.528,5.5381,5.5381,5.5381,5.5381,5.5381,5.528,5.5078,5.4671,5.4539,5.4436,5.4023,5.389,5.389,5.389,5.389,5.3919,5.371,5.3415,5.2887,5.2169,5.1348,0.0,0.0,0.0,0.0,4.9978,5.0452,5.0057,4.8107,4.7272,4.605,4.3988,4.259,4.1723,4.1347,3.9996,3.9665,4.0515,4.0774,4.0045,3.8624,3.9857,3.9251,3.6758,3.7047,3.6571,3.5335,3.4936,3.4423,3.4139,3.3837,3.3837,3.3837,3.3837,3.3837,3.3685,3.3061,3.196,3.0238,2.8544,2.6675,2.4958,2.3199,2.2406,2.2245,0.0,6.2333,0.0,0.0,6.4638,0.0,6.6097,6.5911,6.5723,6.5545,6.5445,6.5349,6.5082,6.5014,6.4946,6.4775,6.4775,6.4706,6.4706,6.4637,6.4568,6.4568,6.4638,6.4704,6.4784,6.435,6.403,0.0,6.2949,6.2245,6.1947,6.2113,6.2179,6.2212,6.2562,6.2661,6.2471,6.2199,6.2124,6.2207,6.1784,6.1205,6.0548,5.9387,5.8455,5.7621,5.673,5.6077,5.5681,5.5481,5.5481,5.5681,5.5581,5.5681,5.5681,5.5581,5.5481,5.5179,5.4905,5.4803,5.4671,5.4406,5.4304,5.4304,5.4304,5.4304,5.42,5.4023,5.3395,5.2759,5.2004,5.1458,0.0,0.0,0.0,0.0,0.0,5.1377,5.1161,4.8927,4.8669,4.7521,4.4476,4.3239,4.227,4.1276,4.0301,3.9604,3.9451,4.0212,3.965,3.7585,3.9044,3.8889,3.6626,3.6844,3.646,3.533,3.4839,3.429,3.3837,3.3837,3.3837,3.3837,3.3837,3.3837,3.3685,3.2435,3.1178,2.9789,2.7919,2.6215,2.4652,2.3211,2.2567,2.2406,0.0,0.0,0.0,0.0,0.0,0.0,0.0,6.6185,6.6327,6.5617,6.5379,6.5282,6.5282,6.5149,6.5014,6.4979,6.5014,6.4911,6.4706,6.4358,6.4182,6.4182,6.4516,6.46,6.4332,6.4393,6.4059,0.0,0.0,6.251,6.1218,6.1881,6.2179,6.2212,6.2941,6.3309,6.3448,6.3243,6.2859,6.2431,6.224,6.1462,6.0292,5.9298,5.8455,5.7621,5.673,5.6176,5.5979,5.5979,5.5979,5.588,5.5681,5.578,5.588,5.5681,5.5581,5.5481,5.4905,5.4803,5.4671,5.4406,5.4304,5.4304,5.4304,5.4304,5.42,5.4023,5.329,5.2573,5.1896,5.1787,5.1706,0.0,0.0,0.0,0.0,5.2039,5.202,5.145,4.952,4.8179,4.8345,4.4655,4.2477,4.2807,4.1798,4.1293,4.1911,4.1466,4.0388,3.8697,3.9172,3.8447,3.6209,3.7005,3.6331,3.4493,3.4847,3.4574,3.3837,3.3837,3.3837,3.3837,3.3837,3.3837,3.3685,3.2435,3.1024,2.9493,2.8076,2.6043,2.384,2.3371,2.2556,2.1922,0.0,0.0,0.0,0.0,0.0,0.0,0.0,6.618,6.6031,6.5581,6.5445,6.5349,6.4979,6.5014,6.4946,6.4843,6.4775,6.4775,6.4706,6.4568,6.4567,6.4807,6.4975,6.491,6.463,6.5175,6.4768,0.0,0.0,6.3663,6.258,6.2847,6.2771,6.2377,6.3133,6.3485,6.3441,6.3485,6.3551,6.354,6.2557,6.1521,6.0499,5.937,5.8272,5.7275,5.6858,5.647,5.6274,5.6274,5.6274,5.6176,5.588,5.5979,5.6176,5.5681,5.5581,5.5481,5.5179,5.5006,5.4976,5.4845,5.4845,5.4845,5.4845,5.4773,5.4539,5.42,5.35,5.2787,5.2113,5.2004,5.2036,5.2072,0.0,0.0,0.0,5.2338,5.1932,5.1047,4.9546,4.8197,4.7207,4.4559,4.2858,4.2746,4.1302,4.0366,4.0495,4.0651,3.9704,3.7476,3.8958,3.8648,3.6152,3.6694,3.6423,3.5074,3.4786,3.4273,3.3837,3.3837,3.3837,3.3837,3.3837,3.3365,3.2588,3.1331,3.0098,2.8559,2.7148,2.574,2.4492,2.3532,2.2889,2.2245,6.4806,0.0,6.5087,0.0,6.5601,6.5556,6.6322,6.6031,6.5675,6.551,6.551,6.5379,6.4979,6.4979,6.4979,6.4911,6.4775,6.4742,6.4883,6.4778,6.4913,6.5239,6.5199,0.0,6.4966,6.5508,6.5294,6.4254,6.4734,6.4414,6.3282,6.2979,6.2684,6.2421,6.3143,6.3474,6.3338,6.388,6.4266,6.4266,6.2921,6.171,6.0591,5.9287,5.8119,5.718,5.6858,5.6567,5.647,5.647,5.647,5.647,5.6176,5.6274,5.6372,5.588,5.5681,5.5681,5.528,5.5179,5.5179,5.5179,5.5179,5.5179,5.5179,5.5078,5.4773,5.4304,5.3605,5.2894,5.2329,5.2221,5.2146,5.2184,0.0,0.0,0.0,5.2204,5.1665,5.0675,4.9505,4.8231,4.6885,4.478,4.3449,4.3234,4.1374,4.019,3.9951,3.9994,3.9178,3.726,3.8979,3.8688,3.6152,3.6694,3.6497,3.5605,3.4875,3.4441,3.3988,3.3837,3.3837,3.3837,3.3837,3.3061,3.196,3.0562,2.9323,2.809,2.6531,2.5594,2.497,2.4,2.3199,2.2567,6.5445,6.5415,6.5415,6.574,6.5675,6.5575,6.5804,6.5675,6.551,6.551,6.5675,6.574,6.551,6.518,6.5114,6.5445,6.4979,6.4883,6.544,6.4966,6.4862,0.0,0.0,6.487,6.5363,6.5396,6.5278,6.5024,0.0,0.0,6.2482,6.1567,6.1516,6.2212,6.2941,6.3272,6.3372,6.4796,6.4995,6.4299,6.3309,6.1993,6.0534,5.9138,5.8119,5.7401,5.6664,5.6567,5.6761,5.647,5.6567,5.6761,5.647,5.6567,5.6664,5.6176,5.5979,5.588,5.5381,5.5179,5.5179,5.5179,5.5179,5.5179,5.5179,5.5179,5.4976,5.4126,5.353,5.2894,5.2329,5.2221,5.2113,5.1787,0.0,0.0,0.0,5.1624,5.1294,5.0939,4.9276,4.821,4.8303,4.6012,4.4673,4.4807,4.2837,4.1571,4.1529,3.9931,0.0,3.8927,3.9268,0.0,3.6171,3.6986,3.6812,3.5605,3.5157,3.4707,3.4441,3.3988,3.3837,3.3837,3.3837,3.3061,3.196,3.0562,2.9323,2.809,2.686,2.5924,2.497,2.4627,2.3668,2.2567,6.5349,6.5349,6.5349,6.5415,6.548,6.551,6.5611,6.5675,6.574,6.574,6.574,6.5804,6.574,6.548,6.5313,0.0,6.5267,6.5302,0.0,6.5001,6.5027,6.5904,6.5335,6.5196,6.5613,6.612,6.58,6.4705,0.0,0.0,6.4012,6.3583,6.3,6.2475,6.3583,6.3736,6.3372,6.4796,6.5028,6.4299,6.2923,6.1516,6.0051,5.8649,5.7653,5.7019,5.6761,5.6761,5.6761,5.6664,5.6761,5.6761,5.6664,5.6761,5.6664,5.5979,5.588,5.588,5.5381,5.5179,5.5179,5.5179,5.5179,5.5179,5.5179,5.4845,5.4436,5.3993,5.3605,5.3213,5.268,5.2573,5.2358,5.1896,5.1787,0.0,5.0989,0.0,4.9978,4.8875,4.7637,4.6743,4.6811,4.5001,4.3646,4.3623,4.1035,3.9953,4.1259,4.0103,0.0,0.0,3.8304,0.0,3.6171,3.6431,3.6238,3.5605,3.5157,3.4724,3.3988,3.3837,3.3837,3.3837,3.3837,3.2588,3.0716,3.0253,2.8856,2.7004,2.6544,2.5911,2.497,2.4308,2.3348,2.2567,6.5349,6.5349,6.5349,6.548,6.5445,6.551,6.5575,6.5675,6.574,6.5804,6.5804,6.5847,6.5936,6.5556,0.0,6.518,6.5127,6.5229,6.5495,6.5117,6.5343,6.6446,6.5799,6.5603,6.6102,6.6305,0.0,6.5425,6.5648,6.548,6.5123,6.4344,6.3661,6.3232,6.4079,6.4133,6.3736,6.463,6.4763,6.4299,6.2628,6.1199,5.9868,5.8432,5.7464,5.6761,5.6664,5.6664,5.6761,5.6664,5.6761,5.6761,5.6761,5.6761,5.6664,5.6077,5.5979,5.588,5.5481,5.528,5.5179,5.5179,5.5179,5.5179,5.5179,5.4743,5.4304,5.4097,5.371,5.3319,5.2787,5.268,5.2465,5.1896,5.1787,5.143,5.0517,5.032,4.9529,4.7938,4.7205,4.6496,4.6044,4.4957,4.4254,4.4055,4.1956,4.0932,4.1746,3.9664,3.8335,3.8405,3.8004,3.7389,3.6314,3.6569,3.6402,3.6052,3.5306,3.4724,3.3988,3.3837,3.3837,3.3837,3.3837,3.2435,3.0098,3.0098,2.87,2.6386,2.6228,2.5753,2.497,2.4148,2.3359,2.2567,6.5445,6.5415,6.5415,0.0,6.5611,6.5575,6.574,6.5675,6.5575,6.574,6.574,6.583,6.6037,6.5369,6.4946,6.4949,0.0,0.0,6.5431,6.5333,6.5697,6.6745,6.6102,6.6034,6.6779,6.6136,6.6102,6.6812,6.5597,6.5287,6.578,6.4154,6.3769,6.4365,6.4432,6.4399,6.4299,6.4299,6.4266,6.41,6.2191,6.0866,5.9804,5.8617,5.7653,5.6858,5.6567,5.6567,5.6761,5.647,5.6567,5.6761,5.6761,5.6761,5.6761,5.647,5.6176,5.5979,5.5681,5.5381,5.5179,5.5179,5.5179,5.5179,5.5179,5.4743,5.4304,5.4304,5.3919,5.3319,5.2787,5.268,5.2465,5.1787,5.1677,5.132,5.0405,5.0181,4.9616,4.7795,4.7586,0.0,4.5939,4.5921,4.5944,4.557,4.4711,4.3671,4.277,3.8675,3.7315,3.929,3.8092,3.7213,3.672,3.7105,3.7112,3.6812,3.5605,3.4724,3.4441,3.3988,3.3837,3.3837,3.3685,3.2283,3.0098,2.9944,2.8559,2.6386,2.5911,2.5435,2.497,2.416,2.3359,2.2567,0.0,0.0,6.5349,6.5415,6.5445,6.5445,6.5415,6.5611,6.5675,6.5575,6.5278,6.5361,6.6037,6.5514,6.519,6.5337,6.5255,6.5275,6.5499,6.5573,6.5914,6.6779,6.6102,6.6034,6.6779,6.6643,6.6559,6.6592,6.61,6.5841,6.578,6.515,6.473,6.4399,6.4929,6.4564,6.357,6.4133,6.3736,6.2643,6.159,6.0574,5.9613,5.8335,5.7653,5.7306,5.6858,5.6761,5.6761,5.6761,5.6761,5.6761,5.6761,5.6761,5.6761,5.647,5.6176,5.5979,5.5681,5.5381,5.5179,5.5179,5.5179,5.5179,5.5179,5.4743,5.4304,5.4304,5.3919,5.3319,5.2787,5.268,5.2358,5.1348,5.0878,5.0293,4.8815,4.8495,4.7912,4.678,4.6661,4.6421,4.5817,4.5576,4.5257,0.0,4.3357,4.2351,4.1714,3.9023,3.7777,3.8112,3.6739,3.6247,3.6701,3.6532,3.6375,3.6349,3.5456,3.4724,3.4441,3.3988,3.3837,3.3685,3.2892,3.1501,3.0098,2.9168,2.7619,2.5911,2.5911,2.5276,2.4492,2.4012,2.352,2.2889,6.5415,6.5415,6.5415,6.5545,6.5611,6.5611,6.5415,6.5611,6.574,6.551,6.5145,6.523,6.6074,6.536,6.5007,6.5517,6.5549,6.5515,6.5619,6.5623,6.6034,6.6779,6.644,6.6406,6.6812,6.6812,6.6728,6.6677,6.6388,6.6215,6.6162,6.578,6.5404,6.5039,6.526,6.4995,6.4233,6.3968,6.3405,6.261,6.1402,6.0446,5.9739,5.876,5.8119,5.7746,5.7306,5.7115,5.7115,5.6923,5.6923,5.6923,5.6858,5.6761,5.6761,5.6664,5.6372,5.6176,5.588,5.5581,5.5381,5.5179,5.5179,5.5179,5.5179,5.4875,5.4539,5.4304,5.3993,5.35,5.3001,5.2573,5.2004,5.121,5.0432,4.9502,4.8262,4.7912,4.7349,4.6421,4.6301,4.6059,4.5574,4.5453,4.5086,4.4323,4.3417,4.2223,4.0839,3.9585,3.8492,3.7672,3.6602,3.6363,3.7003,3.6818,3.6657,3.6516,3.5605,3.5007,3.4724,3.4122,3.3668,3.3517,3.2283,3.104,2.9789,2.8544,2.7148,2.5753,2.5435,2.497,2.4492,2.3852,2.3211,2.2889,6.5445,6.5445,6.551,6.5675,6.574,6.5675,6.551,6.5782,6.5782,6.5545,6.5357,6.5478,6.6199,6.529,6.4947,6.5812,6.5744,6.5687,6.5745,6.5797,6.6136,6.6779,6.6812,6.6812,6.6812,6.6812,6.6812,6.6812,6.6592,6.6507,6.6507,6.6042,6.5867,6.578,6.5603,6.5293,6.4995,6.3802,6.314,6.2842,6.133,6.0548,6.0001,5.9331,5.8701,5.8211,5.7653,5.7495,5.7495,5.718,5.7084,5.7084,5.6858,5.6858,5.6858,5.6761,5.6664,5.6372,5.6077,5.578,5.5481,5.528,5.5179,5.5179,5.5179,5.5006,5.4671,5.4436,5.4097,5.371,5.3213,5.2573,5.1787,5.1293,5.0181,4.9045,4.8146,4.7677,4.7112,4.6421,4.6301,4.6059,4.5453,4.5331,4.5086,4.447,4.4075,4.2776,4.0452,3.9932,3.9014,3.7441,3.6975,3.6894,3.7383,3.746,3.7255,3.6812,3.6052,3.5456,3.5007,3.4105,3.3651,3.3196,3.1807,3.0732,2.9493,2.8076,2.6833,2.5753,2.4811,2.4492,2.4332,2.3532,2.305,2.2728,6.551,6.5415,6.5349,6.5349,6.548,6.551,6.5349,6.6048,6.6292,6.5419,6.6107,6.653,6.6115,6.6144,6.636,6.6659,6.6625,6.6321,6.573,6.6271,6.6677,6.6812,6.6812,6.6812,6.6812,6.6812,6.6812,6.6812,6.6592,6.6507,6.6507,6.6215,6.5922,6.578,6.578,6.4939,6.3603,6.3372,6.2577,6.1417,6.1102,6.0835,6.0515,5.9564,5.9062,5.8792,5.7871,5.7495,5.7495,5.718,5.7084,5.7084,5.6858,5.6923,5.7019,5.6858,5.673,5.6537,5.6176,5.5681,5.528,5.5179,5.5179,5.5179,5.5179,5.5006,5.4803,5.4671,5.423,5.3815,5.353,5.3107,5.2329,5.0851,4.9702,4.8647,4.7534,4.6636,4.618,4.6301,4.6301,4.6301,4.618,4.5574,4.5208,4.5208,4.4594,4.3177,4.0688,4.0322,3.9035,3.6809,3.6701,3.7051,3.7812,3.7613,3.7421,3.7255,3.6201,3.5456,3.5007,3.4105,3.3651,3.3044,3.1501,3.0732,3.0268,2.809,2.6833,2.6201,2.4958,2.4332,2.384,2.3692,2.368,2.3532,6.551,6.5415,6.5349,6.5415,6.5415,6.549,6.5714,6.6203,6.6518,6.6385,6.6286,6.6246,6.6338,6.6041,6.6006,6.6466,6.6659,6.6677,6.6305,6.6609,6.6812,6.6812,6.6812,6.6812,6.6812,6.6812,6.6812,6.6812,6.6728,6.6441,6.607,6.622,6.5813,6.4991,6.5273,6.47,6.3581,6.3182,6.2616,6.1983,6.1583,6.1301,6.1136,6.0515,5.9914,5.9387,5.876,5.8243,5.7871,5.759,5.7495,5.7495,5.7211,5.7211,5.7306,5.7211,5.673,5.6244,5.588,5.5481,5.5179,5.5179,5.5179,5.5179,5.5179,5.5078,5.4875,5.4539,5.4333,5.3993,5.3605,5.2652,5.1677,5.0767,4.9388,4.8003,4.7324,4.6636,4.6301,4.6301,4.6301,4.618,4.6059,4.5696,4.5453,4.5086,4.4717,4.3428,4.0817,4.0322,3.9014,3.6654,3.6937,3.7164,3.7643,3.7486,3.7255,3.7107,3.6349,3.5754,3.5306,3.4556,3.3802,3.3044,3.1501,3.0268,2.9664,2.7776,2.6531,2.5594,2.4811,2.4172,2.384,2.384,2.352,2.3038,6.5379,6.5247,6.5216,6.5313,6.5424,6.5644,6.6107,6.6633,6.6915,6.7024,6.6567,6.6283,6.6203,6.5876,6.5778,6.6119,6.6539,6.6812,6.6812,6.6812,6.6812,6.6812,6.6812,6.6812,6.6812,6.6812,6.6812,6.6812,6.6812,6.644,6.5696,6.6137,6.5564,6.4353,6.4724,6.4455,6.3886,6.3149,6.2814,6.2747,6.2011,6.1709,6.1628,6.1185,6.0567,5.9914,5.9508,5.8882,5.8274,5.7965,5.7871,5.7871,5.759,5.759,5.759,5.7495,5.6827,5.6047,5.578,5.5481,5.528,5.5179,5.5179,5.5179,5.5179,5.5179,5.5078,5.4641,5.4406,5.42,5.3815,5.2301,5.1128,5.0906,4.9186,4.7795,4.7324,4.6874,4.6566,4.6301,4.6301,4.618,4.5939,4.5817,4.5574,4.4963,4.484,4.3678,4.0968,4.0452,3.9014,3.6519,3.6877,3.7261,3.7499,3.7391,3.7161,3.696,3.6516,3.6052,3.5605,3.4857,3.4105,3.3196,3.1807,3.0423,2.9197,2.7776,2.6531,2.5276,2.4652,2.4172,2.384,2.384,2.3359,2.2728,6.5082,6.4843,6.4706,6.4775,6.5545,6.6142,6.6213,6.7412,6.7835,6.646,6.7482,6.7443,6.5095,6.6167,6.6686,6.5827,6.6373,6.6812,6.6812,6.6812,6.6812,6.6812,6.6812,6.6812,6.6812,6.6812,6.6812,6.6812,6.6812,6.644,6.5696,6.573,6.5192,6.4319,6.4353,6.4153,6.3852,6.3115,6.2814,6.2714,6.2011,6.1709,6.1628,6.1185,6.0567,5.9914,5.9508,5.8882,5.8274,5.7965,5.7871,5.7871,5.759,5.7684,5.7778,5.759,5.7084,5.6506,5.6047,5.578,5.5481,5.528,5.5179,5.5179,5.5179,5.5179,5.5179,5.5179,5.4743,5.4304,5.4304,5.302,5.1868,5.1017,4.9616,4.8236,4.7324,4.6636,4.6301,4.6301,4.6301,4.6301,4.6301,4.5939,4.5696,4.5331,4.4963,4.3802,4.1377,4.0603,3.8904,3.6152,3.6465,3.7109,3.791,3.7268,3.7042,3.7421,3.6516,3.6052,3.5605,3.5157,3.4556,3.3651,3.2892,3.167,3.0423,2.8388,2.7134,2.6201,2.448,2.384,2.384,2.384,2.352,2.305,6.5014,6.4843,6.4882,6.5512,6.5441,6.5548,6.6532,6.6849,6.6884,6.6673,6.6601,6.6139,6.5183,6.56,6.5789,6.5391,6.6268,6.6812,6.6812,6.6812,6.6812,6.6812,6.6812,6.6812,6.6812,6.6812,6.6812,6.6812,6.6812,6.6203,6.5019,6.5493,6.4816,6.31,6.3573,6.3775,6.366,6.3357,6.3525,6.3862,6.3121,6.2818,6.2784,6.2119,6.1432,6.0736,6.0141,5.9476,5.8882,5.8335,5.8182,5.8182,5.8058,5.8089,5.8089,5.7778,5.759,5.7306,5.6634,5.6145,5.578,5.5481,5.5481,5.5381,5.5179,5.5179,5.5179,5.5006,5.4641,5.42,5.3681,5.2408,5.11,5.046,4.9186,4.8146,4.756,4.7087,4.6755,4.6686,4.6446,4.6301,4.6301,4.618,4.5939,4.5331,4.5208,4.4323,4.227,4.0322,3.8221,3.6016,3.6172,3.668,3.7519,3.7239,3.7295,3.7402,3.6812,3.6349,3.5903,3.5306,3.4556,3.3802,3.2892,3.1517,2.9508,2.8403,2.6991,2.5435,2.4639,2.4012,2.384,2.384,2.3371,2.2728,6.4946,6.4775,6.4987,6.5899,6.5513,6.5514,6.6883,6.6637,6.6462,6.6743,6.611,6.5547,6.5438,6.5434,6.5446,6.5562,6.6316,6.6812,6.6812,6.6812,6.6812,6.6812,6.6812,6.6812,6.6812,6.6812,6.6812,6.6812,6.6576,6.5831,6.4613,6.4884,6.4072,6.2415,6.2922,6.3294,6.3497,6.326,6.3599,6.4208,6.3463,6.3294,6.3429,6.2685,6.2085,6.1567,6.0666,5.9914,5.9241,5.855,5.8274,5.8274,5.8274,5.8274,5.8274,5.8089,5.7965,5.7778,5.718,5.673,5.6274,5.5681,5.5581,5.5481,5.528,5.5179,5.5209,5.5006,5.4671,5.423,5.3261,5.1976,5.0767,5.001,4.8868,4.8055,4.7703,4.7442,4.7087,4.6806,4.6566,4.6301,4.6301,4.6301,4.6059,4.5331,4.5331,4.457,4.2799,4.0192,3.8088,3.6674,3.6268,3.6348,3.695,3.6951,3.6941,3.7066,3.6756,3.6367,3.6052,3.5456,3.4707,3.3971,3.3196,3.1347,2.9042,2.8403,2.6847,2.4811,2.4492,2.4012,2.384,2.384,2.3371,2.2567,6.4706,6.4706,6.4987,6.5759,6.59,6.6216,6.72,6.7306,6.7093,6.6454,6.6415,6.6211,6.5688,6.5882,6.6083,6.6245,6.6622,6.6812,6.6812,6.6812,6.6812,6.6812,6.6812,6.6812,6.6812,6.6812,6.6812,6.6812,6.6034,6.529,6.458,6.3869,6.3125,6.2381,6.2381,6.2821,6.3463,6.2719,6.2854,6.3463,6.2719,6.2854,6.3429,6.2685,6.2421,6.2349,6.083,5.9914,5.9241,5.8518,5.8274,5.8274,5.8274,5.8274,5.8274,5.8274,5.8089,5.7871,5.7871,5.7495,5.6892,5.588,5.5581,5.5581,5.528,5.5179,5.5179,5.5179,5.5006,5.4466,5.3232,5.2056,5.0851,4.9729,4.8753,4.8055,4.7703,4.7442,4.7087,4.6806,4.6566,4.6301,4.6301,4.6301,4.6059,4.5331,4.5331,4.4446,4.242,4.0344,3.8904,3.8109,3.7038,3.6328,3.6085,3.6104,3.6093,3.6216,3.6165,3.6052,3.5605,3.5605,3.5174,3.429,3.3517,3.1807,2.9338,2.8076,2.636,2.4492,2.4012,2.384,2.384,2.384,2.3371,2.2567,6.4706,6.4706,6.5127,6.6426,6.5934,6.5721,6.7094,6.6389,6.579,6.6211,6.6004,6.597,6.6353,6.6532,6.6738,6.6789,6.6984,6.7014,6.6812,6.6812,6.6812,6.6812,6.6812,6.6812,6.6812,6.6305,6.6034,6.6034,6.529,6.4546,6.3835,6.3632,6.3125,6.2415,6.2956,6.3599,6.4309,6.458,6.5121,6.5764,6.5019,6.4546,6.4241,6.4038,6.3349,6.2401,6.2016,6.1028,5.9914,5.9241,5.8701,5.8274,5.8274,5.8274,5.8274,5.8274,5.8274,5.8182,5.7965,5.7778,5.7495,5.6603,5.6244,5.6077,5.578,5.578,5.5681,5.5481,5.528,5.4568,5.3049,5.1948,5.0851,4.9442,4.8637,4.8198,4.8055,4.756,4.7205,4.7112,4.6661,4.6301,4.6301,4.6301,4.6059,4.5331,4.484,4.395,4.242,4.0968,3.9649,3.8486,3.7173,3.6191,3.5662,3.6234,3.6361,3.6216,3.6478,3.6201,3.5605,3.5306,3.4707,3.3954,3.35,3.2113,3.0268,2.87,2.7148,2.574,2.432,2.384,2.384,2.384,2.3371,2.2567,6.4946,6.4946,6.5334,6.6636,6.5893,6.5644,6.7336,6.6521,6.599,6.6872,6.6739,6.6778,6.7195,6.7278,6.7315,6.7315,6.7317,6.7263,6.7014,6.7014,6.6896,6.6812,6.6896,6.6896,6.6812,6.6373,6.6136,6.6136,6.5087,6.4377,6.3937,6.3328,6.2821,6.2415,6.2854,6.3328,6.3768,6.4208,6.4647,6.5053,6.4884,6.4749,6.458,6.4275,6.3802,6.3147,6.2297,6.13,6.0226,5.9476,5.8882,5.8274,5.8274,5.8274,5.8274,5.8274,5.8274,5.8274,5.8089,5.7965,5.7778,5.7275,5.6827,5.6439,5.6077,5.5979,5.588,5.5681,5.5481,5.4845,5.3049,5.238,5.1402,4.9529,4.8983,4.8637,4.8289,4.7703,4.7324,4.7205,4.6755,4.6446,4.6301,4.6301,4.6059,4.5331,4.4717,4.3974,4.32,4.1761,4.0452,3.9518,3.7709,3.6482,3.5995,3.6253,3.6142,3.5684,3.6238,3.6201,3.5306,3.5157,3.4556,3.382,3.3348,3.2266,3.0732,2.9012,2.7449,2.6201,2.4467,2.384,2.384,2.384,2.3371,2.2728,6.5349,6.5349,6.5597,6.6541,6.5982,6.6084,6.7843,6.7385,6.714,6.8021,6.8123,6.814,6.8291,6.8036,6.791,6.797,6.7719,6.7428,6.7263,6.718,6.7097,6.6812,6.7097,6.7097,6.6812,6.6745,6.6711,6.6711,6.5222,6.4512,6.4478,6.3057,6.2381,6.2381,6.2448,6.2482,6.2482,6.255,6.2618,6.2753,6.3429,6.4106,6.4613,6.3971,6.4038,6.4228,6.2245,6.1053,6.0226,5.9564,5.8882,5.8274,5.8274,5.8274,5.8274,5.8274,5.8274,5.8274,5.8274,5.8089,5.7965,5.7871,5.7275,5.6603,5.6145,5.6077,5.5979,5.5681,5.5681,5.5149,5.3442,5.3126,5.2244,4.9956,4.9529,4.9186,4.8289,4.7938,4.756,4.7205,4.69,4.6686,4.6301,4.6301,4.5939,4.5331,4.4717,4.4347,4.4347,4.242,4.1119,4.0839,3.8416,3.6913,3.6641,3.6284,3.58,3.51,3.5852,3.5754,3.5007,3.5007,3.4574,3.3837,3.3365,3.2588,3.1331,2.9323,2.7762,2.6504,2.4627,2.4,2.4,2.384,2.352,2.3211,6.5675,6.5575,6.5759,6.6702,6.6738,6.6987,6.7914,6.7848,6.7891,6.8742,6.8413,6.8489,6.9636,6.9176,6.8823,6.8938,6.8241,6.7638,6.7428,6.7263,6.718,6.7097,6.718,6.718,6.7097,6.6486,6.6098,6.5933,6.4478,6.3768,6.3734,6.2821,6.2381,6.2415,6.299,6.326,6.3294,6.3869,6.4444,6.4986,6.5155,6.5324,6.5425,6.5256,6.4613,6.37,6.3202,6.2178,6.0903,5.9739,5.8882,5.8274,5.8274,5.8274,5.8274,5.8274,5.8274,5.8274,5.8274,5.8274,5.8182,5.7965,5.759,5.7275,5.6892,5.673,5.6567,5.6274,5.6274,5.575,5.4304,5.3652,5.2673,5.0517,4.9843,4.9186,4.8289,4.7703,4.7324,4.7205,4.6755,4.6446,4.6301,4.5817,4.5453,4.5331,4.4717,4.4347,4.4347,4.242,4.1248,4.1119,3.8862,3.7348,3.7035,3.6855,3.6375,3.594,3.6128,3.5903,3.5456,3.5157,3.4724,3.429,3.3837,3.3365,3.2571,3.0854,2.9774,2.8997,2.636,2.5263,2.5104,2.416,2.352,2.305,6.6057,6.5958,6.6101,6.6621,6.6693,6.706,6.8141,6.8189,6.8444,6.9229,6.9011,6.898,6.9491,6.9311,6.9105,6.9161,6.8628,6.8083,6.7638,6.7428,6.7346,6.7346,6.7346,6.7175,6.68,6.6472,6.6357,6.6568,6.4992,6.4199,6.4325,6.2967,6.2537,6.2693,6.2866,6.3069,6.3182,6.3768,6.4309,6.4715,6.5474,6.5575,6.5155,6.5318,6.4559,6.3463,6.3125,6.2287,6.1152,6.0141,5.9298,5.8792,5.8792,5.855,5.8274,5.8274,5.8274,5.8274,5.8274,5.8274,5.8274,5.8182,5.7871,5.759,5.718,5.6923,5.6761,5.647,5.6372,5.6077,5.4947,5.4509,5.3547,5.1402,5.074,5.0096,4.8663,4.8172,4.7703,4.7205,4.6874,4.6636,4.6301,4.5696,4.5331,4.5331,4.4717,4.4347,4.4347,4.2673,4.1505,4.0968,3.9003,3.7637,3.7193,3.6881,3.6732,3.6796,3.6312,3.6052,3.5605,3.5157,3.4724,3.4441,3.3988,3.3685,3.3365,3.1485,3.0546,3.0098,2.6991,2.574,2.5581,2.432,2.368,2.3359,6.633,6.6366,6.6391,6.6548,6.6499,6.705,6.8426,6.8622,6.8851,6.9532,6.9562,6.9358,6.9094,6.9269,6.9351,6.9235,6.8973,6.8705,6.8162,6.7742,6.7513,6.7467,6.7249,6.6873,6.6143,6.6416,6.6724,6.71,6.5539,6.4858,6.5016,6.326,6.2693,6.3,6.2615,6.2615,6.2761,6.3216,6.3475,6.3712,6.5277,6.54,6.4661,6.4822,6.4301,6.3429,6.2651,6.1951,6.1235,6.0652,6.0001,5.9331,5.9331,5.8882,5.8367,5.8274,5.8274,5.8274,5.8274,5.8274,5.8274,5.8274,5.8089,5.7778,5.7401,5.7019,5.6761,5.6567,5.647,5.6274,5.5581,5.528,5.4539,5.238,5.1948,5.1183,4.9213,4.8895,4.8521,4.7442,4.7324,4.6993,4.6421,4.5817,4.5453,4.5331,4.4717,4.4347,4.4347,4.3051,4.1888,4.0839,3.9099,3.7881,3.7351,3.7008,3.7009,3.7355,3.6754,3.6201,3.5754,3.5306,3.4857,3.4441,3.3988,3.3837,3.3685,3.1791,3.1024,3.0732,2.7449,2.6043,2.5885,2.432,2.384,2.368,6.6668,6.6608,6.6512,6.6727,6.7186,6.7822,6.8723,6.9317,6.9656,6.9764,6.9317,6.9137,6.9627,7.0007,7.0232,7.02,6.9849,6.9562,6.9379,6.8194,6.7468,6.735,6.6342,6.5696,6.5593,6.586,6.5852,6.5528,6.4596,6.4186,6.4264,6.3333,6.2923,6.3,6.2923,6.2923,6.2923,6.3026,6.3469,6.4118,6.4971,6.5164,6.4903,6.4903,6.4301,6.3429,6.2651,6.1951,6.1317,6.1235,6.0482,5.9596,5.9419,5.8972,5.8518,5.8367,5.8274,5.8274,5.8274,5.8274,5.8274,5.8274,5.8089,5.7871,5.7778,5.7401,5.7019,5.6761,5.6761,5.6664,5.6274,5.588,5.5149,5.3727,5.3097,5.2136,5.0405,4.9729,4.9045,4.8172,4.756,4.7112,4.6806,4.6446,4.5939,4.5331,4.4963,4.4594,4.4347,4.3051,4.2038,4.1248,3.955,3.8344,3.7585,3.7441,3.7297,3.7355,3.7359,3.696,3.6664,3.5903,3.5306,3.4857,3.4122,3.3837,3.3685,3.3044,3.274,3.1977,2.9012,2.7605,2.7134,2.4627,2.384,2.368,6.6786,6.6727,6.6668,6.6786,6.7017,6.7403,6.8012,6.8319,6.8534,6.8534,6.831,6.8264,6.8749,6.9281,6.9633,6.9864,6.9201,6.8856,6.9035,6.7721,6.7008,6.7043,6.6283,6.5711,6.5371,6.5371,6.5296,6.5069,6.4496,6.4359,6.4401,6.3418,6.3152,6.3302,6.3076,6.3076,6.3186,6.3521,6.382,6.4196,6.4991,6.4981,6.4449,6.4606,6.4006,6.3012,6.2595,6.2189,6.1951,6.1951,6.135,6.0482,6.0173,5.9564,5.8972,5.861,5.8367,5.8274,5.8274,5.8274,5.8274,5.8274,5.8182,5.8058,5.7965,5.7684,5.7401,5.7019,5.6858,5.6761,5.647,5.6176,5.5651,5.4274,5.386,5.302,5.0989,5.0432,4.9729,4.8405,4.756,4.7087,4.6993,4.6541,4.6059,4.5574,4.5086,4.4594,4.4347,4.3326,4.242,4.1633,4.0563,3.9221,3.7611,3.7708,3.7628,3.6945,3.6942,3.7093,3.7107,3.6052,3.5456,3.5306,3.4273,3.3837,3.3837,3.3365,3.2892,3.2283,2.9323,2.7134,2.5409,2.416,2.368,2.3359]},{"header":{"parameterUnit":"m.s-1","parameterCategory":1,"la1":30.6,"la2":28.766,"lo1":-90.7593,"lo2":-88.6598,"dy":0.0162,"dx":0.0183,"nx":116,"ny":114,"refTime":"2023-04-07T18:00:00:Z","depth":0,"parameterNumber":3,"parameterNumberName":"V-component_of_WINDS"},"data":[0.0,0.0,0.0,0.0,0.0,0.0,0.0,0.0,0.0,0.0,0.0,0.0,0.0,0.0,0.0,0.0,0.0,0.0,0.0,0.0,0.0,0.0,0.0,0.0,0.0,0.0,0.0,0.0,0.0,0.0,0.0,0.0,0.0,0.0,0.0,0.0,0.0,0.0,0.0,0.0,0.0,0.0,0.0,0.0,0.0,0.0,0.0,0.0,0.0,0.0,0.0,0.0,0.0,0.0,0.0,0.0,0.0,0.0,0.0,0.0,0.0,0.0,0.0,0.0,0.0,0.0,0.0,0.0,0.0,0.0,0.0,0.0,0.0,0.0,0.0,0.0,0.0,0.0,0.0,0.0,0.0,0.0,0.0,0.0,0.0,0.0,0.0,0.0,0.0,0.0,0.0,0.0,0.0,0.0,0.0,0.0,0.0,0.0,0.0,0.0,0.0,0.0,0.0,0.0,0.0,0.0,0.0,0.0,0.0,0.0,0.0,0.0,0.0,0.0,0.0,0.0,0.0,0.0,0.0,0.0,0.0,0.0,0.0,0.0,0.0,0.0,0.0,0.0,0.0,0.0,0.0,0.0,0.0,0.0,0.0,0.0,0.0,0.0,0.0,0.0,0.0,0.0,0.0,0.0,0.0,0.0,0.0,0.0,0.0,0.0,0.0,0.0,0.0,0.0,0.0,0.0,0.0,0.0,0.0,0.0,0.0,0.0,0.0,0.0,0.0,0.0,0.0,0.0,0.0,0.0,0.0,0.0,0.0,0.0,0.0,0.0,0.0,0.0,0.0,0.0,0.0,0.0,0.0,0.0,0.0,0.0,0.0,0.0,0.0,0.0,0.0,0.0,0.0,0.0,0.0,0.0,0.0,0.0,0.0,0.0,0.0,0.0,0.0,0.0,0.0,0.0,0.0,0.0,0.0,0.0,0.0,0.0,0.0,0.0,0.0,0.0,0.0,0.0,0.0,0.0,0.0,0.0,0.0,0.0,0.0,0.0,0.0,0.0,0.0,0.0,0.0,0.0,0.0,0.0,0.0,0.0,0.0,0.0,0.0,0.0,0.0,0.0,0.0,0.0,0.0,0.0,0.0,0.0,0.0,0.0,0.0,0.0,0.0,0.0,0.0,0.0,0.0,0.0,0.0,0.0,0.0,0.0,0.0,0.0,0.0,0.0,0.0,0.0,0.0,0.0,0.0,0.0,0.0,0.0,0.0,0.0,0.0,0.0,0.0,0.0,0.0,0.0,0.0,0.0,0.0,0.0,0.0,0.0,0.0,0.0,0.0,0.0,0.0,0.0,0.0,0.0,0.0,0.0,0.0,0.0,0.0,0.0,0.0,0.0,0.0,0.0,0.0,0.0,0.0,0.0,0.0,0.0,0.0,0.0,0.0,0.0,0.0,0.0,0.0,0.0,0.0,0.0,0.0,0.0,0.0,0.0,0.0,0.0,0.0,0.0,0.0,0.0,0.0,0.0,0.0,0.0,0.0,0.0,0.0,0.0,0.0,0.0,0.0,0.0,0.0,0.0,0.0,0.0,0.0,0.0,0.0,0.0,0.0,0.0,0.0,0.0,0.0,0.0,0.0,0.0,0.0,0.0,0.0,0.0,0.0,0.0,0.0,0.0,0.0,0.0,0.0,0.0,0.0,0.0,0.0,0.0,0.0,0.0,0.0,0.0,0.0,0.0,0.0,0.0,0.0,0.0,0.0,0.0,0.0,0.0,0.0,0.0,0.0,0.0,0.0,0.0,0.0,0.0,0.0,0.0,0.0,0.0,0.0,0.0,0.0,0.0,0.0,0.0,0.0,0.0,0.0,0.0,0.0,0.0,0.0,0.0,0.0,0.0,0.0,0.0,0.0,0.0,0.0,0.0,0.0,0.0,0.0,0.0,0.0,0.0,0.0,0.0,0.0,0.0,0.0,0.0,0.0,0.0,0.0,0.0,0.0,0.0,0.0,0.0,0.0,0.0,0.0,0.0,0.0,0.0,0.0,0.0,0.0,0.0,0.0,0.0,0.0,0.0,0.0,0.0,0.0,0.0,0.0,0.0,0.0,0.0,0.0,0.0,0.0,0.0,0.0,0.0,0.0,0.0,0.0,0.0,0.0,0.0,0.0,0.0,0.0,0.0,0.0,0.0,0.0,0.0,0.0,0.0,0.0,0.0,0.0,0.0,0.0,0.0,0.0,0.0,0.0,0.0,0.0,0.0,0.0,0.0,0.0,0.0,0.0,0.0,0.0,0.0,0.0,0.0,0.0,0.0,0.0,0.0,0.0,0.0,0.0,0.0,0.0,0.0,0.0,0.0,0.0,0.0,0.0,0.0,0.0,0.0,0.0,0.0,0.0,0.0,0.0,0.0,0.0,0.0,0.0,0.0,0.0,0.0,0.0,0.0,0.0,0.0,0.0,0.0,0.0,0.0,0.0,0.0,0.0,0.0,0.0,0.0,0.0,0.0,0.0,0.0,0.0,0.0,0.0,0.0,0.0,0.0,0.0,0.0,0.0,0.0,0.0,0.0,0.0,0.0,0.0,0.0,0.0,0.0,0.0,0.0,0.0,0.0,0.0,0.0,0.0,0.0,0.0,0.0,0.0,0.0,0.0,0.0,0.0,0.0,0.0,0.0,0.0,0.0,0.0,0.0,0.0,0.0,0.0,0.0,0.0,0.0,0.0,0.0,0.0,0.0,0.0,0.0,0.0,0.0,0.0,0.0,0.0,0.0,0.0,0.0,0.0,0.0,0.0,0.0,0.0,0.0,0.0,0.0,0.0,0.0,0.0,0.0,0.0,0.0,0.0,0.0,0.0,0.0,0.0,0.0,0.0,0.0,0.0,0.0,0.0,0.0,0.0,0.0,0.0,0.0,0.0,0.0,0.0,0.0,0.0,0.0,0.0,0.0,0.0,0.0,0.0,0.0,0.0,0.0,0.0,0.0,0.0,0.0,0.0,0.0,0.0,0.0,0.0,0.0,0.0,0.0,0.0,0.0,0.0,0.0,0.0,0.0,0.0,0.0,0.0,0.0,0.0,0.0,0.0,0.0,0.0,0.0,0.0,0.0,0.0,0.0,0.0,0.0,0.0,0.0,0.0,0.0,0.0,0.0,0.0,0.0,0.0,0.0,0.0,0.0,0.0,0.0,0.0,0.0,0.0,0.0,0.0,0.0,0.0,0.0,0.0,0.0,0.0,0.0,0.0,0.0,0.0,0.0,0.0,0.0,0.0,0.0,0.0,0.0,0.0,0.0,0.0,0.0,0.0,0.0,0.0,0.0,0.0,0.0,0.0,0.0,0.0,0.0,0.0,0.0,0.0,0.0,0.0,0.0,0.0,0.0,0.0,0.0,0.0,0.0,0.0,0.0,0.0,0.0,0.0,0.0,0.0,0.0,0.0,0.0,0.0,0.0,0.0,0.0,0.0,0.0,0.0,0.0,0.0,0.0,0.0,0.0,0.0,0.0,0.0,0.0,0.0,0.0,0.0,0.0,0.0,0.0,0.0,0.0,0.0,0.0,0.0,0.0,0.0,0.0,0.0,0.0,0.0,0.0,0.0,0.0,0.0,0.0,0.0,0.0,0.0,0.0,0.0,0.0,0.0,0.0,0.0,0.0,0.0,0.0,0.0,0.0,0.0,0.0,0.0,0.0,0.0,0.0,0.0,0.0,0.0,0.0,0.0,0.0,0.0,0.0,0.0,0.0,0.0,0.0,0.0,0.0,0.0,0.0,0.0,0.0,0.0,0.0,0.0,0.0,0.0,0.0,0.0,0.0,0.0,0.0,0.0,0.0,0.0,0.0,0.0,0.0,0.0,0.0,0.0,0.0,0.0,0.0,0.0,0.0,0.0,0.0,0.0,0.0,0.0,0.0,0.0,0.0,0.0,0.0,0.0,0.0,0.0,0.0,0.0,0.0,0.0,0.0,0.0,0.0,0.0,0.0,0.0,0.0,0.0,0.0,0.0,0.0,0.0,0.0,0.0,0.0,0.0,0.0,0.0,0.0,0.0,0.0,0.0,0.0,0.0,0.0,0.0,0.0,0.0,0.0,0.0,0.0,0.0,0.0,0.0,0.0,0.0,0.0,0.0,0.0,0.0,0.0,0.0,0.0,0.0,0.0,0.0,0.0,0.0,0.0,0.0,0.0,0.0,0.0,0.0,0.0,0.0,0.0,0.0,0.0,0.0,0.0,0.0,0.0,0.0,0.0,0.0,0.0,0.0,0.0,0.0,0.0,0.0,0.0,0.0,0.0,0.0,0.0,0.0,0.0,0.0,0.0,0.0,0.0,0.0,0.0,0.0,0.0,0.0,0.0,0.0,0.0,0.0,0.0,0.0,0.0,0.0,0.0,0.0,0.0,0.0,0.0,0.0,0.0,0.0,0.0,0.0,0.0,0.0,0.0,0.0,0.0,0.0,0.0,0.0,0.0,0.0,0.0,0.0,0.0,0.0,0.0,0.0,0.0,0.0,0.0,0.0,0.0,0.0,0.0,0.0,0.0,0.0,0.0,0.0,0.0,0.0,0.0,0.0,0.0,0.0,0.0,0.0,0.0,0.0,0.0,0.0,0.0,0.0,0.0,0.0,0.0,0.0,0.0,0.0,0.0,0.0,0.0,0.0,0.0,0.0,0.0,0.0,0.0,0.0,0.0,0.0,0.0,0.0,0.0,0.0,0.0,0.0,0.0,0.0,0.0,0.0,0.0,0.0,0.0,0.0,0.0,0.0,0.0,0.0,0.0,0.0,0.0,0.0,0.0,0.0,0.0,0.0,0.0,0.0,0.0,0.0,0.0,0.0,0.0,0.0,0.0,0.0,0.0,0.0,0.0,0.0,0.0,0.0,0.0,0.0,0.0,0.0,0.0,0.0,0.0,0.0,0.0,0.0,0.0,0.0,0.0,0.0,0.0,0.0,0.0,0.0,0.0,0.0,0.0,0.0,0.0,0.0,0.0,0.0,0.0,0.0,0.0,0.0,0.0,0.0,0.0,0.0,0.0,0.0,0.0,0.0,0.0,0.0,0.0,0.0,0.0,0.0,0.0,0.0,0.0,0.0,0.0,0.0,0.0,0.0,0.0,0.0,0.0,0.0,0.0,0.0,0.0,0.0,0.0,0.0,0.0,0.0,0.0,0.0,0.0,0.0,0.0,0.0,0.0,0.0,0.0,0.0,0.0,0.0,0.0,0.0,0.0,0.0,0.0,0.0,0.0,0.0,0.0,0.0,0.0,0.0,0.0,0.0,0.0,0.0,0.0,0.0,0.0,0.0,0.0,0.0,0.0,0.0,0.0,0.0,0.0,0.0,0.0,0.0,0.0,0.0,0.0,0.0,0.0,0.0,0.0,0.0,0.0,0.0,0.0,0.0,0.0,0.0,0.0,0.0,0.0,0.0,0.0,0.0,0.0,0.0,0.0,0.0,0.0,0.0,0.0,0.0,0.0,0.0,0.0,0.0,0.0,0.0,0.0,0.0,0.0,0.0,0.0,0.0,0.0,0.0,0.0,0.0,0.0,0.0,0.0,0.0,0.0,0.0,0.0,0.0,0.0,0.0,0.0,0.0,0.0,0.0,0.0,0.0,0.0,0.0,0.0,0.0,0.0,0.0,0.0,0.0,0.0,0.0,0.0,0.0,0.0,0.0,0.0,0.0,0.0,0.0,0.0,0.0,0.0,0.0,0.0,0.0,0.0,0.0,0.0,0.0,0.0,0.0,0.0,0.0,0.0,0.0,0.0,0.0,0.0,0.0,0.0,0.0,0.0,0.0,0.0,0.0,0.0,0.0,0.0,0.0,0.0,0.0,0.0,0.0,0.0,0.0,0.0,0.0,0.0,0.0,0.0,0.0,0.0,0.0,0.0,0.0,0.0,0.0,0.0,0.0,0.0,0.0,0.0,0.0,0.0,0.0,0.0,0.0,0.0,0.0,0.0,0.0,0.0,0.0,0.0,0.0,0.0,0.0,0.0,0.0,0.0,0.0,0.0,0.0,0.0,0.0,0.0,0.0,0.0,0.0,0.0,0.0,0.0,0.0,0.0,0.0,0.0,0.0,0.0,0.0,0.0,0.0,0.0,0.0,0.0,0.0,0.0,0.0,0.0,0.0,0.0,0.0,0.0,4.2726,0.0,0.0,0.0,0.0,0.0,0.0,0.0,0.0,0.0,0.0,0.0,0.0,0.0,0.0,0.0,0.0,0.0,0.0,0.0,0.0,0.0,0.0,0.0,0.0,2.0342,2.0694,2.0898,2.0474,2.0357,2.0636,2.0262,2.0157,2.0355,2.092,2.1377,2.1855,2.2549,2.3134,2.3644,2.3528,2.3834,2.4529,2.4197,2.4296,2.46,0.0,0.0,0.0,0.0,0.0,0.0,0.0,0.0,0.0,0.0,0.0,0.0,0.0,0.0,0.0,0.0,0.0,0.0,0.0,0.0,0.0,0.0,0.0,0.0,0.0,0.0,0.0,0.0,0.0,0.0,0.0,0.0,0.0,0.0,0.0,0.0,0.0,0.0,0.0,0.0,0.0,0.0,0.0,0.0,0.0,0.0,0.0,0.0,0.0,0.0,0.0,0.0,0.0,0.0,0.0,0.0,0.0,0.0,0.0,0.0,0.0,0.0,0.0,0.0,0.0,0.0,0.0,0.0,0.0,0.0,0.0,4.4698,0.0,0.0,0.0,0.0,0.0,0.0,0.0,0.0,0.0,0.0,0.0,0.0,0.0,0.0,0.0,0.0,0.0,0.0,0.0,0.0,0.0,2.0465,2.0183,2.0352,2.0514,2.0636,2.0251,2.0322,2.11,2.0749,2.0862,2.1508,2.1701,2.2004,2.2449,2.2962,2.3138,2.3138,2.3538,2.3972,2.4542,2.4839,2.4876,2.4634,2.4579,0.0,0.0,0.0,0.0,0.0,0.0,0.0,0.0,0.0,0.0,0.0,0.0,0.0,0.0,0.0,0.0,0.0,0.0,0.0,0.0,0.0,0.0,0.0,0.0,0.0,0.0,0.0,0.0,0.0,0.0,0.0,0.0,0.0,0.0,0.0,0.0,0.0,0.0,0.0,0.0,0.0,0.0,0.0,0.0,0.0,0.0,0.0,0.0,0.0,0.0,0.0,0.0,0.0,0.0,0.0,0.0,0.0,0.0,0.0,0.0,0.0,0.0,0.0,4.4563,4.4765,4.4966,4.5801,4.6252,4.642,4.6923,4.6938,4.6505,4.672,0.0,0.0,0.0,0.0,0.0,0.0,0.0,0.0,0.0,0.0,0.0,0.0,0.0,0.0,0.0,0.0,0.0,0.0,0.0,2.0642,2.0279,2.0933,2.1362,2.1136,2.0976,2.1179,2.1692,2.0845,2.0801,2.1867,2.1542,2.1628,2.2449,2.2619,2.3138,2.3935,2.4922,2.5624,2.609,2.5691,2.5882,2.6613,2.6265,2.6303,2.6734,0.0,0.0,0.0,0.0,0.0,0.0,0.0,0.0,0.0,0.0,0.0,0.0,0.0,0.0,0.0,0.0,0.0,0.0,0.0,0.0,0.0,0.0,0.0,0.0,0.0,0.0,0.0,0.0,0.0,0.0,0.0,0.0,0.0,0.0,0.0,0.0,0.0,0.0,0.0,0.0,0.0,3.6098,3.698,0.0,0.0,0.0,0.0,0.0,0.0,0.0,0.0,0.0,0.0,0.0,0.0,0.0,4.3177,4.3277,4.3256,4.3824,4.4966,4.4765,4.5166,4.6112,4.6742,4.7094,4.7122,4.7756,0.0,4.6909,4.6976,0.0,0.0,0.0,0.0,0.0,0.0,0.0,0.0,0.0,0.0,0.0,0.0,0.0,0.0,0.0,0.0,0.0,0.0,0.0,0.0,0.0,2.1534,2.2059,2.1995,2.2178,2.2399,2.261,2.2038,2.2008,2.2676,2.2378,2.2564,2.342,2.4017,2.4738,2.5585,2.5595,2.591,2.6314,2.6333,2.6749,2.7363,2.7187,2.707,2.7012,2.7317,0.0,0.0,0.0,0.0,0.0,0.0,0.0,0.0,0.0,0.0,0.0,0.0,0.0,0.0,0.0,0.0,0.0,0.0,0.0,0.0,0.0,0.0,0.0,0.0,0.0,0.0,0.0,0.0,0.0,0.0,0.0,0.0,0.0,0.0,0.0,0.0,0.0,0.0,0.0,3.604,3.659,3.7718,3.718,3.7067,0.0,0.0,0.0,0.0,0.0,0.0,0.0,0.0,0.0,4.2892,4.3833,4.4433,4.4667,4.4885,4.5358,4.5874,4.6079,4.6385,4.6918,4.75,4.774,4.774,4.8021,4.7925,4.7589,4.7417,4.7501,4.7724,0.0,0.0,0.0,0.0,4.88,4.9072,0.0,0.0,0.0,0.0,0.0,0.0,0.0,0.0,0.0,0.0,0.0,0.0,2.1229,2.2061,2.2777,2.2862,2.3244,2.3412,2.3502,2.3238,2.312,2.3538,2.3238,2.3338,2.4035,2.5102,2.5863,2.6391,2.6116,2.6149,2.655,2.6962,2.7402,2.7832,2.8042,2.7865,2.7447,2.7859,2.8064,2.8166,0.0,0.0,0.0,0.0,0.0,0.0,0.0,0.0,0.0,0.0,0.0,0.0,0.0,0.0,0.0,0.0,0.0,0.0,0.0,0.0,0.0,0.0,0.0,0.0,0.0,0.0,0.0,0.0,0.0,0.0,0.0,0.0,0.0,0.0,0.0,0.0,0.0,3.6921,3.7548,3.8679,3.8364,3.8267,0.0,0.0,0.0,0.0,0.0,0.0,4.2123,4.2622,4.3336,4.4199,4.5042,4.5597,4.5804,4.6265,4.6587,4.6587,4.7081,4.7371,4.764,4.8154,4.8443,4.8583,4.8583,4.8583,4.8555,4.8239,4.8166,4.8316,4.8461,4.8931,4.9339,4.9404,4.9498,4.974,0.0,0.0,0.0,0.0,0.0,0.0,0.0,0.0,0.0,0.0,0.0,2.1841,2.1657,2.2713,2.3492,2.3492,2.3859,2.4016,2.4035,2.352,2.3538,2.4152,2.3637,2.3538,2.4134,2.5139,2.5667,2.5705,2.6492,2.7207,2.7637,2.7637,2.7851,2.8262,2.8774,2.888,2.8668,2.8668,2.9092,2.9828,2.9953,0.0,0.0,0.0,0.0,0.0,0.0,0.0,0.0,0.0,0.0,0.0,0.0,0.0,0.0,0.0,0.0,0.0,0.0,0.0,0.0,0.0,0.0,0.0,0.0,0.0,0.0,0.0,0.0,0.0,0.0,0.0,0.0,0.0,0.0,0.0,0.0,0.0,0.0,3.9819,3.9354,0.0,0.0,0.0,0.0,4.1254,4.2511,4.3274,4.3274,4.433,4.4941,4.5048,4.598,4.6428,4.6428,4.6455,4.6692,4.6901,4.7184,4.7695,4.8562,4.8798,4.9314,4.9848,4.9848,4.9848,4.9925,4.9483,4.9535,4.9896,5.0672,5.1208,5.141,5.1712,5.2111,5.2605,0.0,0.0,0.0,1.8011,1.8162,1.8414,1.9161,1.966,1.9918,2.0069,2.119,2.1969,2.1877,2.3335,2.4297,2.4297,2.4792,2.5039,2.4843,2.4529,2.4332,2.443,2.4035,2.4572,2.6303,2.6396,2.7051,2.8097,2.7688,2.7656,2.8066,2.8066,2.8251,2.8514,2.8727,2.9046,2.9237,2.9469,2.9679,2.9994,3.0203,3.0391,0.0,0.0,0.0,0.0,0.0,0.0,0.0,0.0,0.0,0.0,0.0,0.0,0.0,0.0,0.0,0.0,0.0,0.0,0.0,0.0,0.0,0.0,0.0,0.0,0.0,0.0,0.0,0.0,0.0,0.0,0.0,0.0,0.0,0.0,0.0,0.0,0.0,4.126,4.0879,0.0,4.2048,4.2373,4.2716,4.3208,4.3521,4.3842,4.4516,4.4914,4.5368,4.6034,4.6729,4.7052,4.7052,4.7432,4.7622,4.7729,4.8023,4.8452,4.8886,4.9203,4.9525,4.996,4.996,4.996,4.996,5.0234,5.0303,5.0303,5.0709,5.1206,5.1614,5.1887,5.2188,5.2645,0.0,1.7302,0.0,1.8179,1.8179,1.8479,1.9553,1.9669,1.9872,2.0537,2.1564,2.2315,2.2628,2.3994,2.491,2.5006,2.547,2.5547,2.5235,2.5039,2.4726,2.4529,2.4659,2.5553,2.7278,2.7251,2.7811,2.889,2.8246,2.8027,2.8301,2.8408,2.8593,2.8945,2.916,2.9561,3.011,3.0343,3.0473,3.0538,3.0727,3.1042,3.1422,0.0,0.0,0.0,0.0,0.0,0.0,0.0,0.0,0.0,0.0,0.0,0.0,0.0,0.0,0.0,0.0,0.0,0.0,0.0,0.0,0.0,0.0,0.0,0.0,0.0,0.0,0.0,0.0,0.0,0.0,0.0,0.0,0.0,0.0,4.0147,4.0722,4.2301,4.22,4.2468,4.3476,4.3825,4.4063,4.4561,4.4696,4.4991,4.5848,4.5875,4.6196,4.7052,4.7459,4.7649,4.7649,4.8056,4.8246,4.8246,4.8572,4.8871,4.9307,4.963,5.0062,5.0472,5.0578,5.0578,5.0607,5.1135,5.1158,5.1003,5.1423,5.1943,5.2457,5.2834,5.3237,5.3764,0.0,1.74,1.7516,1.7862,1.8225,1.8692,1.9604,1.9709,2.0079,2.1212,2.2142,2.3012,2.3991,2.4792,2.543,2.5645,2.5742,2.543,2.4941,2.4941,2.4843,2.4548,2.5576,2.64,2.7031,2.7461,2.7676,2.7676,2.8105,2.8281,2.8301,2.8641,2.8965,2.9451,3.0012,3.0472,3.0901,3.1251,3.1437,3.1551,3.1529,3.2126,3.3071,0.0,0.0,0.0,0.0,0.0,0.0,0.0,0.0,0.0,0.0,0.0,0.0,0.0,0.0,0.0,0.0,0.0,0.0,0.0,0.0,0.0,0.0,0.0,0.0,0.0,0.0,0.0,0.0,0.0,0.0,0.0,0.0,0.0,4.1022,4.1175,4.1693,4.292,4.3296,4.3628,4.3797,4.4938,4.5502,4.518,4.606,4.6781,4.7351,4.7378,4.7649,4.8219,4.8273,4.8273,4.8273,4.83,4.83,4.83,4.8627,4.9036,4.9694,5.0131,5.0791,5.1376,5.1706,5.1787,5.1787,5.2113,5.2221,5.2329,5.2865,5.3471,5.3993,5.4815,5.5421,5.6115,1.7318,1.7351,1.7644,1.8684,1.916,1.9533,2.0086,2.0371,2.1119,2.2685,2.3202,2.3895,2.5449,2.5644,2.5645,2.5742,2.5742,2.5645,2.5547,2.5333,2.5271,2.5576,2.6976,2.7756,2.748,2.791,2.8125,2.8125,2.8455,2.8621,2.8621,2.9152,2.9675,3.0012,3.0445,3.0888,3.1251,3.1579,3.2011,3.2508,3.2146,3.2319,3.29,0.0,0.0,0.0,0.0,0.0,0.0,0.0,0.0,0.0,0.0,0.0,0.0,0.0,0.0,0.0,0.0,0.0,0.0,0.0,0.0,0.0,0.0,0.0,0.0,0.0,0.0,0.0,0.0,0.0,0.0,0.0,4.1521,4.1767,4.2066,4.3098,4.3985,4.4785,4.5161,4.5302,4.5395,4.6062,4.6652,4.6786,4.7406,4.7839,4.8002,4.8002,4.8083,4.8246,4.8653,4.887,4.887,4.9304,4.9521,4.9521,4.9633,4.9854,5.0241,5.0657,5.0989,5.1376,5.1706,5.1896,5.2113,5.2113,5.2465,5.2894,5.3001,5.3785,5.4786,5.519,5.6085,5.7149,1.7237,1.7349,1.7705,1.8939,1.9138,1.9418,2.015,2.0432,2.1404,2.3617,2.3746,2.4409,2.6463,2.6112,2.5742,2.5742,2.5742,2.5645,2.5528,2.5604,2.5794,2.6218,2.7491,2.8152,2.793,2.827,2.8514,2.8514,2.8727,2.8913,2.922,2.9675,3.0303,3.0799,3.1175,3.1643,3.2163,3.2274,3.2754,3.3412,3.3133,3.3136,3.3508,3.3878,3.3813,3.3486,3.377,3.3617,3.3289,3.2831,0.0,0.0,0.0,0.0,0.0,0.0,0.0,0.0,0.0,0.0,0.0,0.0,0.0,0.0,0.0,0.0,0.0,0.0,0.0,0.0,0.0,0.0,0.0,0.0,4.2424,4.2992,4.3599,4.4489,4.5259,4.5708,4.6323,4.673,4.6571,4.7136,4.7487,4.7731,4.8056,4.8355,4.8599,4.8626,4.8735,4.8979,4.9304,4.9494,4.9494,4.9847,5.001,5.001,5.001,5.0123,5.0263,5.0683,5.1017,5.1376,5.1787,5.2329,5.2943,5.3049,5.3471,5.4097,0.0,0.0,0.0,0.0,5.7307,5.8272,1.7286,1.733,1.777,1.899,1.8836,1.8913,2.0059,2.0281,2.1242,2.4146,2.4029,2.456,2.6941,2.627,2.5742,2.5742,2.5645,2.5528,2.5333,2.6013,2.6559,2.6686,2.7461,2.8015,2.8388,2.8621,2.8727,2.8727,2.9086,2.9413,2.9796,3.0221,3.0908,3.1687,3.1973,3.258,3.3296,3.3296,3.3636,3.4086,3.4086,3.4311,3.4534,3.4534,3.4556,3.4534,3.4054,3.3901,3.3879,3.3333,0.0,0.0,0.0,0.0,0.0,0.0,0.0,0.0,0.0,0.0,0.0,0.0,0.0,0.0,0.0,0.0,0.0,0.0,0.0,0.0,0.0,0.0,0.0,0.0,4.3339,4.4733,4.5493,4.5794,4.5998,4.6169,4.7217,4.7783,4.7513,4.8002,4.8355,4.8355,4.8409,4.868,4.9196,4.9304,0.0,0.0,0.0,5.02,5.02,5.02,5.02,5.02,5.02,5.02,5.02,5.0764,5.1211,5.1543,5.2202,5.3144,5.4199,5.451,5.5197,5.5901,5.525,5.519,5.562,5.7621,5.876,5.9419,1.7263,1.7855,1.8403,1.8941,1.9485,1.9844,1.9729,2.0577,2.1917,2.4184,2.4175,2.4782,2.6961,2.627,2.5742,2.5742,2.5528,2.5333,2.5333,2.7842,2.8573,2.7012,2.8361,2.9031,2.8621,2.8621,2.8834,2.9026,2.9688,3.0018,3.012,3.1203,3.1857,3.2399,3.2776,3.3212,3.3523,3.3861,3.3974,3.4086,3.4311,3.4401,3.4534,3.4534,3.4753,3.5015,3.4556,3.4622,3.4797,3.3945,3.3923,3.4098,3.3656,3.3785,0.0,0.0,0.0,0.0,0.0,0.0,0.0,0.0,0.0,0.0,0.0,0.0,0.0,0.0,0.0,0.0,0.0,0.0,0.0,4.5244,4.5637,4.6209,4.7851,4.8208,4.8215,4.7539,4.8104,4.8403,4.8138,4.8599,4.8952,4.8952,4.9413,4.9711,4.9847,5.0308,5.0607,5.0715,5.1204,5.1475,5.1475,5.1475,5.1475,5.1475,5.1475,0.0,5.1475,5.1823,5.237,5.291,5.397,5.4952,5.5837,5.6645,5.7466,5.8406,5.7294,5.7022,5.7433,5.8669,5.9331,5.9693,1.7173,1.7911,1.8502,1.8596,1.9405,1.982,1.9637,2.0492,2.189,2.3974,2.3791,2.4258,2.6547,2.5761,2.5137,2.5333,2.5333,2.5429,2.5641,2.7442,2.8228,2.753,2.858,2.9026,2.894,2.9046,2.9359,2.9667,3.0232,3.0668,3.1121,3.1927,3.2504,3.2847,3.3191,3.3523,3.3861,3.3974,3.4199,3.4332,3.4662,3.4862,3.4862,3.4862,3.5015,3.5168,3.4949,3.4862,3.4818,3.4578,3.4513,3.4534,3.4758,3.4736,3.4781,0.0,0.0,0.0,0.0,0.0,0.0,0.0,0.0,0.0,0.0,0.0,0.0,0.0,0.0,4.1335,4.1433,0.0,4.4983,4.5872,4.6795,4.7664,4.8615,4.905,4.8915,4.7916,4.87,4.9108,4.8735,4.9223,4.9684,4.9983,5.001,5.0281,5.0878,5.0905,5.1041,5.1339,5.1665,5.1828,5.1828,5.1828,5.1828,5.1828,5.1828,5.1828,5.1828,5.2267,5.3045,5.4118,5.4973,5.6267,5.7789,5.857,5.9265,5.9656,5.9127,5.9066,5.9535,6.0211,6.0573,6.0818,1.7003,1.7914,1.86,1.8335,1.9092,1.9637,1.9455,2.0247,2.155,2.337,2.3075,2.3596,2.5583,2.4998,2.4553,2.4824,2.5312,2.5701,2.5948,2.6855,2.7594,2.8034,2.8489,2.8834,2.9237,2.953,2.986,3.0335,3.0735,3.1319,3.2043,3.2483,3.2826,3.3182,3.3523,3.3749,3.3974,3.4081,3.4328,3.4575,3.4945,3.5277,3.5364,3.5364,3.5364,3.5343,3.5233,3.5037,3.484,3.5124,3.5037,3.4949,3.5714,3.5692,3.5479,3.5707,3.6604,0.0,0.0,0.0,0.0,0.0,0.0,0.0,0.0,3.8883,3.9226,3.9864,4.1457,4.2746,4.2687,4.4849,4.6565,4.6231,4.7607,4.8834,4.8857,4.9481,4.9454,4.8292,4.9297,4.9983,4.9521,4.9901,5.039,5.0851,5.0444,5.0607,5.1584,5.1394,5.1475,5.1991,5.2126,5.2181,5.2181,5.2181,5.2181,5.2181,5.2181,5.2298,5.2298,5.2945,5.4036,5.5429,5.6437,5.7945,5.983,6.0418,6.0708,6.0708,6.0804,6.109,6.15,6.1491,6.1547,6.1821,0.0,1.8105,1.9262,1.8241,1.9255,1.9928,1.9012,2.0062,2.1095,2.1538,2.2214,2.299,2.3832,2.4141,2.435,2.451,2.6035,2.6586,2.5667,2.7518,2.8511,2.8157,2.8489,2.894,2.9554,2.9942,3.0273,3.0677,3.1485,3.194,3.2043,3.2797,3.314,3.3182,3.3523,3.3636,3.3657,3.4082,3.4482,3.4804,3.4776,3.5287,3.5889,3.5889,3.5889,3.5823,3.5364,3.5452,3.5736,3.5343,3.5474,3.5823,3.5932,3.5932,3.6005,3.6214,3.6418,3.66,3.7063,3.7953,3.8758,3.9035,3.9012,3.922,0.0,4.023,4.0725,4.1533,4.3134,4.4556,4.5118,4.6316,4.7558,4.8288,4.87,4.9193,4.9508,5.0189,5.0438,4.9562,5.0276,5.077,5.0715,5.077,5.0824,5.0878,5.0824,5.0851,5.0987,5.1964,5.2533,5.2615,5.313,5.3402,5.3402,5.3402,5.3402,5.3402,5.3763,5.3882,5.3882,5.4982,5.6108,5.7096,5.9516,6.113,6.2094,6.2094,6.2193,6.2193,6.2487,6.2682,6.2844,6.1564,6.1455,6.1886,0.0,1.853,1.9562,1.7963,1.9088,1.9928,1.892,1.9787,2.0709,2.1026,2.1462,2.2173,2.3009,2.3767,2.4263,2.4332,2.5976,2.6645,2.6009,2.8004,2.8982,2.8745,2.9031,2.9469,2.9784,3.0216,3.0694,3.1091,3.1733,3.2188,3.2437,3.2985,3.3203,3.3182,3.3523,3.3785,3.4061,3.4253,3.4602,3.4975,3.5392,3.5864,3.6177,3.6675,3.6631,3.6369,3.6151,3.602,0.0,3.6042,3.602,3.6063,3.661,3.661,3.6509,3.6743,3.7355,3.8223,3.935,3.9492,3.9564,3.98,3.9918,4.0082,4.074,4.1181,4.1807,4.3026,4.4586,4.5797,4.6056,4.741,4.8511,4.8865,4.9599,5.0118,4.9924,5.0736,5.1095,5.0005,5.1034,5.1529,5.0471,5.0688,5.1041,5.1421,5.1448,5.1747,5.2425,5.2615,5.2859,5.3212,5.3483,5.3592,5.3592,5.3592,5.3713,5.3954,5.4497,5.497,5.5205,5.6451,5.7664,5.9087,6.1041,6.2116,6.2446,6.2446,6.2446,6.2414,6.2513,6.271,6.2939,6.2652,6.2805,6.3117,0.0,1.8664,1.9546,1.7606,1.8996,1.9928,1.892,1.9654,2.0394,2.0686,2.1084,2.1714,2.2876,2.3717,2.4152,2.4152,2.5599,2.6423,2.6359,2.8001,2.9064,2.9217,2.9448,2.9764,2.9994,3.0574,3.105,3.1381,3.194,3.2395,3.2727,3.3069,3.3203,3.3069,3.3409,3.3663,3.4107,3.4233,3.455,3.5113,3.5691,3.608,3.6242,3.6828,3.6861,3.6697,3.6697,3.6479,3.6216,3.6588,3.6544,3.6479,3.7156,3.7156,3.6894,3.711,3.7976,3.9084,4.0416,4.0232,3.9882,4.0403,4.0569,4.0831,4.1543,4.2252,4.31,4.4461,4.5948,4.7047,4.7231,4.8279,4.9328,4.9603,5.0335,5.0797,5.0553,5.1421,5.1692,5.0634,5.1828,5.2126,5.0661,5.1041,5.1584,5.2045,5.2072,5.2452,5.332,5.3103,5.3158,5.3592,5.3592,5.3673,5.3836,5.4172,5.4616,5.5022,5.6035,5.6707,5.6938,5.8127,5.9375,6.0732,6.1916,6.2446,6.2446,6.2446,6.2541,6.273,6.273,6.2929,6.3192,6.3581,6.3869,6.3897,0.0,0.0,1.9088,1.7606,1.8996,1.9928,1.892,1.9654,2.0292,2.0309,2.1094,2.2089,2.3359,2.3914,2.4152,2.4152,2.512,2.5939,2.6564,2.7609,2.8565,2.9533,2.9554,2.9764,2.9994,3.0884,3.136,3.1381,3.2271,3.2727,3.2727,3.3069,3.3069,3.2727,3.3069,3.332,3.341,3.3865,3.4539,3.5197,3.5218,3.56,3.6199,3.6221,3.6459,3.6697,3.6697,3.6697,3.6675,3.6697,3.6981,3.733,3.7374,3.7374,3.7352,3.7352,3.7637,3.8141,3.9117,3.9094,3.9067,3.9928,4.0306,4.0924,4.1994,4.3374,4.4835,4.5766,4.7143,4.8353,4.8965,4.9301,4.9832,5.0743,5.0878,5.1095,5.1692,5.2289,5.2452,5.1855,5.2343,5.2479,5.1828,5.2316,5.2669,5.2696,5.2696,5.2696,5.275,5.3266,5.3565,5.3592,5.3592,5.3863,5.446,5.5714,5.6592,5.7182,5.8813,5.9536,5.9621,6.0645,6.1317,6.1582,6.2116,6.2446,6.2446,6.2446,6.2825,6.3457,6.3457,6.3658,6.3857,6.4122,6.3966,6.3707,0.0,0.0,0.0,1.7994,1.8904,1.9729,1.9363,1.9928,2.0377,2.0651,2.1707,0.0,0.0,0.0,0.0,0.0,2.5648,2.6512,2.6583,2.8384,2.939,2.9554,2.9764,2.9889,2.9994,3.0905,3.1381,3.1381,3.2292,3.2727,3.2727,3.2841,3.2841,3.2747,3.3152,3.3526,3.3865,3.4341,3.4897,3.5313,3.5558,3.5945,3.6353,3.6652,3.6954,3.7199,0.0,3.7197,3.7156,3.7156,3.7243,3.7374,3.7374,3.7374,3.7495,3.7637,3.7758,3.8118,3.8812,3.93,3.9836,4.026,4.1257,4.2353,4.3839,4.5067,4.6433,4.7832,4.8779,4.9454,4.9724,5.0108,5.0547,5.0851,5.1258,5.1584,5.1801,5.2343,5.2506,5.1909,5.2696,5.3076,5.2479,5.2588,5.2723,5.2723,5.3076,5.3293,5.3293,5.3483,5.3782,5.4162,5.4189,5.4609,5.5622,5.6613,5.7412,5.8263,6.0072,6.1207,6.1759,6.2548,6.2965,6.2986,6.3602,6.3805,6.3805,6.3805,6.3963,6.4152,6.4152,6.4184,6.4387,6.4725,6.4895,6.4672,0.0,0.0,0.0,1.79,1.8627,0.0,0.0,0.0,0.0,0.0,0.0,0.0,0.0,0.0,0.0,0.0,0.0,2.6871,2.6788,2.8629,2.9659,2.9764,2.9889,2.9994,2.9994,3.0739,3.1215,3.1381,3.2126,3.2561,3.2727,3.2727,3.2727,3.2747,3.3016,3.3389,3.3844,3.432,3.4776,3.5211,3.5602,3.5932,3.6199,3.6516,3.6924,0.0,3.7277,3.7523,3.7614,3.744,3.7374,3.7418,3.7593,3.7758,3.7923,3.8465,3.8519,3.8529,3.9408,4.0066,4.0606,4.1395,4.24,4.3625,4.5216,4.6332,4.7324,4.8521,4.9302,4.9747,4.9906,5.0357,5.0797,5.1448,5.1719,5.1964,5.2398,5.2805,5.2886,5.2506,5.313,5.3456,5.3076,5.3022,5.3022,5.3022,5.3375,5.3592,5.3592,5.3782,5.408,5.446,5.5142,5.5944,5.6985,5.8308,5.9597,6.0962,6.2193,6.2975,6.3409,6.3835,6.4027,6.3912,6.4326,6.4532,6.4532,6.4532,6.4658,6.4879,6.4879,6.4879,6.5014,6.5459,6.55,6.5279,0.0,0.0,0.0,0.0,0.0,0.0,0.0,0.0,0.0,0.0,0.0,0.0,0.0,0.0,0.0,0.0,0.0,0.0,2.7094,2.8296,2.9323,2.9994,2.9994,2.9994,2.9994,3.045,3.0905,3.1381,3.1816,3.2271,3.2727,3.2727,3.2727,3.2727,3.2789,3.3037,3.3451,3.3927,3.4383,3.4838,3.5252,3.5541,3.5932,3.5974,3.6343,3.6932,3.6975,3.7378,3.8029,3.7549,3.7374,3.7461,3.7964,3.8363,3.8719,3.9556,3.9501,3.9453,4.0907,4.1045,4.1283,4.302,4.3893,4.4642,4.6339,4.6968,4.7493,4.8107,4.8716,4.9391,4.9924,5.0182,5.0715,5.2425,5.2262,5.2316,5.3429,5.3592,5.3592,5.3592,5.3592,5.3592,5.3592,5.3619,5.3646,5.3646,5.3646,5.3646,5.3646,5.4216,5.4541,5.4569,5.6409,5.7696,5.8316,6.0764,6.301,6.4888,6.4888,6.4659,6.4336,6.4658,6.4496,6.4183,6.4524,6.4626,6.4626,6.4626,6.5006,6.5638,6.5638,6.5638,6.571,6.6192,6.598,6.5504,0.0,0.0,0.0,0.0,0.0,0.0,0.0,0.0,0.0,0.0,0.0,0.0,0.0,0.0,0.0,0.0,0.0,0.0,2.7298,2.8018,2.8894,2.9973,2.9994,2.9994,2.9994,3.045,3.0905,3.1381,3.1816,3.2271,3.2727,3.2727,3.2727,3.2768,3.343,3.3782,3.3948,3.4734,3.5148,3.5273,3.5376,3.5541,3.5995,3.6436,3.6666,3.7019,3.7356,3.7816,3.8029,3.7549,3.7616,3.7967,3.8553,3.8731,3.882,3.9927,3.9725,3.9534,4.0655,4.1667,4.2583,4.3335,4.5006,4.6552,4.6917,4.7921,4.8826,4.9414,4.9993,5.0575,5.1206,5.1711,5.2181,5.2642,5.2968,5.3266,5.3565,5.3592,5.3592,5.3592,5.3592,5.3592,5.3592,5.3999,5.4243,5.4243,5.4243,5.4243,5.4243,5.484,5.5508,5.6194,5.7422,5.8604,5.9943,6.2168,6.385,6.4888,6.4888,6.4906,6.5049,6.5343,6.5464,6.5659,6.5975,6.608,6.608,6.608,6.6175,6.6333,6.6333,6.6438,6.6751,6.7234,6.7411,6.7651,0.0,0.0,0.0,0.0,0.0,0.0,0.0,0.0,0.0,0.0,0.0,0.0,0.0,0.0,0.0,0.0,0.0,0.0,0.0,2.7918,2.8773,2.9973,2.9994,3.0098,3.0305,3.0553,3.1008,3.1671,3.1919,3.2271,3.2727,3.2727,3.2727,3.2768,3.3451,3.3762,3.3824,3.4734,3.5128,0.0,0.0,3.5541,3.5748,3.6225,3.6687,3.7053,3.7802,3.8287,3.8671,3.8706,3.883,3.9019,3.9534,3.9601,3.9566,4.0683,4.0558,4.032,4.142,4.256,4.3683,4.4695,4.6013,4.735,4.7828,4.838,4.8865,4.9573,5.0126,5.088,5.189,5.2171,5.2506,5.3022,5.3158,5.3293,5.3565,5.3592,5.3592,5.3592,5.3592,5.3592,5.3592,5.4134,5.4487,5.4487,5.4731,5.4894,5.4894,5.606,5.69,5.7356,5.9273,6.097,6.2391,6.369,6.4487,6.4888,6.4888,6.5108,6.5483,6.5592,6.5947,6.6406,6.6512,6.6617,6.6617,6.6617,6.6617,6.6617,6.6691,6.7078,6.7561,6.8236,6.8732,6.925,0.0,0.0,0.0,0.0,0.0,0.0,0.0,0.0,0.0,2.1397,2.1987,2.2761,2.3601,2.3935,0.0,0.0,0.0,0.0,0.0,0.0,2.894,2.9973,2.9994,3.018,3.0594,3.0657,3.1091,3.194,3.2002,3.2271,3.2727,3.2727,3.2727,3.2747,3.3244,3.3472,3.3534,3.4465,3.4859,3.4879,3.5273,3.5418,3.548,0.0,3.6499,3.7082,3.7992,3.8816,3.9552,4.0338,4.0323,4.0107,4.0554,4.068,4.077,4.1647,4.1511,4.141,4.2546,4.3622,4.4714,4.6291,4.7082,4.7815,4.8849,4.8865,4.8799,4.9626,5.0047,5.08,5.2164,5.2188,5.2398,5.3429,5.3158,5.3022,5.3537,5.3592,5.3592,5.3592,5.3592,5.3619,5.37,5.4243,5.465,5.4704,5.5301,5.56,5.5545,5.7286,5.8428,5.8795,6.1557,6.3532,6.4888,6.4888,6.4888,6.4888,6.4888,6.5187,6.57,6.57,6.6054,6.6617,6.6617,6.6617,6.6617,6.6617,6.6617,6.6617,6.6901,6.7459,6.8304,6.909,6.9855,7.0498,0.0,0.0,0.0,0.0,0.0,0.0,0.0,0.0,0.0,2.0055,2.136,2.2558,2.3367,2.3854,0.0,0.0,0.0,0.0,0.0,0.0,0.0,2.9953,2.9994,3.0036,3.0118,3.0491,3.0946,3.1485,3.1857,3.2271,3.2727,3.2727,3.2727,3.2768,3.3596,3.3948,3.401,3.4921,3.5314,3.5314,3.5397,3.5418,3.5521,3.637,3.6583,0.0,3.8135,3.9214,3.9846,4.0867,4.0643,4.0038,4.0819,4.0954,4.1171,4.1924,4.1761,4.155,4.3055,4.4365,4.5667,4.6884,4.8375,4.9395,4.9403,4.9706,5.0234,5.0934,5.1481,5.2137,5.32,5.3375,5.3375,5.3565,5.351,5.3483,5.3592,5.3592,5.3592,5.3592,5.3592,5.3782,5.4297,5.4894,5.5464,5.5952,5.6549,5.6658,5.617,5.7897,5.9908,6.2025,6.2869,6.3789,6.4888,6.4888,6.4888,6.4888,6.5077,6.5406,6.57,6.5947,6.6299,6.6617,6.6617,6.6617,6.6617,6.6617,6.6617,6.6617,6.6901,6.7561,6.8502,6.9283,7.023,7.1176,0.0,0.0,0.0,0.0,0.0,0.0,0.0,1.79,1.841,1.9377,2.0619,2.1696,2.2449,2.3438,2.3954,0.0,0.0,0.0,0.0,0.0,0.0,2.9953,2.9994,3.0098,3.0346,3.0574,3.1029,3.1712,0.0,3.2271,3.2727,3.2727,3.2727,3.2747,3.341,3.3844,3.4113,3.4797,3.5211,3.5418,3.5418,3.5418,3.55,3.631,3.7065,0.0,3.9198,3.9966,4.033,4.1302,4.1542,4.1661,4.2166,4.1924,4.1683,4.2696,4.2267,4.1851,4.287,4.446,4.6056,4.7208,4.8607,4.9819,4.9996,4.9957,5.0247,5.1186,5.16,5.2176,5.3429,5.3592,5.3592,5.3592,5.4227,5.4309,5.3646,5.4227,5.4309,5.3646,5.3592,5.37,5.3999,5.4867,5.5545,5.5817,5.7267,5.8032,5.7729,5.9908,6.1969,6.3902,6.4158,6.4412,6.4888,6.4888,6.4888,6.4888,6.5187,6.5406,6.57,6.6085,6.6299,6.6617,6.6617,6.6617,6.6617,6.6617,6.6691,6.6901,6.7593,6.8436,6.9442,7.0565,7.1498,7.2432,0.0,0.0,0.0,0.0,0.0,0.0,1.7326,1.7621,1.8127,1.8889,1.9844,2.0704,2.1338,2.2636,2.3438,0.0,0.0,0.0,0.0,0.0,0.0,0.0,2.9932,3.016,3.0532,0.0,0.0,3.1899,3.2002,0.0,0.0,0.0,0.0,0.0,3.3182,3.3575,3.3948,3.4527,3.4962,0.0,0.0,3.5418,3.5459,0.0,0.0,0.0,0.0,4.0397,4.0612,4.1474,4.2207,4.3065,4.3437,4.2926,4.2267,4.3078,4.2765,4.2212,4.2835,4.4587,4.6426,4.7507,4.8937,4.9987,5.039,5.034,5.0472,5.1304,5.1691,5.2269,5.3429,5.3592,5.3592,5.3713,5.4578,5.4836,5.3915,5.4605,5.4836,5.3767,5.37,5.3836,5.3972,5.5196,5.6003,5.6139,5.8435,5.9957,5.9957,6.1851,6.3532,6.4888,6.4888,6.4888,6.4888,6.4888,6.4888,6.4998,6.5297,6.5515,6.5808,6.6192,6.6406,6.6617,6.6617,6.6617,6.6586,6.6723,6.6901,6.7388,6.8236,6.9283,7.0381,7.1761,7.2686,7.3415,0.0,0.0,0.0,0.0,0.0,0.0,1.7326,1.7326,1.756,1.8316,1.9275,2.0032,2.0215,2.1709,2.282,0.0,0.0,0.0,0.0,0.0,0.0,0.0,0.0,0.0,0.0,0.0,0.0,3.1443,3.1836,0.0,0.0,0.0,0.0,0.0,0.0,3.341,3.3492,3.4383,0.0,0.0,0.0,0.0,0.0,0.0,0.0,0.0,0.0,3.9508,4.0389,4.1107,4.1851,4.2477,4.3322,4.3566,4.3298,4.265,4.2616,4.2915,4.3763,4.5218,4.6911,4.8309,4.9742,5.0752,5.0751,5.1508,5.2204,5.1809,5.2696,5.3483,5.3565,5.3592,5.3713,5.3954,5.4129,5.4129,5.4074,5.4129,5.4008,5.3592,5.408,5.4623,5.5193,5.6693,5.7896,5.8675,6.1051,6.2553,6.2553,6.2784,6.3532,6.4888,6.4888,6.4888,6.4888,6.4888,6.4998,6.5297,6.5483,6.5839,6.6192,6.6406,6.6617,6.6617,6.6617,6.6617,6.6617,6.6901,6.7356,6.8104,6.8634,6.976,7.1176,7.1935,7.2686,7.3415,0.0,0.0,0.0,0.0,0.0,0.0,1.7326,1.7326,1.756,1.84,1.9094,1.9651,2.0231,2.1011,2.1725,2.2316,0.0,0.0,0.0,0.0,0.0,0.0,0.0,0.0,0.0,0.0,3.0491,3.0967,3.1422,0.0,0.0,0.0,0.0,0.0,0.0,3.3285,3.3824,3.4196,0.0,0.0,0.0,0.0,0.0,0.0,0.0,0.0,0.0,0.0,4.0626,4.1324,4.2267,4.3008,4.2916,4.3229,4.3543,4.3229,4.2951,4.2995,4.3938,4.5351,4.6934,4.8027,4.9367,5.0228,5.0339,5.0963,5.1656,5.1819,5.2479,5.3185,5.3537,5.3592,5.3592,5.3833,5.4616,5.4966,5.3888,5.4616,5.4846,5.3767,5.4107,5.4815,5.5673,5.7049,5.872,6.1019,6.2233,6.3273,6.4015,6.4158,6.4382,6.4888,6.4888,6.4888,6.4888,6.4888,6.4998,6.5297,6.5592,6.5839,6.6224,6.6512,6.6617,6.6617,6.6617,6.6617,6.6723,6.7356,6.7935,6.8502,6.976,7.0724,7.1566,7.2347,7.297,7.3334,0.0,0.0,0.0,0.0,0.0,1.7355,1.7457,1.7399,1.7654,1.8498,1.8996,1.9552,2.0333,2.0719,2.1011,2.142,2.2232,0.0,0.0,0.0,0.0,0.0,0.0,0.0,0.0,2.9994,3.0222,3.0677,3.1008,3.1464,0.0,0.0,3.2602,3.2727,0.0,0.0,0.0,0.0,0.0,0.0,0.0,0.0,0.0,0.0,0.0,0.0,0.0,0.0,0.0,0.0,0.0,4.3055,4.2454,4.2696,4.3252,4.3252,4.3101,4.3075,4.3802,4.5183,4.6806,4.7866,4.8972,4.9943,5.0297,5.0682,5.1213,5.1711,5.2289,5.2886,5.3483,5.3592,5.3592,5.3713,5.4671,5.5049,5.4036,5.4819,5.5169,5.4008,5.4542,5.5346,5.6409,5.8228,6.0316,6.2814,6.3304,6.3902,6.4888,6.4888,6.4888,6.4888,6.4888,6.4888,6.4888,6.4888,6.5108,6.5406,6.5592,6.5947,6.6299,6.6512,6.6617,6.6586,6.6691,6.6796,6.7005,6.7935,6.8699,6.9283,7.0724,7.1566,7.2038,7.272,7.317,7.3334,0.0,0.0,0.0,0.0,0.0,1.7443,1.7765,1.7734,1.7859,1.8218,1.8996,1.9636,2.001,2.0601,2.0925,2.0925,2.1623,0.0,0.0,0.0,0.0,0.0,0.0,0.0,0.0,0.0,3.0222,3.0677,3.0698,3.1153,3.2043,3.2043,3.2292,3.2727,0.0,0.0,0.0,0.0,0.0,0.0,0.0,0.0,3.6465,0.0,0.0,0.0,0.0,0.0,0.0,0.0,0.0,0.0,0.0,4.2339,4.2339,4.2339,4.2846,4.3326,4.3326,4.4792,4.6648,4.8125,4.8946,4.9758,5.1052,5.1304,5.1449,5.1711,5.2289,5.2886,5.3483,5.3592,5.3713,5.4074,5.4074,5.4221,5.4607,5.4607,5.4607,5.4607,5.5414,5.6347,5.7598,6.0823,6.3273,6.427,6.4635,6.4888,6.4888,6.4888,6.4888,6.4888,6.4888,6.4888,6.4888,6.4888,6.5187,6.57,6.57,6.6023,6.6617,6.6617,6.6617,6.6617,6.6901,6.7317,6.7797,6.8535,6.9666,7.0815,7.1389,7.2038,7.2671,7.2922,7.317,7.3334,0.0,0.0,0.0,0.0,0.0,0.0,1.8057,1.806,1.8282,1.9055,1.9545,2.0015,2.0554,2.0822,2.0925,2.0925,2.1113,0.0,0.0,0.0,0.0,0.0,0.0,0.0,0.0,2.8475,2.866,2.9033,2.9331,3.0008,3.1014,3.134,3.1726,3.2018,3.2018,3.1948,0.0,0.0,0.0,0.0,3.4631,3.5512,3.5809,0.0,0.0,0.0,0.0,0.0,0.0,0.0,0.0,0.0,0.0,0.0,0.0,4.2339,4.2822,4.3451,4.3802,4.5159,4.6591,4.7667,4.8472,4.9213,4.9979,5.0443,5.099,5.1629,5.2289,5.2886,5.3483,5.3592,5.3592,5.3713,5.3954,5.4194,5.4194,5.5031,5.5547,5.5547,5.7055,5.866,5.9888,6.1834,6.3334,6.4351,6.4746,6.4888,6.4888,6.4888,6.4888,6.4888,6.4888,6.4888,6.4888,6.5108,6.5406,6.57,6.5947,6.6299,6.6617,6.6617,6.6691,6.6901,6.7285,6.7695,6.8201,6.9571,7.0415,7.0872,7.1951,7.2501,7.2755,7.2922,7.317,7.3334,0.0,0.0,0.0,0.0,0.0,0.0,1.8394,1.84,1.8581,1.9235,1.9698,2.0124,2.057,2.0822,2.0925,2.0925,2.0925,0.0,0.0,0.0,0.0,0.0,0.0,0.0,2.7477,2.763,2.7941,2.8067,2.8555,2.9015,2.9668,3.0102,3.065,3.1067,3.1245,3.1113,0.0,0.0,0.0,0.0,3.4104,3.498,3.5809,0.0,0.0,0.0,0.0,0.0,0.0,0.0,0.0,0.0,0.0,0.0,0.0,0.0,4.2706,4.3215,4.3755,4.5159,4.6661,4.7581,4.8446,4.9178,4.9966,5.0243,5.054,5.1367,5.1964,5.2561,5.3158,5.3456,5.3592,5.3713,5.3833,5.4156,5.4828,5.5575,5.6269,5.6971,5.8609,6.003,6.0871,6.2233,6.3312,6.4064,6.4377,6.4611,6.4888,6.4888,6.4888,6.4888,6.4888,6.4998,6.5108,6.5187,6.5515,6.5947,6.6085,6.6299,6.6617,6.6617,6.6691,6.7005,6.7695,6.8301,0.0,7.0356,7.1086,7.1444,7.2382,7.2755,7.2838,7.2922,7.317,7.3496,0.0,0.0,0.0,0.0,0.0,0.0,0.0,1.8755,1.8766,1.889,1.9527,2.0054,2.0158,2.0601,2.0925,2.0925,2.0925,0.0,0.0,0.0,0.0,0.0,0.0,0.0,2.6692,2.7302,2.7618,2.7726,2.796,2.8064,2.8028,2.8668,2.9315,2.9757,3.018,3.0157,0.0,0.0,0.0,0.0,3.2754,3.4004,0.0,0.0,0.0,0.0,0.0,0.0,0.0,0.0,0.0,0.0,0.0,0.0,0.0,0.0,0.0,0.0,0.0,4.4988,4.6951,4.7846,4.889,4.9832,5.0601,5.0417,0.0,5.077,5.1394,5.2018,5.2615,5.3185,5.3713,5.4074,5.3833,5.4266,5.6164,5.6241,5.6852,5.8459,5.9768,6.0678,6.0843,6.2008,6.3071,6.3718,6.3841,6.418,6.4795,6.4857,6.4888,6.4888,6.4888,6.5108,6.5297,6.5297,6.5654,6.6192,6.6192,6.6406,6.6617,6.6617,6.6796,6.7109,6.7899,6.8765,6.9827,7.0849,7.1654,7.2331,7.2586,7.2838,7.3005,7.3005,7.3334,7.3692,0.0,0.0,0.0,0.0,0.0,0.0,0.0,0.0,0.0,0.0,1.9979,2.0436,2.0395,2.0719,2.0925,0.0,0.0,0.0,0.0,0.0,0.0,0.0,0.0,0.0,2.5522,2.5684,2.599,2.6554,2.6336,2.6646,2.7364,2.7902,2.8443,2.9085,2.9479,2.9431,0.0,0.0,0.0,0.0,3.2371,3.3394,0.0,0.0,0.0,0.0,3.7558,3.852,0.0,0.0,0.0,0.0,0.0,0.0,0.0,0.0,4.2677,4.344,4.3402,0.0,4.6636,4.7833,4.86,4.9381,0.0,5.0118,5.0173,5.077,5.1394,5.2018,5.2615,5.3185,5.3713,5.4074,5.3833,5.4266,5.6164,5.745,5.8171,5.8427,5.9306,6.0082,6.0872,6.1929,6.2672,6.3041,6.4057,6.4487,6.4087,6.4611,6.4888,6.4888,6.5108,6.5187,6.5297,6.5762,6.6085,6.6192,6.6406,6.6512,6.6617,6.6617,6.6901,6.742,6.8369,6.9156,6.986,7.1244,7.1898,7.2072,7.2501,7.2838,7.3005,7.317,7.3415,7.3692,0.0,0.0,0.0,0.0,0.0,0.0,0.0,0.0,0.0,0.0,1.9998,2.0308,2.0308,2.0719,2.0925,0.0,0.0,0.0,0.0,0.0,0.0,0.0,0.0,2.3874,2.4615,2.5051,2.5459,2.5898,2.5789,2.5896,2.6313,2.6857,2.7368,2.8016,2.8818,2.9094,0.0,0.0,3.0054,3.0926,3.1886,0.0,0.0,0.0,0.0,0.0,3.7011,3.8045,0.0,3.9671,4.0548,4.1535,0.0,0.0,0.0,0.0,4.295,4.3593,4.4378,4.5665,4.6968,4.7912,4.8753,4.9469,4.9897,5.0227,5.0525,5.0824,5.1394,5.2018,5.2615,5.3087,5.3653,5.4286,5.4314,5.4745,5.6164,5.7825,5.8874,5.9132,5.9771,6.0635,6.1709,6.1981,6.2396,6.3225,6.3687,6.3903,6.3841,6.421,6.4272,6.3964,6.4646,6.5173,6.5483,6.5978,6.6299,6.6406,6.6512,6.6691,6.6796,6.6796,6.7213,6.8,6.8732,6.9604,7.0482,7.1546,7.2159,7.2331,7.2586,7.2922,7.317,7.3252,7.3496,7.3852,0.0,0.0,0.0,0.0,0.0,0.0,0.0,0.0,0.0,0.0,0.0,0.0,0.0,0.0,0.0,0.0,0.0,0.0,0.0,0.0,0.0,0.0,2.2733,2.3593,2.4175,2.4763,2.5348,2.5569,2.5569,2.5459,2.5238,2.5863,2.653,2.7089,2.841,2.8975,2.8975,2.8975,3.0054,3.152,3.1275,0.0,0.0,0.0,0.0,0.0,0.0,0.0,0.0,3.9327,4.0272,4.1374,4.0869,0.0,0.0,0.0,0.0,0.0,4.5206,4.6491,4.7545,4.8055,4.8868,4.9556,4.9897,5.0417,5.0797,5.0878,5.1312,5.1909,5.2588,5.3052,5.3508,5.4497,5.4901,5.5423,5.617,5.7683,5.8971,5.9912,6.0554,6.1416,6.2656,6.2257,6.2394,6.3441,6.3071,6.301,6.3502,6.3626,6.341,6.2825,6.4022,6.4795,6.5495,6.596,6.6406,6.6617,6.6617,6.6691,6.7005,6.7109,6.7695,6.86,6.9156,7.0076,7.121,7.181,7.2245,7.2671,7.2755,7.3005,7.3334,7.3334,7.3657,7.401,0.0,0.0,0.0,0.0,0.0,0.0,0.0,0.0,0.0,0.0,0.0,0.0,0.0,0.0,0.0,0.0,0.0,0.0,0.0,0.0,0.0,2.1725,2.2942,2.3926,2.4576,2.481,2.5034,2.5221,2.5034,2.5034,2.5238,2.5639,2.654,2.7831,2.8655,2.8975,2.8975,2.8975,2.9693,3.0926,3.1172,0.0,0.0,0.0,0.0,0.0,0.0,0.0,0.0,3.9094,4.002,4.0846,4.0341,0.0,0.0,0.0,0.0,0.0,4.4595,4.6679,4.8721,4.851,4.8868,4.9354,4.9897,5.0091,5.0281,5.0797,5.096,5.151,5.2861,5.317,5.3508,5.4497,5.5353,5.5758,5.5693,5.6914,5.8365,5.9277,6.0027,6.1088,6.2354,6.2609,6.2517,6.2148,6.2548,6.261,6.2148,6.2671,6.3025,6.3145,6.3587,6.3996,6.4298,6.5807,6.6617,6.6617,6.6617,6.6691,6.7005,6.7491,6.8,6.8699,6.9541,7.0389,7.0973,7.1722,7.2245,7.2671,7.2922,7.3252,7.3692,7.3692,7.3772,7.401,0.0,0.0,0.0,0.0,0.0,0.0,0.0,0.0,0.0,0.0,0.0,0.0,0.0,0.0,0.0,0.0,0.0,0.0,0.0,0.0,2.2009,2.2511,2.3283,2.3874,2.4136,2.4631,2.5034,2.5459,2.5128,2.5128,2.5459,2.6074,2.7018,2.8173,2.881,2.8975,2.8975,2.8975,2.9684,3.0728,0.0,0.0,0.0,0.0,0.0,0.0,0.0,0.0,0.0,0.0,4.0203,4.0778,4.0768,0.0,0.0,0.0,0.0,0.0,4.5132,4.6585,4.8106,4.8458,5.0013,5.1391,5.1873,5.2484,5.2955,5.2669,5.2945,5.3358,5.3819,5.3654,5.3744,5.4706,5.5158,5.5569,5.5641,5.6609,5.7854,5.9211,6.0185,6.1216,6.2433,6.2426,6.2302,6.2364,6.2302,6.2148,6.184,6.2223,6.2328,6.2167,6.2955,6.364,6.4089,6.5511,6.6257,6.6048,6.6533,6.7109,6.7695,6.8101,6.8797,6.9637,7.0296,7.0882,7.1512,7.2159,7.2586,7.2922,7.3088,7.3415,7.3692,7.3852,7.4088,7.4322,0.0,0.0,0.0,0.0,0.0,0.0,0.0,0.0,0.0,0.0,0.0,0.0,0.0,0.0,0.0,0.0,0.0,0.0,0.0,2.1522,2.2125,2.2984,2.3436,2.3768,2.4029,2.4614,2.5145,2.5679,2.5459,2.5459,2.5806,2.6721,2.7488,2.826,2.8773,2.8975,2.8993,2.9094,2.9692,3.0566,0.0,0.0,0.0,0.0,0.0,0.0,0.0,0.0,0.0,0.0,0.0,0.0,0.0,0.0,0.0,4.2848,4.3599,4.467,4.5646,4.6711,4.7859,4.8912,5.0743,5.2459,5.2714,5.358,5.4079,5.368,5.4129,5.4574,5.4552,5.4193,5.4145,5.4825,5.479,5.4998,5.5933,5.6562,5.7571,5.9666,6.0556,6.1498,6.2687,6.221,6.2025,6.2548,6.1963,6.1656,6.1915,6.2124,6.2074,6.1908,6.2692,6.3429,6.4192,6.5243,6.579,6.5931,6.6855,6.7593,6.8301,6.8797,6.9541,7.0608,7.0973,7.1423,7.2072,7.2501,7.2838,7.3088,7.3334,7.3577,7.3852,7.3975,7.4287,7.4669,0.0,0.0,0.0,0.0,0.0,0.0,0.0,0.0,0.0,0.0,0.0,0.0,0.0,0.0,0.0,0.0,0.0,0.0,0.0,2.142,2.1907,2.2319,2.3195,2.4115,2.5133,2.5203,2.5348,2.5679,2.5679,2.5789,2.6136,2.7155,2.7783,2.7838,2.8627,2.8975,2.8975,2.9331,2.993,3.0705,3.1347,0.0,0.0,0.0,0.0,0.0,0.0,0.0,0.0,0.0,0.0,0.0,0.0,0.0,4.1915,4.2231,4.2927,4.4038,4.5764,4.7539,4.9206,5.0424,5.033,4.9918,5.0259,5.0313,5.0694,5.1782,5.2493,5.3315,5.4386,5.4552,5.4643,5.4908,5.4314,5.4405,5.648,5.6737,5.7873,6.0542,6.1203,6.1691,6.2764,6.221,6.184,6.1871,6.1255,6.1267,6.2198,6.2259,6.282,6.3828,6.3398,6.3531,6.45,6.4767,6.5638,6.6942,6.7663,6.8301,6.86,6.9541,7.0296,7.0882,7.1334,7.1864,7.2331,7.2586,7.2922,7.3334,7.3577,7.3896,7.4287,7.4287,7.4517,7.4894,0.0,0.0,0.0,0.0,0.0,0.0,0.0,0.0,0.0,0.0,0.0,0.0,0.0,0.0,0.0,0.0,0.0,0.0,0.0,2.1522,2.2092,2.2917,2.3597,2.4454,2.5441,2.5331,2.5331,2.5679,2.5898,2.637,2.7212,2.7391,2.7925,2.8535,2.8847,2.9094,2.9331,2.945,3.0016,3.0779,3.1084,3.2113,0.0,0.0,0.0,0.0,0.0,0.0,0.0,0.0,3.9905,4.014,4.0194,4.0994,4.1751,4.1781,4.2856,4.4399,4.5673,4.7522,4.9223,4.9852,5.0286,5.0764,5.1958,5.2542,5.2848,5.2701,5.3541,5.4352,5.4497,5.5242,5.5472,5.4873,5.479,5.5233,5.6594,5.747,5.8555,6.0213,6.0774,6.1182,6.1532,6.1317,6.1194,6.1194,6.0948,6.102,6.1371,6.1681,6.2112,6.2567,6.2651,6.3173,6.4102,6.4784,6.5464,6.6209,6.696,6.7752,6.8369,6.8975,6.972,7.069,7.1518,7.2072,7.2331,7.2755,7.3088,7.3334,7.3737,7.4088,7.4287,7.4287,7.4593,7.4894,0.0,0.0,0.0,0.0,0.0,0.0,0.0,0.0,0.0,0.0,0.0,0.0,0.0,0.0,0.0,0.0,0.0,0.0,2.1274,2.1702,2.2341,2.3285,2.3853,2.4576,2.5551,2.5459,2.5569,2.6026,2.6136,2.67,2.7581,2.7482,2.79,2.881,2.892,2.9213,2.9568,2.9568,3.0039,3.0762,3.1309,3.2217,0.0,0.0,0.0,0.0,0.0,0.0,0.0,0.0,3.9813,3.9933,4.0194,4.0784,4.1304,4.1638,4.295,4.4655,4.5927,4.7574,4.9045,4.9783,5.0348,5.1015,5.2519,5.3022,5.3017,5.2567,5.337,5.4346,5.4734,5.5311,5.5603,5.4964,5.5379,5.6193,5.7049,5.8055,5.8931,5.9986,6.0512,6.0794,6.0794,6.0794,6.0794,6.0794,6.0794,6.099,6.1413,6.1752,6.2121,6.2543,6.2657,6.3209,6.4207,6.4761,6.5282,6.5901,6.6516,6.7296,6.8148,6.8677,6.957,7.0806,7.1404,7.2039,7.2501,7.2922,7.3252,7.3577,7.3817,7.4132,7.4364,7.4364,7.4669,7.4968,0.0,0.0,0.0,0.0,0.0,0.0,0.0,0.0,0.0,0.0,0.0,0.0,0.0,0.0,0.0,0.0,0.0,0.0,2.1417,2.1973,2.2617,2.3326,2.3905,2.4511,2.5221,2.5569,2.6026,2.6591,2.6591,2.6793,2.7196,2.7581,2.8003,2.8407,2.881,2.9213,2.9568,2.9804,3.0157,3.0547,3.1918,3.2713,3.3276,0.0,0.0,0.0,0.0,0.0,0.0,0.0,3.9308,3.9308,3.9684,4.0013,4.0434,4.1852,4.3211,4.4611,4.6662,4.7886,4.893,5.0544,5.046,5.0123,5.0795,5.046,5.0173,5.077,5.1625,5.2883,5.4775,5.4846,5.4765,5.5383,5.6049,5.6851,5.7974,5.8495,5.9039,6.0272,6.0586,6.0794,6.0794,6.0794,6.0794,6.0794,6.0794,6.1309,6.2643,6.2674,6.3295,6.4468,6.3836,6.3906,6.4875,6.4537,6.4996,6.6418,6.6737,6.7208,6.7911,6.8958,7.0089,7.1232,7.1232,7.1729,7.2755,7.317,7.3577,7.401,7.401,7.4209,7.4593,7.4593,7.4819,7.5225,0.0,0.0,0.0,0.0,0.0,0.0,0.0,0.0,0.0,0.0,0.0,0.0,0.0,0.0,0.0,0.0,0.0,0.0,2.1274,2.1931,2.2606,2.3285,2.4093,2.4855,2.5569,2.6026,2.6482,2.6591,2.6866,2.7196,2.76,2.8022,2.8425,2.881,2.9157,2.9568,2.9804,3.0626,3.1386,3.229,3.3207,3.4253,3.5311,0.0,0.0,0.0,0.0,0.0,0.0,0.0,0.0,0.0,3.9684,4.0013,4.0364,4.1401,4.3037,4.4885,4.6294,4.8037,4.9729,5.0123,5.046,5.0572,5.0348,5.0123,5.0173,5.077,5.1829,5.2724,5.311,5.4506,5.545,5.5223,5.6307,5.7611,5.8415,5.9099,5.9743,6.0377,6.0586,6.0794,6.0794,6.0794,6.0794,6.0794,6.1,6.1196,6.1619,6.2027,6.2323,6.2714,6.2925,6.3221,6.3738,6.4319,6.4802,6.5232,6.6127,6.7206,6.8216,6.8484,6.9504,7.0977,7.0977,7.1644,7.2755,7.3005,7.3252,7.3496,7.3772,7.4132,7.4593,7.4593,7.4819,7.5225,0.0,0.0,0.0,0.0,0.0,0.0,0.0,0.0,0.0,0.0,2.0514,2.0719,0.0,0.0,0.0,0.0,0.0,0.0,2.1723,2.2264,2.2945,2.3661,2.435,2.5011,2.5679,2.6245,2.6664,2.683,2.7068,2.7471,2.8022,2.8278,2.8608,2.8975,2.9331,2.9804,3.0255,3.0859,3.1933,3.3176,3.3796,3.4889,3.6221,0.0,0.0,0.0,0.0,0.0,0.0,0.0,0.0,0.0,3.9684,4.0013,4.0481,4.1921,4.353,4.5233,4.6811,4.855,4.987,5.0235,5.046,5.046,5.0123,5.001,5.0118,5.0471,5.1167,5.1724,5.1741,5.3524,5.5083,5.5197,5.6665,5.8119,5.8822,5.956,6.0092,6.0377,6.0586,6.0794,6.0794,6.0794,6.0794,6.0897,6.1103,6.1308,6.1512,6.1815,6.2016,6.2116,6.2612,6.2905,6.3228,6.3934,6.4474,6.4976,6.5973,6.7079,6.8345,6.8398,6.9237,7.0652,7.1319,7.2088,7.2838,7.2922,7.317,7.3496,7.3692,7.4053,7.4593,7.4593,7.4819,7.5225,0.0,0.0,1.5694,1.6304,0.0,0.0,0.0,0.0,0.0,0.0,2.0719,2.0822,0.0,0.0,0.0,0.0,0.0,0.0,2.229,2.2724,2.3395,2.43,2.4684,2.5145,2.5679,2.6281,2.683,2.7233,2.7233,2.7636,2.8388,2.8425,2.8645,2.9094,2.945,3.002,3.082,3.0995,3.2089,3.3568,3.3959,3.5072,3.6459,3.731,0.0,0.0,0.0,0.0,0.0,0.0,0.0,0.0,3.9684,4.0013,4.0761,4.2964,4.4336,4.563,4.7922,4.9072,4.9783,5.0572,5.046,5.001,5.001,5.001,5.001,5.001,5.001,5.0173,5.0715,5.2296,5.3937,5.5192,5.6916,5.8428,5.9349,5.9743,6.0092,6.0377,6.069,6.0794,6.0794,6.0794,6.0897,6.1206,6.1206,6.141,6.2016,6.2016,6.2116,6.2414,6.271,6.2905,6.3228,6.3517,6.424,6.5336,6.6055,6.7012,6.8166,6.8402,6.9062,7.0031,7.1759,7.2631,7.2797,7.2797,7.3078,7.3587,7.3587,7.4018,7.4593,7.4593,7.4819,7.5225,0.0,0.0,1.5565,1.6781,0.0,0.0,0.0,0.0,0.0,0.0,0.0,0.0,0.0,0.0,0.0,0.0,0.0,0.0,0.0,2.3145,2.3762,2.4241,2.5081,2.5679,2.6026,2.6664,2.7233,2.7636,2.7636,2.7893,2.8407,2.8718,2.902,2.945,2.9686,3.0274,3.1228,3.2383,3.3609,3.4774,3.5746,3.6837,3.7963,3.8201,3.8625,0.0,0.0,0.0,0.0,0.0,0.0,0.0,3.9684,4.0363,4.1249,4.2895,4.4593,4.6202,4.7806,4.8842,4.967,5.0123,5.0123,5.001,5.001,5.001,5.001,5.001,5.001,5.0064,5.0173,5.2017,5.3652,5.3909,5.6329,5.8384,5.9062,5.9652,6.0197,6.069,6.0794,6.0794,6.0794,6.0794,6.0897,6.1206,6.141,6.1714,6.2016,6.2216,6.2315,6.2446,6.2808,6.3131,6.3228,6.3707,6.4272,6.4885,6.5525,6.6209,6.6846,6.7912,6.8671,6.9207,7.0381,7.0877,7.0959,7.0959,7.155,7.2544,7.2544,7.337,7.4593,7.4593,7.4819,7.5225,0.0,0.0,0.0,0.0,0.0,0.0,0.0,0.0,0.0,0.0,0.0,0.0,0.0,0.0,0.0,0.0,0.0,0.0,0.0,2.3486,2.4098,2.4706,2.5353,2.5789,2.6118,2.6847,2.7361,2.7765,2.7967,2.8278,2.8682,2.8883,2.9213,2.9568,2.9804,3.0723,3.2089,3.2574,3.4022,3.5833,3.609,3.6881,3.8118,3.8118,3.8596,3.9049,3.9049,0.0,0.0,0.0,0.0,0.0,0.0,0.0,4.1456,4.3597,4.5055,4.643,4.8294,4.9213,4.967,4.9897,5.001,5.001,5.001,5.001,5.001,5.001,5.001,5.0123,5.0544,5.2012,5.3303,5.405,5.5866,5.7528,5.8684,5.9183,5.9832,6.0555,6.069,6.0794,6.0794,6.0794,6.1,6.141,6.1481,6.1784,6.2116,6.2315,6.2446,6.2446,6.2937,6.3228,6.3228,6.3707,6.4365,6.5066,6.5481,6.6148,6.7112,6.8144,6.8939,6.9645,7.0222,7.0601,7.0912,7.0912,7.1607,7.2707,7.2359,7.2906,7.4062,7.4027,7.4251,7.4689,0.0,0.0,0.0,0.0,0.0,0.0,0.0,0.0,0.0,0.0,0.0,0.0,0.0,0.0,0.0,0.0,0.0,0.0,0.0,2.3754,2.4395,2.5308,2.5675,2.6042,2.6334,2.7066,2.7545,2.7875,2.8297,2.8663,2.9094,2.9094,2.9213,2.9568,3.0116,3.125,3.2977,3.2888,3.4286,3.6535,3.609,3.6675,3.7878,3.7998,3.8358,3.893,3.893,3.9049,3.9308,3.9308,0.0,0.0,0.0,0.0,4.1801,4.4267,4.5437,4.6552,4.8866,4.9556,4.9783,5.001,5.001,5.001,5.001,5.001,5.001,5.0235,5.0235,5.0432,5.1183,5.2193,5.3222,5.4515,5.556,5.6659,5.8083,5.8728,5.9271,6.0132,6.0524,6.0794,6.0897,6.0897,6.1103,6.1582,6.1683,6.1916,6.2315,6.2446,6.2414,6.2414,6.2937,6.3228,6.3228,6.3707,6.4458,6.5336,6.5713,6.6576,6.7879,6.8498,6.9232,6.998,6.998,7.0325,7.0912,7.0912,7.1711,7.2881,7.2255,7.2626,7.3637,7.3602,7.3825,7.4332,0.0,0.0,0.0,0.0,0.0,0.0,0.0,0.0,0.0,0.0,1.9049,1.8945,0.0,0.0,0.0,0.0,0.0,0.0,2.336,0.0,0.0,2.6046,2.6175,2.6673,2.76,2.8022,2.826,2.8315,2.8718,2.9039,2.945,2.945,2.9568,2.9941,3.1112,3.2371,3.341,3.4749,3.5648,3.6362,3.6927,3.7385,3.7878,3.8261,3.8716,3.919,3.919,3.9308,3.9308,3.9308,3.9308,0.0,0.0,0.0,4.2233,4.4152,4.5294,4.6415,4.8558,4.9556,5.001,5.0375,5.0263,5.0123,5.0375,5.0263,5.0235,5.0962,5.1072,5.1183,5.1293,5.2594,5.3815,5.4036,5.5264,5.6329,5.6817,5.8122,5.9088,5.949,6.0218,6.0897,6.1103,6.1134,6.141,6.1916,6.1916,6.2116,6.2414,6.2446,6.2513,6.271,6.3002,6.3325,6.3484,6.3802,6.4272,6.4793,6.6095,6.7195,6.8083,6.8108,6.829,6.8394,6.8394,6.8463,6.8532,6.8532,6.9669,7.1385,7.128,7.2598,7.4452,7.4452,7.4677,7.5082,0.0,0.0,0.0,0.0,0.0,0.0,0.0,0.0,0.0,0.0,0.0,1.9204,0.0,0.0,0.0,2.2129,2.2525,2.3113,2.4115,2.4692,2.5302,2.6246,2.6477,2.7014,2.7765,2.8187,2.8388,2.8388,2.8792,2.9213,2.945,2.9686,3.0039,3.0528,3.1289,3.2572,3.4156,3.4791,3.5853,3.6828,3.7025,3.755,3.8254,3.7989,3.8537,3.946,3.8948,3.8953,3.9308,3.9308,3.9308,3.9426,4.0223,0.0,0.0,0.0,4.5788,4.7601,4.9147,4.9783,5.0123,5.0402,5.0375,5.0375,5.0515,5.0375,5.046,5.1183,5.1731,5.2164,5.2701,5.3366,5.4023,5.4539,5.5215,5.5951,5.6718,5.7466,5.8339,5.9481,5.9952,6.0496,6.1175,6.1206,6.141,6.1916,6.2016,6.2116,6.2446,6.2446,6.2513,6.2808,6.3002,6.3325,6.358,6.3897,6.4518,6.5481,6.6779,6.7604,6.8083,6.8083,6.8083,6.8083,6.8083,6.8359,6.8773,6.8773,6.9554,7.0878,7.0958,7.1925,7.3204,7.3704,7.4145,7.4618,0.0,0.0,0.0,0.0,0.0,0.0,0.0,0.0,0.0,0.0,0.0,0.0,0.0,0.0,0.0,0.0,2.2892,2.3546,2.4709,2.5206,2.5787,2.6548,2.6964,2.7391,2.8077,2.8388,2.8535,2.8535,2.8947,2.9331,2.9568,2.9917,3.0428,3.1269,3.1801,3.3092,3.4854,3.5198,3.6003,3.711,3.7134,3.7725,3.8442,3.7945,3.8519,3.9515,3.8777,0.0,0.0,0.0,3.9308,3.9661,4.0571,4.1759,0.0,0.0,0.0,4.8466,4.9459,4.9788,5.015,5.0791,5.0736,5.0654,5.1127,5.1044,5.1045,5.1839,5.2516,5.3155,5.4126,5.423,5.4436,5.5078,5.5179,5.546,5.6446,5.6758,5.7446,5.896,5.9461,6.0095,6.0998,6.1215,6.1512,6.2016,6.2116,6.2216,6.2414,6.2414,6.2612,6.2905,6.3099,6.3421,6.3707,6.4146,6.4943,6.6095,6.7277,6.7879,6.8083,6.8083,6.8083,6.8083,6.8083,6.8428,6.898,6.898,6.9589,7.0486,7.0645,7.1357,7.2423,7.3102,7.3754,7.4368,0.0,0.0,0.0,0.0,0.0,0.0,0.0,0.0,0.0,0.0,0.0,0.0,2.0816,2.1383,2.1914,2.2812,2.3245,2.3811,2.4838,2.5247,2.603,2.7346,2.775,0.0,2.892,2.8938,2.8957,2.8957,2.9313,2.9568,2.9941,3.0319,3.0988,3.1979,3.335,3.4419,3.536,3.663,3.6967,3.6566,3.7955,3.8297,3.8218,3.8809,0.0,0.0,0.0,0.0,0.0,0.0,0.0,4.0036,4.1148,4.1972,4.2887,0.0,0.0,0.0,4.8722,4.9351,5.0372,5.1849,5.1348,5.096,5.2958,5.2509,5.2113,5.3471,5.3785,5.4126,5.4976,5.5078,5.5179,5.5179,5.5179,5.5209,5.5239,5.6083,5.6809,5.7072,5.8502,5.9676,6.0515,6.1208,6.1815,6.2315,6.2347,6.2446,6.2446,6.2612,6.2905,6.3131,6.3421,6.3707,6.4024,6.5033,6.5834,6.6095,6.7277,6.7879,6.8083,6.8083,6.8083,6.8083,6.8083,6.8118,6.8152,6.8152,6.8873,6.9958,6.9958,7.1371,7.3319,7.339,7.4109,7.5046,0.0,0.0,0.0,0.0,0.0,0.0,0.0,0.0,0.0,0.0,0.0,0.0,0.0,2.2054,2.2831,2.35,2.4278,2.4986,2.5473,2.6076,2.6801,2.7417,2.8038,2.8491,2.8975,2.8975,2.9094,2.9331,2.945,2.9817,3.0319,3.0691,3.1657,3.3195,3.37,3.4348,3.526,3.6596,3.6911,3.6832,3.8043,3.8785,3.8927,3.8596,0.0,0.0,0.0,0.0,0.0,0.0,0.0,0.0,4.1561,4.2823,4.4231,4.6273,4.7562,4.8439,4.9153,4.9621,5.0177,5.0958,5.1376,5.1766,5.2371,5.2675,5.3109,5.3768,5.3919,5.4126,5.5078,5.5179,5.5179,5.5179,5.5179,5.528,5.5381,5.5792,5.6295,5.712,5.7809,5.8723,6.0222,6.0501,6.1145,6.2085,6.2116,6.2315,6.2612,6.2612,6.271,6.3228,6.3325,6.3517,6.4024,6.5303,6.6009,6.6095,6.736,6.8004,6.8083,6.8083,6.8083,6.8083,6.8083,6.8083,6.8083,6.8083,6.8335,6.8803,6.9602,7.0902,7.2418,7.3138,7.3825,7.4404,0.0,0.0,0.0,1.7077,0.0,1.7836,1.9198,1.9348,1.9693,2.0778,0.0,0.0,0.0,0.0,2.3683,2.4494,2.4842,2.549,2.6213,2.6824,2.7388,2.7866,2.8372,2.8755,2.8975,2.8965,2.9083,2.945,2.9568,3.0011,3.0648,3.1073,3.2226,3.3779,3.4043,3.4738,3.5855,3.666,3.7032,3.6975,3.8486,3.9299,3.9543,0.0,0.0,0.0,0.0,0.0,0.0,0.0,0.0,0.0,0.0,0.0,4.5158,4.696,4.7774,4.8198,4.8873,4.9373,4.9878,5.0544,5.121,5.1906,5.2343,5.3109,5.3781,5.3977,5.4333,5.4641,5.5078,5.5179,5.5179,5.5179,5.5179,5.528,5.5481,5.5581,5.5932,5.6785,5.7228,5.7917,5.9439,5.9935,6.0602,6.1639,6.1891,6.2216,6.2612,6.2612,6.271,6.3228,6.3421,6.3707,6.4146,6.5481,6.6182,6.644,6.7604,6.8083,6.8083,6.8083,6.8083,6.8083,6.8083,6.8083,6.8083,6.8083,6.8162,6.8388,6.9296,7.0342,7.1678,7.2717,7.3294,7.3619,0.0,1.6987,1.7609,1.8749,1.9113,1.9764,2.0954,2.0907,2.1027,2.204,0.0,0.0,0.0,0.0,0.0,2.5809,2.5127,2.5277,2.6964,2.7335,2.7866,2.8498,2.8874,2.8975,2.8993,2.8941,2.904,2.9468,2.9823,3.0268,3.1065,3.1541,3.2564,3.3819,3.4614,3.5665,3.6911,3.7275,3.7275,3.7119,3.9086,3.9837,3.9792,0.0,0.0,0.0,3.8497,3.9008,0.0,0.0,0.0,0.0,0.0,0.0,0.0,4.6564,4.7171,4.7527,0.0,0.0,0.0,5.0629,5.0906,5.1405,5.3177,5.3724,5.3919,5.42,5.4947,5.5481,5.528,5.5179,5.5179,5.5179,5.5179,5.5179,5.5179,5.5381,5.5681,5.5979,5.6854,5.7549,5.8169,5.9377,6.0353,6.098,6.1608,6.2085,6.2446,6.271,6.2905,6.3228,6.3707,6.424,6.4636,6.5625,6.644,6.7112,6.7765,6.8083,6.8083,6.8083,6.8083,6.8083,6.8083,6.8083,6.8083,6.8083,6.8319,6.8705,6.8932,6.9871,7.1231,7.2156,7.2656,7.2762,1.7843,1.7676,1.7825,1.8769,1.8673,1.9098,2.0847,2.1113,2.1769,0.0,0.0,0.0,0.0,2.4895,2.5327,2.6302,2.6336,2.6609,2.7347,2.786,2.8152,2.814,2.8737,2.8874,2.8636,2.9102,2.9487,2.9916,3.0496,3.0978,3.1579,3.2676,3.357,3.4242,3.55,3.63,3.6911,3.7275,3.7275,3.7119,3.9086,3.9264,0.0,0.0,0.0,0.0,0.0,3.8415,0.0,0.0,4.1314,4.3527,0.0,0.0,0.0,0.0,4.7117,4.7468,4.8053,0.0,0.0,0.0,0.0,0.0,5.2315,5.3001,5.381,5.4185,5.4509,5.4845,5.5381,5.5681,5.578,5.578,5.5481,5.528,5.5481,5.5581,5.578,5.6274,5.6525,5.7027,5.7814,5.8381,5.9197,6.059,6.1267,6.2007,6.2905,6.3196,6.3389,6.3517,6.4114,6.4545,6.491,6.6148,6.6946,6.7112,6.7765,6.8083,6.8083,6.8083,6.8083,6.8083,6.8083,6.8083,6.8083,6.8083,6.8319,6.8705,6.8932,6.9871,7.1161,7.1552,7.1872,7.1977,1.8326,1.8464,1.8725,1.9611,1.9861,2.0463,2.2158,2.2445,2.3101,0.0,0.0,0.0,2.5528,2.5814,2.6184,2.6798,2.6969,2.7193,2.7642,2.79,2.814,2.814,2.8636,2.8828,2.8992,2.9305,2.9867,3.0569,3.0933,3.1501,3.244,3.3342,3.4306,3.5046,3.5788,3.6545,3.7154,3.7154,3.7154,3.724,3.9209,0.0,0.0,3.9132,3.9264,0.0,0.0,0.0,4.0189,4.0189,4.1729,0.0,0.0,0.0,0.0,0.0,0.0,4.7565,0.0,4.8444,4.903,4.8919,0.0,0.0,5.196,5.2646,5.3568,5.4089,5.4508,5.4835,5.5179,5.5691,5.5983,5.6009,5.578,5.5581,5.578,5.588,5.6077,5.6372,5.647,5.6818,5.7479,5.7855,5.8643,5.9746,6.0764,6.1785,6.2971,6.3293,6.358,6.3832,6.4453,6.5057,6.568,6.666,6.7277,6.7523,6.7925,6.8083,6.8083,6.8083,6.8083,6.8083,6.8083,6.8083,6.8083,6.8162,6.8474,6.8857,6.9157,6.988,7.0771,7.1339,7.1622,7.1727,0.0,1.9348,1.9986,2.0735,2.1704,2.2703,2.3696,2.4269,2.4762,0.0,2.5578,2.5948,2.6508,2.6542,2.6798,2.7486,2.7297,2.7418,2.79,2.7815,2.7953,2.8469,2.8625,2.9046,2.9635,2.9545,3.0092,3.1228,3.1247,3.195,3.3367,3.3868,3.4673,3.5788,3.5911,3.6566,3.734,3.7119,3.714,3.7614,3.913,3.9197,0.0,0.0,3.9528,0.0,3.8166,3.9109,4.0906,4.1293,4.2972,0.0,0.0,0.0,0.0,0.0,4.747,0.0,0.0,0.0,0.0,4.8696,4.9799,0.0,5.1905,5.2481,5.298,5.3662,5.4449,5.5011,5.47,5.5394,5.6011,5.5971,5.5979,5.5979,5.6077,5.6274,5.6372,5.647,5.6664,5.6858,5.7084,5.7642,5.8239,5.8907,6.0292,6.1589,6.2873,6.3099,6.3548,6.4142,6.4786,6.5592,6.6627,6.6995,6.7523,6.8083,6.8083,6.8083,6.8083,6.8083,6.8083,6.8083,6.8083,6.8083,6.8083,6.8319,6.8705,6.9083,6.9452,6.9813,7.0378,7.123,7.162,7.1868,2.0373,2.0202,2.0186,2.1553,2.1829,2.218,2.316,2.4061,2.491,2.5864,2.6423,2.6884,2.6953,2.7177,2.7314,2.7504,2.7659,2.7779,2.7642,2.8303,2.8724,2.8603,2.9415,2.9984,3.0039,3.0352,3.0803,3.1645,3.1913,3.2642,3.3803,3.4632,3.5294,3.5541,3.63,3.6758,3.6727,3.7224,3.7563,3.7824,3.8647,0.0,3.7615,3.8423,3.8959,3.9001,3.8509,3.9368,4.0906,0.0,4.3789,4.5749,0.0,0.0,0.0,0.0,0.0,0.0,0.0,0.0,0.0,0.0,0.0,0.0,5.1155,5.1432,5.1952,5.2687,5.3222,5.3588,5.42,5.4934,5.54,5.5611,5.5849,5.6047,5.6274,5.6372,5.647,5.6664,5.6761,5.6858,5.7084,5.7399,5.7996,5.8876,6.0581,6.2173,6.3357,6.3484,6.3707,6.4085,6.5213,6.5975,6.6235,6.736,6.7925,6.8083,6.8083,6.8083,6.8083,6.8083,6.8083,6.8083,6.8083,6.8083,6.8083,6.8474,6.8857,6.9305,6.9525,6.9956,7.0445,7.0693,7.1294,7.1968,2.1018,2.1191,2.1525,2.2436,2.32,2.3779,2.4483,2.514,2.5864,2.6713,2.6936,2.7194,2.7297,2.7592,2.7818,2.8061,2.8254,2.8254,2.8114,2.8535,2.8889,2.8889,2.9581,3.0153,3.0461,3.0604,3.1183,3.21,3.2478,3.3223,3.4423,3.5046,3.5541,3.5932,3.6533,3.6788,3.6896,3.7233,3.7996,3.8766,3.902,0.0,3.7401,3.8463,3.859,3.8291,3.8523,3.9519,4.0928,4.2078,4.3655,0.0,0.0,4.8,4.9693,0.0,4.8379,4.908,0.0,0.0,0.0,4.8899,0.0,0.0,0.0,5.1488,5.168,5.2727,5.3109,5.3424,5.3844,5.4569,5.5334,5.5541,5.5551,5.5521,5.575,5.6342,5.6827,5.6923,5.7019,5.7211,5.7495,5.759,5.806,5.9066,6.0329,6.1631,6.2843,6.3228,6.3865,6.5066,6.5746,6.644,6.7078,6.7765,6.8083,6.8083,6.8083,6.8083,6.8083,6.8083,6.8083,6.8083,6.8083,6.8083,6.8162,6.8628,6.9008,6.9305,6.9598,7.0062,7.0514,7.0514,7.1183,7.2305,2.1715,2.2345,2.292,2.3376,2.4622,2.5578,2.593,2.6355,2.6833,2.7366,2.7297,2.7211,2.7505,0.0,0.0,0.0,2.8637,2.8702,2.8702,2.8881,2.9133,2.9314,2.9744,3.0319,3.1027,3.0901,3.1447,3.2549,3.2804,3.3583,3.5044,3.5438,3.5852,3.6597,3.6938,3.715,3.7171,3.7636,3.8571,3.9843,0.0,3.911,3.8293,3.9103,3.8861,3.8172,3.8708,4.004,4.1708,4.2282,0.0,4.565,4.6835,4.848,0.0,0.0,0.0,0.0,0.0,0.0,0.0,0.0,0.0,5.0736,0.0,0.0,0.0,5.2653,5.3096,5.336,5.3348,5.4223,5.5027,5.519,5.5059,5.4988,5.497,5.6122,5.6892,5.67,5.718,5.759,5.7684,5.7871,5.8341,5.9254,5.9918,6.0805,6.2045,6.2844,6.402,6.5713,6.6009,6.666,6.7925,6.8004,6.8083,6.8083,6.8083,6.8083,6.8083,6.8083,6.8083,6.8083,6.8083,6.8083,6.8162,6.8781,6.9157,6.9379,6.9813,7.0202,7.0514,7.0582,7.1386,7.2604,2.374,2.3165,2.3154,2.4588,2.5234,2.5708,2.6073,2.6641,2.7021,2.7194,2.7297,2.7522,0.0,0.0,0.0,0.0,0.0,0.0,2.8845,0.0,3.0077,2.9722,3.0665,3.1396,3.1726,3.1451,3.1854,3.2785,3.2912,3.374,3.5534,3.5913,3.6372,3.7318,3.8274,3.8359,3.7494,3.9,3.9754,0.0,4.0317,4.0889,0.0,4.0335,4.0184,4.0496,3.9886,4.1495,4.3946,0.0,4.5375,4.8747,0.0,4.8547,0.0,0.0,0.0,0.0,0.0,0.0,0.0,0.0,4.9556,0.0,0.0,0.0,5.1045,5.146,0.0,5.2414,5.2787,0.0,0.0,5.3698,5.4285,5.4738,5.4699,5.5652,5.6017,5.5089,5.6475,5.7306,5.6892,5.7684,5.8559,5.9254,5.9918,6.0709,6.1822,6.2748,6.3643,6.4728,6.5625,6.644,6.7195,6.7765,6.8083,6.8083,6.8083,6.8083,6.8083,6.8083,6.8083,6.8083,6.8083,6.8162,6.8397,6.8857,6.9231,6.9598,6.9991,7.0272,7.0514,7.0718,7.1585,7.2862,2.4404,2.4356,2.4588,2.5319,2.599,2.6523,2.6675,2.7244,2.7643,2.7381,2.7693,0.0,0.0,0.0,0.0,0.0,0.0,0.0,0.0,0.0,0.0,3.013,3.0789,3.1249,3.1653,3.2134,3.2652,3.3296,3.4191,3.516,3.6259,3.6387,3.6746,3.7359,3.8593,3.8633,3.7681,3.9184,4.0008,0.0,0.0,0.0,0.0,4.0619,4.0008,3.9994,4.0453,4.229,4.4499,0.0,4.5601,0.0,0.0,0.0,0.0,0.0,0.0,0.0,0.0,0.0,0.0,0.0,0.0,0.0,0.0,0.0,5.0822,0.0,0.0,0.0,0.0,0.0,0.0,0.0,5.3743,5.4038,5.3979,5.497,5.572,5.6085,5.7084,5.8028,5.8593,5.8936,5.9249,5.9566,6.0013,6.0519,6.1122,6.2492,6.3832,6.5237,6.5801,6.661,6.7684,6.7925,6.8083,6.8083,6.8083,6.8083,6.8083,6.8083,6.8083,6.8083,6.8241,6.8319,6.8474,6.8932,6.9379,6.967,7.0062,7.041,7.0718,7.0949,7.1648,7.2608,2.5133,2.5447,2.577,2.5928,2.6587,2.7107,2.721,2.7695,2.7902,2.7758,0.0,0.0,2.8593,2.8469,0.0,0.0,0.0,2.8693,0.0,0.0,2.9837,0.0,0.0,0.0,3.1577,3.2656,3.3478,3.3739,3.5091,3.6221,3.6862,3.6991,3.7182,3.7607,3.8908,3.8946,3.8298,3.9896,4.0507,4.0507,4.0507,4.1017,4.1549,4.0554,3.9747,3.9341,4.0366,4.2545,4.475,4.3945,4.5478,0.0,4.7389,0.0,0.0,0.0,0.0,0.0,4.8329,0.0,0.0,0.0,0.0,0.0,0.0,0.0,0.0,0.0,0.0,0.0,0.0,0.0,5.3155,5.3192,0.0,5.3547,5.3477,5.4318,5.535,5.6017,5.7053,5.8122,5.9402,5.9649,5.9649,5.9557,5.9916,6.0297,6.0582,6.195,6.37,6.5559,6.5888,6.666,6.8083,6.8083,6.8083,6.8083,6.8083,6.8083,6.8083,6.8083,6.8083,6.8162,6.8319,6.8474,6.8628,6.9083,6.9452,6.9742,7.0062,7.0478,7.0919,7.1045,7.1583,7.2395,2.6554,2.6311,2.6311,2.6952,2.7073,2.7193,2.7535,2.7604,2.7741,2.8117,0.0,0.0,0.0,0.0,0.0,0.0,0.0,2.8521,2.8791,0.0,3.0224,0.0,0.0,0.0,0.0,3.3103,3.3898,3.4162,3.523,3.6253,3.6942,3.7336,3.7715,3.815,3.9411,4.0024,4.0024,4.1212,4.1699,4.1699,4.1699,4.1012,4.0067,0.0,4.0012,3.921,3.921,0.0,0.0,4.3796,4.5724,0.0,0.0,0.0,0.0,0.0,0.0,0.0,0.0,0.0,0.0,4.8895,0.0,0.0,0.0,0.0,5.0599,0.0,0.0,0.0,5.2113,5.268,5.3011,5.2584,5.3302,0.0,0.0,5.4184,5.4466,5.371,5.5629,5.7402,5.815,5.9094,5.9484,5.9036,5.9644,6.0131,6.0265,6.1281,6.2901,6.5293,6.5559,6.6457,6.8083,6.8083,6.8083,6.8083,6.8083,6.8083,6.8083,6.8083,6.8162,6.8397,6.8397,6.8663,6.9078,6.9231,6.9525,6.9885,7.0132,7.0547,7.0979,7.0979,7.1521,7.2336,2.7159,2.7366,2.7347,2.6864,0.0,2.7552,2.7929,2.822,2.8511,0.0,0.0,0.0,0.0,0.0,2.881,0.0,0.0,2.7992,2.8386,2.9058,0.0,0.0,0.0,3.1666,0.0,3.3784,3.4871,3.5004,3.6628,3.7534,3.781,3.7943,3.8026,3.8212,3.9453,4.0046,4.0088,4.1234,4.139,4.0528,3.9693,3.9516,3.9643,0.0,4.0145,3.9473,4.1248,4.3537,0.0,4.5306,4.6723,4.8309,4.6838,4.6667,4.7009,4.6857,4.7266,0.0,0.0,0.0,5.0201,4.908,0.0,0.0,0.0,0.0,0.0,0.0,0.0,0.0,0.0,5.2113,5.2837,5.2607,5.3174,5.3652,0.0,5.4522,5.4976,5.4845,5.7166,5.9,5.9553,6.0366,6.0838,6.0806,6.1206,6.1438,6.1599,6.246,6.3761,6.547,6.5801,6.666,6.8083,6.8083,6.8083,6.8083,6.8083,6.8083,6.8083,6.8241,6.8319,6.8397,6.874,6.8967,6.9078,6.9302,6.956,6.992,6.9956,7.0341,7.0883,7.1395,7.1951,7.2679,2.7453,2.7695,2.7658,2.7051,0.0,2.7946,2.834,2.8486,0.0,0.0,2.9274,0.0,2.9784,0.0,2.8992,0.0,2.8235,2.8051,2.8445,2.8985,0.0,3.0068,3.1184,0.0,0.0,3.4293,3.551,3.582,3.7441,3.8191,3.8191,3.8191,3.8191,3.8191,3.9017,3.9869,4.0727,4.1455,4.139,4.0528,3.8821,3.8595,3.9218,0.0,4.0234,4.0476,0.0,4.3695,4.5404,4.5649,4.6622,4.7598,4.6667,4.6301,4.6301,4.6566,4.678,4.6993,4.7442,4.8813,0.0,4.8964,5.0032,0.0,4.9744,0.0,0.0,0.0,0.0,0.0,0.0,0.0,5.268,5.268,5.3213,5.3605,0.0,5.4641,5.528,5.5681,5.7583,5.9156,5.9873,6.0554,6.1174,6.1523,6.1703,6.1909,6.2329,6.2779,6.3891,6.5601,6.5846,6.6491,6.7765,6.8004,6.8083,6.8083,6.8083,6.8083,6.8083,6.8319,6.8474,6.8551,6.8892,6.9153,6.9227,6.9376,6.9595,6.9885,6.9885,7.041,7.1081,7.1583,7.213,7.3056,2.7693,2.7655,0.0,0.0,2.798,0.0,0.0,0.0,2.8404,0.0,2.8593,2.8461,2.8857,2.8603,2.8461,2.8802,2.8387,0.0,2.8834,2.956,0.0,0.0,3.1494,3.2421,3.3233,3.4658,3.5761,3.6483,3.7705,3.8191,3.8191,3.8191,3.8191,3.8191,3.8191,3.9474,4.1677,4.1677,4.1677,4.1477,3.9214,3.844,3.8792,3.9136,4.041,4.1943,4.1579,4.2902,4.4792,4.4915,4.555,4.6301,4.6301,4.6301,4.6301,4.6301,4.6301,4.6421,4.7087,4.7231,4.7493,4.8431,0.0,0.0,0.0,0.0,4.9556,0.0,0.0,0.0,0.0,0.0,0.0,5.268,5.3213,5.371,5.42,5.4684,5.532,5.5979,5.6735,5.7778,5.9064,5.9685,6.0359,6.1141,6.1173,6.1613,6.2485,6.2394,6.3382,6.5619,6.5724,6.6148,6.7112,6.7765,6.8083,6.8083,6.8083,6.8083,6.8083,6.8319,6.8551,6.8705,6.8967,6.9227,6.9376,6.9376,6.956,6.992,6.992,7.0579,7.1494,7.1557,7.2248,7.3453,2.8532,2.8415,2.8563,0.0,2.8734,2.8751,0.0,0.0,0.0,0.0,2.9343,2.9303,2.9946,2.9363,2.9109,2.919,2.8531,0.0,0.0,0.0,0.0,3.0435,3.1491,3.2017,3.1997,3.4232,0.0,3.5722,3.7408,3.8191,3.8191,3.8191,3.8191,3.8191,3.8191,3.9017,4.0507,4.0507,4.0507,4.0308,3.88,3.8574,3.9197,0.0,4.0651,4.27,4.2835,4.3654,4.4915,4.5671,4.6059,4.6301,4.6301,4.6301,4.6301,4.6301,4.6446,4.678,4.7087,4.7988,4.8813,4.842,4.9213,4.9774,0.0,0.0,0.0,0.0,0.0,0.0,0.0,0.0,0.0,5.2737,5.329,5.3919,5.4304,5.4428,5.481,5.5918,5.5712,5.6404,5.8554,5.973,6.0785,6.189,6.2278,6.2811,6.3541,6.3887,6.4538,6.5624,6.6257,6.6892,6.7638,6.7799,6.7959,6.8083,6.8241,6.8319,6.8319,6.874,6.8967,6.8967,6.9227,6.9376,6.9376,6.9376,6.9487,6.967,6.9813,7.0678,7.1854,7.248,7.3071,7.3777,2.9295,0.0,0.0,2.9785,0.0,0.0,2.9291,0.0,0.0,2.944,2.9061,0.0,2.9862,2.9607,2.9401,2.9704,2.9369,0.0,0.0,0.0,0.0,3.0852,3.1559,3.191,3.21,3.4131,0.0,3.5701,3.7314,3.8191,3.8191,3.8191,3.8191,3.8191,3.8191,3.8821,4.0067,4.055,4.0614,4.0167,3.9319,3.903,0.0,3.9512,4.0909,4.2765,4.3498,4.4422,4.5306,4.6059,4.6301,4.6301,4.6301,4.6301,4.6301,4.6301,4.6421,4.6661,4.7087,4.7792,4.8446,4.825,4.8901,4.9266,4.8626,4.8753,4.8868,0.0,0.0,0.0,0.0,0.0,0.0,5.2601,5.329,5.3919,5.42,5.4111,5.4309,5.5395,5.5455,5.6061,5.7797,5.8934,6.0235,6.1928,6.2344,6.2925,6.3719,6.4047,6.4614,6.557,6.6057,6.6671,6.736,6.7638,6.7959,6.8241,6.8319,6.8474,6.8551,6.8892,6.9078,6.9078,6.9302,6.9376,6.9376,6.9376,6.9487,6.967,7.0407,7.1295,7.2212,7.3124,7.3578,7.3927,0.0,0.0,0.0,0.0,0.0,0.0,0.0,2.929,0.0,2.8866,0.0,2.8579,2.9369,2.9401,2.9672,3.0266,0.0,3.0584,3.0993,3.101,3.1135,3.1559,3.1559,3.1855,3.2485,3.4103,0.0,0.0,3.7415,3.8191,3.8191,3.8191,3.8212,3.8274,3.8274,3.8925,4.0152,4.0991,4.1007,4.0465,3.9997,3.9424,3.8844,3.9886,4.0991,4.2351,4.3778,4.4939,4.5939,4.618,4.6301,4.6301,4.6301,4.6301,4.6301,4.6301,4.6301,4.6421,4.7087,4.7205,4.7324,4.8055,4.8172,4.8172,4.8172,4.8172,4.8172,4.8172,4.9063,4.9664,0.0,0.0,0.0,5.2408,5.3029,5.3588,5.3993,5.3739,5.3876,5.4608,5.5236,0.0,5.6961,5.8012,5.9469,6.1447,6.1791,6.2259,6.3173,6.3308,6.3998,6.526,6.5504,6.6029,6.6727,6.7407,6.789,6.8258,6.8362,6.8551,6.8781,6.9043,6.9153,6.9153,6.9302,6.9376,6.9376,6.9376,6.956,6.9849,7.1167,7.1975,7.2593,7.3476,7.3815,7.3976,0.0,0.0,0.0,0.0,0.0,3.1094,3.0026,2.9484,2.9297,2.9207,2.9099,2.9228,2.9725,2.9774,2.9932,3.0299,3.0157,0.0,0.0,0.0,0.0,3.1559,3.1559,3.1593,3.1804,3.3798,3.4902,0.0,3.7119,3.8191,3.8191,3.8191,3.8378,3.873,3.873,3.9385,4.0422,3.9361,3.9298,3.9997,3.8996,3.8562,3.8786,3.9757,4.1013,4.2397,4.3802,4.5184,4.618,4.6301,4.6301,4.6301,4.6301,4.6301,4.6301,4.6301,4.6301,4.6421,4.7087,4.7205,4.7324,4.8055,4.8172,4.8172,4.8172,4.8172,4.8172,4.8172,4.9356,5.0148,4.9664,0.0,0.0,0.0,0.0,5.2977,5.2573,5.3296,5.3781,5.3639,5.4391,5.5287,5.6326,5.8082,5.9459,6.0296,6.0554,6.0957,6.1542,6.21,6.3031,6.4432,6.5094,6.5794,6.6357,6.7168,6.757,6.7496,6.8274,6.8781,6.9078,6.9227,6.9376,6.9376,6.9376,6.9376,6.9376,6.9376,6.9813,7.0472,7.1195,7.2034,7.2908,7.3578,7.3864,7.4009,0.0,0.0,0.0,0.0,0.0,0.0,0.0,2.9987,0.0,2.9579,2.9612,2.9818,3.0409,3.0425,3.0567,3.0993,3.0852,3.0993,3.1277,3.1277,3.1418,3.1559,3.1559,0.0,3.2826,3.4371,3.5578,3.6502,3.7814,3.8523,3.8523,3.8523,3.8647,3.8854,3.949,3.971,3.9689,3.9905,3.9799,3.9353,3.9143,3.8912,3.8814,4.0236,4.1527,4.2799,4.4051,4.5184,4.6059,4.618,4.618,4.6059,4.6059,4.6059,4.6059,4.6059,4.618,4.6421,4.69,4.6993,4.7112,4.7586,4.7677,4.7677,4.7677,4.7677,4.7703,4.7938,4.8732,4.9534,4.9724,5.046,0.0,0.0,0.0,0.0,5.3594,5.3632,5.368,5.3664,5.4142,5.488,5.605,5.7557,5.8765,5.9601,6.0141,6.05,6.0922,6.1312,6.2256,6.3651,6.4407,6.5325,6.6314,6.7181,6.7708,6.7877,6.8566,6.9043,6.9227,6.9376,6.9376,6.9376,6.9376,6.9376,6.9449,6.9705,7.0131,7.0806,7.1547,7.2307,7.3,7.3578,7.3864,7.3912,0.0,3.2449,0.0,0.0,3.2051,0.0,3.0821,3.0385,2.9952,2.9871,2.9997,3.0299,3.0868,3.101,3.1152,3.1418,3.1418,3.1559,3.1559,3.17,3.1841,3.1841,3.2051,3.2791,3.4084,3.5304,3.6596,0.0,3.8575,3.8895,3.8709,3.8812,3.8854,3.8874,3.9857,3.992,3.9417,4.0779,4.0537,3.925,3.9551,3.9368,3.8946,4.0625,4.1888,4.3028,4.4323,4.5208,4.5696,4.5939,4.5939,4.5696,4.5817,4.5696,4.5696,4.5817,4.5939,4.6301,4.6686,4.6806,4.69,4.7087,4.7205,4.7205,4.7205,4.7205,4.7324,4.7586,4.8289,4.8983,4.9783,5.0348,0.0,0.0,0.0,0.0,0.0,5.3669,5.3444,5.3395,5.4052,5.4909,5.5914,5.712,5.818,5.9223,5.9749,6.012,6.0173,6.0467,6.1349,6.2863,6.3715,6.4723,6.6075,6.7158,6.7856,6.8231,6.8746,6.9153,6.9376,6.9376,6.9376,6.9376,6.9376,6.9376,6.9449,6.9956,7.044,7.1038,7.1794,7.2516,7.3145,7.3615,7.3815,7.3864,0.0,0.0,0.0,0.0,0.0,0.0,0.0,3.0162,3.0227,2.9903,3.014,3.0442,3.0442,3.0726,3.101,3.0993,3.101,3.1135,3.1559,3.2263,3.2526,3.2526,3.3585,3.4348,3.4929,3.6432,3.7171,0.0,0.0,3.9061,3.8253,3.8667,3.8854,3.8874,3.933,4.0138,4.1007,4.0097,4.0046,4.035,3.9271,3.8967,3.9341,4.0755,4.1888,4.3028,4.4323,4.5086,4.5331,4.5331,4.5331,4.5453,4.5696,4.5574,4.5453,4.5696,4.5817,4.5939,4.6686,4.6806,4.69,4.7087,4.7205,4.7205,4.7205,4.7205,4.7324,4.7586,4.8405,4.924,4.9897,5.001,5.015,0.0,0.0,0.0,0.0,5.2039,5.2936,5.2128,5.3805,5.5424,5.6107,5.7413,5.8464,5.919,5.9143,5.8972,5.8487,5.8946,6.0161,6.223,6.2993,6.3986,6.5323,6.6758,6.7615,6.7695,6.8392,6.8967,6.9376,6.9376,6.9376,6.9376,6.9376,6.9376,6.9449,6.9956,7.0507,7.1204,7.1732,7.2537,7.3372,7.3564,7.3777,7.4009,0.0,0.0,0.0,0.0,0.0,0.0,0.0,2.9986,2.9745,2.9887,2.9997,3.0299,3.0993,3.101,3.1152,3.1277,3.1418,3.1418,3.1559,3.1841,3.2368,3.3021,3.3464,3.4513,3.6009,3.6874,3.7583,0.0,0.0,3.9204,3.8726,3.9846,4.0183,3.993,4.0414,4.0444,4.0222,4.0444,4.0486,4.0285,3.928,3.9382,4.0234,4.0995,4.2143,4.3553,4.4223,4.4717,4.4963,4.4963,4.4963,4.5086,4.5453,4.5331,4.5086,4.5696,4.5817,4.5939,4.6301,4.6566,4.6541,4.6636,4.6636,4.6636,4.6636,4.678,4.6993,4.7324,4.8172,4.901,4.967,4.9783,5.0032,5.0726,0.0,0.0,0.0,5.2567,5.3078,5.2631,5.3834,5.5201,5.6509,5.729,5.8185,5.9378,5.9537,5.9564,5.9476,5.9984,6.0848,6.2063,6.3264,6.4321,6.5221,6.6885,6.7787,6.81,6.8642,6.9118,6.9376,6.9376,6.9376,6.9376,6.9376,6.956,6.9885,7.0371,7.0907,7.1583,7.213,7.2686,7.3199,7.3513,7.3715,7.3912,3.1084,0.0,3.122,0.0,3.059,3.0222,3.005,2.9745,2.9585,2.9855,2.9855,3.014,3.0993,3.0993,3.0993,3.1135,3.1418,3.1752,3.1997,3.2297,3.2897,3.4142,3.4303,0.0,3.7319,3.7631,3.8078,3.8608,3.9475,3.9473,3.8779,3.9929,4.0319,4.015,4.0615,4.0243,3.9578,4.0696,4.0745,4.0158,3.9509,3.9884,4.0869,4.1321,4.242,4.3678,4.4223,4.4594,4.4717,4.4717,4.4717,4.4717,4.5086,4.4963,4.484,4.5453,4.5696,4.5696,4.618,4.6301,4.6301,4.6301,4.6301,4.6301,4.6301,4.6421,4.678,4.7205,4.8055,4.8895,4.9442,4.9556,4.9918,5.0835,0.0,0.0,0.0,5.2204,5.2574,5.2936,5.3554,5.4756,5.6624,5.7315,5.8185,5.9507,6.02,6.0434,6.0359,6.0424,6.0909,6.2011,6.3297,6.4388,6.5221,6.6885,6.7925,6.8397,6.8816,6.9078,6.9302,6.9376,6.9376,6.9376,6.9376,6.9705,7.0131,7.0709,7.1232,7.1769,7.2401,7.2779,7.3037,7.332,7.3578,7.3815,2.9997,3.0157,3.0157,2.9441,2.9585,2.9712,2.9298,2.9585,2.9855,2.9855,2.9585,2.9441,2.9855,3.0567,3.071,2.9997,3.0993,3.1997,3.2806,3.3819,3.4852,0.0,0.0,3.7642,3.8501,3.8521,3.8644,3.907,0.0,0.0,3.8289,3.8285,3.844,3.8874,3.933,3.9537,3.9599,4.0489,4.0613,4.0179,4.0138,4.0451,4.1023,4.1601,4.242,4.3451,4.447,4.4594,4.4347,4.4717,4.4594,4.4347,4.4717,4.4594,4.447,4.5086,4.5331,4.5453,4.6059,4.6301,4.6301,4.6301,4.6301,4.6301,4.6301,4.6301,4.6541,4.7468,4.8198,4.8895,4.9442,4.9556,4.967,5.001,0.0,0.0,0.0,5.029,5.107,5.2519,5.3074,5.4253,5.6555,5.7586,5.8483,5.9461,6.0895,6.1342,6.0425,5.948,0.0,6.1995,6.2842,0.0,6.5255,6.6724,6.7799,6.8397,6.8628,6.8857,6.9078,6.9302,6.9376,6.9376,6.9376,6.9705,7.0131,7.0709,7.1232,7.1769,7.2321,7.2704,7.3037,7.3071,7.3387,7.3815,3.0299,3.0299,3.0299,3.0157,3.0014,2.9855,2.9728,2.9585,2.9441,2.9441,2.9441,2.9298,2.9441,3.0014,3.0283,0.0,3.1657,3.2558,0.0,3.3837,3.5123,3.6531,3.6589,3.7074,3.8073,3.8367,3.8373,3.7924,0.0,0.0,4.078,3.9924,3.975,3.9993,3.9924,3.9827,3.9599,4.0489,4.0634,4.0179,4.0668,4.1103,4.1659,4.2221,4.3051,4.395,4.4347,4.4347,4.4347,4.447,4.4347,4.4347,4.447,4.4347,4.447,4.5331,4.5453,4.5453,4.6059,4.6301,4.6301,4.6301,4.6301,4.6301,4.6301,4.6636,4.7112,4.756,4.8055,4.8548,4.9125,4.924,4.9469,4.9897,5.001,0.0,5.0767,0.0,5.198,5.3337,5.4081,5.5215,5.6787,5.734,5.8183,5.9223,5.9152,5.9794,6.1458,6.1754,0.0,0.0,6.3434,0.0,6.5255,6.6405,6.7443,6.8397,6.8628,6.8892,6.9302,6.9376,6.9376,6.9376,6.9376,6.9885,7.0642,7.0842,7.1422,7.2226,7.2438,7.2667,7.3037,7.3178,7.349,7.3815,3.0299,3.0299,3.0299,3.0014,2.9997,2.9855,2.9712,2.9585,2.9441,2.9298,2.9298,2.9489,3.0049,3.0222,0.0,3.0567,3.1765,3.2878,3.3732,3.4623,3.5849,3.7402,3.7038,3.7306,3.8164,3.8281,0.0,3.7773,3.8863,4.0126,4.1289,4.0402,4.0167,4.0477,4.0236,4.0075,3.9827,4.0386,4.0468,4.0179,4.0477,4.1085,4.192,4.2454,4.3302,4.4347,4.447,4.447,4.4347,4.447,4.4347,4.4347,4.4347,4.4347,4.447,4.5208,4.5331,4.5453,4.5939,4.618,4.6301,4.6301,4.6301,4.6301,4.6301,4.6755,4.7205,4.7442,4.7938,4.8431,4.901,4.9125,4.9354,4.9897,5.001,5.032,5.1183,5.143,5.2193,5.371,5.4304,5.5167,5.6355,5.7027,5.7673,5.8462,5.855,5.9556,6.1601,6.1665,6.1949,6.2365,6.3249,6.4113,6.5176,6.5972,6.7044,6.8162,6.8551,6.8892,6.9302,6.9376,6.9376,6.9376,6.9376,6.9956,7.0907,7.0907,7.1485,7.2496,7.2553,7.2723,7.3037,7.3231,7.3527,7.3815,2.9997,3.0157,3.0157,0.0,2.9728,2.9712,2.9441,2.9585,2.9712,2.9441,2.9441,3.0,3.1498,3.1355,3.1152,3.1328,0.0,0.0,3.5526,3.6029,3.6981,3.8535,3.8164,3.8125,3.8555,3.8184,3.8164,3.8574,3.9026,3.9617,4.031,3.9894,3.9847,4.022,4.0261,4.0241,4.0179,4.0179,4.0158,4.0054,4.0002,4.0669,4.1875,4.2198,4.3051,4.4223,4.4594,4.4594,4.4347,4.4717,4.4594,4.4347,4.4347,4.4347,4.4347,4.4717,4.5086,4.5331,4.5696,4.6059,4.6301,4.6301,4.6301,4.6301,4.6301,4.6755,4.7205,4.7205,4.7703,4.8431,4.901,4.9125,4.9354,5.001,5.0123,5.0432,5.1293,5.1512,5.2056,5.3785,5.4023,0.0,5.5481,5.6455,5.699,5.7289,5.8798,6.0107,6.0799,5.984,6.0008,6.1673,6.2466,6.3492,6.4903,6.5583,6.6609,6.7799,6.8397,6.8892,6.9078,6.9302,6.9376,6.9376,6.9449,7.0026,7.0907,7.0973,7.1583,7.2496,7.2667,7.2835,7.3037,7.3268,7.3527,7.3815,0.0,0.0,3.0299,3.0157,2.9997,2.9997,3.0157,2.9728,2.9585,2.9712,3.0266,3.0826,3.1498,3.2308,3.3216,3.4375,3.4697,3.5074,3.5563,3.6723,3.7864,3.8555,3.8164,3.8125,3.8555,3.8476,3.8622,3.903,3.9326,3.9757,4.031,4.0513,4.0448,4.0241,4.0572,4.0344,3.9723,4.0075,3.9827,3.9144,3.9997,4.0474,4.078,4.2189,4.3051,4.3576,4.4223,4.4347,4.4347,4.4347,4.4347,4.4347,4.4347,4.4347,4.4347,4.4717,4.5086,4.5331,4.5696,4.6059,4.6301,4.6301,4.6301,4.6301,4.6301,4.6755,4.7205,4.7205,4.7703,4.8431,4.901,4.9125,4.9469,5.046,5.0878,5.1402,5.2808,5.3155,5.3681,5.4773,5.4875,5.5078,5.5581,5.6031,5.6389,0.0,5.7276,5.8024,5.9298,5.952,6.0456,6.2499,6.2683,6.3419,6.4869,6.5233,6.6302,6.8004,6.8474,6.8892,6.9078,6.9302,6.9376,6.9449,6.9742,7.0339,7.0907,7.1295,7.1951,7.2667,7.2667,7.289,7.3199,7.3357,7.3476,7.3715,3.0157,3.0157,3.0157,2.9871,2.9728,2.9728,3.0157,2.9728,2.9441,2.9855,3.0551,3.1463,3.2584,3.3483,3.4747,3.6504,3.5961,3.5943,3.6561,3.7507,3.8125,3.8555,3.8359,3.834,3.8574,3.8574,3.872,3.8885,3.9301,3.959,3.9754,4.031,4.0473,4.0247,4.0779,4.0613,4.0137,3.9972,3.962,3.9123,3.9495,3.9819,4.0105,4.1527,4.242,4.2925,4.3576,4.3826,4.3826,4.4075,4.4075,4.4075,4.4223,4.4347,4.4347,4.447,4.484,4.5086,4.5453,4.5817,4.6059,4.6301,4.6301,4.6301,4.6301,4.6661,4.6993,4.7205,4.756,4.8172,4.8779,4.924,4.9783,5.0544,5.132,5.2164,5.3366,5.3681,5.423,5.5078,5.5179,5.5381,5.578,5.588,5.6176,5.673,5.6838,5.7585,5.9145,5.9523,6.0421,6.2081,6.2763,6.3623,6.4742,6.5744,6.6816,6.7959,6.8397,6.8705,6.8892,6.9192,6.9414,6.9487,7.0026,7.0543,7.1038,7.1547,7.213,7.2723,7.2835,7.3037,7.3199,7.341,7.3615,7.3715,2.9997,2.9997,2.9855,2.9585,2.9441,2.9585,2.9855,2.9633,2.9633,2.9871,3.065,3.1936,3.373,3.4715,3.6001,3.7806,3.6818,3.6599,3.7767,3.7988,3.8184,3.8555,3.8574,3.8574,3.8574,3.8574,3.8574,3.8574,3.903,3.9176,3.9176,3.9878,4.0166,4.031,4.0596,4.08,4.0613,3.9868,3.9454,3.9268,3.8883,3.8946,3.9713,4.0777,4.1678,4.2293,4.3051,4.3326,4.3326,4.3678,4.3802,4.3802,4.4223,4.4223,4.4223,4.4347,4.447,4.484,4.5208,4.5574,4.5939,4.618,4.6301,4.6301,4.6301,4.6566,4.69,4.7112,4.7442,4.7938,4.8548,4.924,5.001,5.0405,5.1512,5.2594,5.3471,5.389,5.4436,5.5078,5.5179,5.5381,5.588,5.5979,5.6176,5.6664,5.6923,5.7808,5.9411,5.9762,6.0365,6.1399,6.2771,6.3903,6.4749,6.6548,6.7557,6.7799,6.8162,6.8474,6.8705,6.9157,6.9379,6.9598,7.02,7.0678,7.1204,7.1732,7.2248,7.2723,7.3091,7.3199,7.3252,7.3513,7.3665,7.3765,2.9855,3.0157,3.0299,3.0299,3.0014,2.9855,3.0299,3.0274,3.0211,3.0332,3.1532,3.2809,3.4234,3.5355,3.6595,3.8292,3.8273,3.8098,3.7949,3.8262,3.8496,3.8574,3.8574,3.8574,3.8574,3.8574,3.8574,3.8574,3.903,3.9176,3.9176,3.959,4.0002,4.031,4.031,4.0185,3.9744,3.9599,3.9102,3.8378,3.8366,3.857,3.8925,4.0366,4.1164,4.155,4.2822,4.3326,4.3326,4.3678,4.3802,4.3802,4.4223,4.4075,4.395,4.4223,4.4323,4.457,4.5086,4.5696,4.618,4.6301,4.6301,4.6301,4.6301,4.6566,4.6806,4.69,4.7349,4.7821,4.8198,4.8663,4.9442,5.0851,5.192,5.2857,5.3964,5.4845,5.528,5.5179,5.5179,5.5179,5.528,5.578,5.6077,5.6077,5.6567,5.7559,5.9202,5.9499,6.0397,6.187,6.2932,6.4174,6.5493,6.6821,6.751,6.7557,6.8083,6.8474,6.8705,6.9157,6.9379,6.967,7.0339,7.0678,7.0878,7.1769,7.2248,7.248,7.3,7.3252,7.3372,7.3461,7.3424,7.3513,2.9855,3.0157,3.0299,3.0157,3.0157,3.0365,3.0993,3.0871,3.0841,3.1309,3.2151,3.3029,3.3801,3.5299,3.6588,3.7605,3.8292,3.8496,3.8281,3.8457,3.8574,3.8574,3.8574,3.8574,3.8574,3.8574,3.8574,3.8574,3.872,3.8747,3.8531,3.9201,3.9349,3.905,3.9414,3.9454,3.8963,3.8718,3.8371,3.7983,3.7738,3.775,3.8017,3.8925,3.9844,4.0625,4.1527,4.2316,4.2822,4.32,4.3326,4.3326,4.3701,4.3701,4.3576,4.3701,4.4323,4.4939,4.5453,4.5939,4.6301,4.6301,4.6301,4.6301,4.6301,4.6421,4.6661,4.6993,4.7231,4.756,4.8055,4.9098,5.0123,5.0989,5.2272,5.3547,5.42,5.4845,5.5179,5.5179,5.5179,5.528,5.5381,5.5681,5.588,5.6176,5.647,5.737,5.9113,5.9499,6.0365,6.1917,6.3337,6.4695,6.5861,6.6937,6.7557,6.7638,6.8004,6.8319,6.8551,6.8932,6.9305,6.967,7.0339,7.0878,7.1175,7.1891,7.2401,7.2779,7.3091,7.3305,7.3372,7.3372,7.3476,7.3628,3.014,3.0425,3.0584,3.0283,3.0508,3.0959,3.1532,3.1426,3.1559,3.1969,3.2467,3.2867,3.355,3.5027,3.6274,3.7028,3.803,3.8574,3.8574,3.8574,3.8574,3.8574,3.8574,3.8574,3.8574,3.8574,3.8574,3.8574,3.8574,3.8359,3.793,3.857,3.862,3.7907,3.8507,3.8728,3.8386,3.7944,3.7743,3.7702,3.726,3.7079,3.7213,3.7863,3.8772,3.9844,4.0517,4.1421,4.2339,4.2696,4.2822,4.2822,4.32,4.32,4.32,4.3326,4.4199,4.5184,4.5574,4.5939,4.618,4.6301,4.6301,4.6301,4.6301,4.6301,4.6421,4.6874,4.7087,4.7324,4.7821,4.9415,5.0683,5.0906,5.2516,5.3785,5.42,5.4641,5.5006,5.5179,5.5179,5.528,5.5481,5.5581,5.578,5.6274,5.6372,5.718,5.9056,5.9411,6.0365,6.1997,6.3552,6.4864,6.5943,6.6766,6.7386,6.7719,6.7959,6.8162,6.8397,6.8781,6.9157,6.9598,7.02,7.0811,7.1368,7.1891,7.2401,7.289,7.3145,7.3305,7.3372,7.3372,7.3527,7.3765,3.0868,3.1277,3.1559,3.1418,3.1439,3.1548,3.1582,3.2154,3.2356,3.17,3.2187,3.3076,3.4248,3.4812,3.5832,3.7623,3.832,3.8574,3.8574,3.8574,3.8574,3.8574,3.8574,3.8574,3.8574,3.8574,3.8574,3.8574,3.8574,3.8359,3.793,3.7949,3.8019,3.7887,3.7907,3.8167,3.8366,3.7924,3.7743,3.7682,3.726,3.7079,3.7213,3.7863,3.8772,3.9844,4.0517,4.1421,4.2339,4.2696,4.2822,4.2822,4.32,4.3075,4.2949,4.32,4.3802,4.4546,4.5184,4.5574,4.5939,4.618,4.6301,4.6301,4.6301,4.6301,4.6301,4.6301,4.6755,4.7205,4.7205,4.8584,4.987,5.0795,5.2056,5.3337,5.42,5.4845,5.5179,5.5179,5.5179,5.5179,5.5179,5.5481,5.5681,5.5979,5.6274,5.7084,5.8818,5.9355,6.0482,6.2302,6.3159,6.4275,6.5662,6.6208,6.6826,6.751,6.7959,6.8162,6.8397,6.8628,6.8932,6.9379,6.9742,7.0305,7.0811,7.1609,7.2094,7.248,7.3162,7.3372,7.3372,7.3372,7.3476,7.3665,3.101,3.1277,3.1645,3.1599,3.1565,3.1793,3.227,3.2244,3.2261,3.2339,3.2664,3.3156,3.3571,3.488,3.6093,3.6808,3.7875,3.8574,3.8574,3.8574,3.8574,3.8574,3.8574,3.8574,3.8574,3.8574,3.8574,3.8574,3.8574,3.8223,3.7539,3.7812,3.7422,3.6799,3.7075,3.7193,3.7312,3.7134,3.7233,3.743,3.6996,3.6818,3.6798,3.6773,3.7461,3.8507,3.943,4.0495,4.1421,4.2189,4.2466,4.2466,4.257,4.2593,4.2593,4.2949,4.32,4.3576,4.4446,4.5061,4.5574,4.5939,4.5939,4.6059,4.6301,4.6301,4.6301,4.6566,4.6874,4.7324,4.7912,4.9301,5.0656,5.1348,5.2516,5.3471,5.3993,5.4406,5.4743,5.4905,5.5108,5.5179,5.5179,5.528,5.5481,5.5979,5.6077,5.673,5.818,5.9499,6.087,6.2381,6.2651,6.3531,6.4986,6.582,6.6596,6.7475,6.7799,6.8004,6.8241,6.8551,6.8932,6.9305,6.9742,7.0374,7.124,7.1646,7.2189,7.2835,7.3108,7.3357,7.3372,7.3372,7.3564,7.3765,3.1152,3.1418,3.1696,3.1786,3.1776,3.1953,3.2441,3.2321,3.2057,3.2193,3.2423,3.268,3.2984,3.4609,3.5905,3.6342,3.7711,3.8574,3.8574,3.8574,3.8574,3.8574,3.8574,3.8574,3.8574,3.8574,3.8574,3.8574,3.8437,3.8008,3.7305,3.7461,3.6992,3.6035,3.6328,3.6543,3.666,3.6523,3.6719,3.707,3.6641,3.6543,3.6621,3.6191,3.6754,3.7913,3.8835,3.9844,4.0906,4.1956,4.2339,4.2339,4.2339,4.2339,4.2339,4.2593,4.2696,4.2949,4.3678,4.4323,4.4963,4.5696,4.5817,4.5939,4.618,4.6301,4.6326,4.6566,4.69,4.7349,4.8379,4.9756,5.0989,5.1787,5.2865,5.3605,5.3919,5.4097,5.4406,5.4803,5.5006,5.5179,5.5179,5.5179,5.5381,5.5979,5.5979,5.6537,5.784,5.9587,6.0953,6.1951,6.2189,6.2956,6.4322,6.5311,6.6302,6.7215,6.7696,6.8039,6.8162,6.8474,6.8857,6.9266,6.9598,7.0407,7.1431,7.1646,7.2285,7.3091,7.3199,7.3357,7.3372,7.3372,7.3564,7.3815,3.1559,3.1559,3.1696,3.2073,3.2141,3.2117,3.2053,3.2103,3.1822,3.1165,3.097,3.1404,3.2572,3.375,3.5137,3.672,3.7885,3.8574,3.8574,3.8574,3.8574,3.8574,3.8574,3.8574,3.8574,3.8574,3.8574,3.8574,3.8125,3.7695,3.7285,3.6875,3.6445,3.6016,3.6016,3.6269,3.6641,3.6211,3.6289,3.6641,3.6211,3.6289,3.6621,3.6191,3.6953,3.8208,3.894,3.9844,4.0906,4.1934,4.2339,4.2339,4.2339,4.2339,4.2339,4.2339,4.2593,4.2822,4.2822,4.3326,4.4051,4.5453,4.5817,4.5817,4.618,4.6301,4.6301,4.6301,4.6566,4.7138,4.8353,4.9616,5.0851,5.1948,5.2972,5.3605,5.3919,5.4097,5.4406,5.4803,5.5006,5.5179,5.5179,5.5179,5.5381,5.5979,5.5979,5.6634,5.8119,5.9531,6.0482,6.0986,6.1642,6.2606,6.3781,6.48,6.5789,6.6701,6.766,6.8162,6.8397,6.8397,6.8663,6.9153,6.9487,7.02,7.1268,7.1732,7.2422,7.3199,7.3357,7.3372,7.3372,7.3372,7.3564,7.3815,3.1559,3.1559,3.1765,3.2398,3.1803,3.1524,3.2002,3.1666,3.138,3.1404,3.1837,3.2354,3.2902,3.445,3.5485,3.5887,3.7321,3.8302,3.8574,3.8574,3.8574,3.8574,3.8574,3.8574,3.8574,3.8281,3.8125,3.8125,3.7695,3.7266,3.6855,3.6738,3.6445,3.6035,3.6348,3.6719,3.7129,3.7285,3.7598,3.7969,3.7539,3.7266,3.709,3.6973,3.6759,3.6757,3.8004,3.9066,3.9844,4.0906,4.1678,4.2339,4.2339,4.2339,4.2339,4.2339,4.2339,4.2466,4.2696,4.2949,4.3326,4.4422,4.4939,4.5208,4.5574,4.5574,4.5696,4.5939,4.618,4.7019,4.8611,4.9729,5.0851,5.2329,5.3078,5.353,5.3605,5.3993,5.4304,5.4436,5.4875,5.5179,5.5179,5.5179,5.5381,5.5979,5.6372,5.7019,5.8119,5.9056,5.9903,6.0703,6.1561,6.237,6.3033,6.437,6.5596,6.6701,6.7536,6.8083,6.8397,6.8551,6.8857,6.9231,6.9452,7.0061,7.0878,7.1485,7.213,7.2686,7.3215,7.3372,7.3372,7.3372,7.3564,7.3815,3.1152,3.1152,3.1338,3.1784,3.1253,3.0959,3.1399,3.1019,3.0772,3.1006,3.1476,3.203,3.3137,3.428,3.5229,3.5981,3.7123,3.7862,3.8302,3.8302,3.8428,3.8574,3.8428,3.8428,3.8574,3.832,3.8184,3.8184,3.7578,3.7168,3.6914,3.6562,3.6269,3.6035,3.6289,3.6562,3.6816,3.707,3.7324,3.7559,3.7461,3.7383,3.7285,3.7109,3.6836,3.6642,3.7617,3.8491,3.9299,4.0495,4.1421,4.2339,4.2339,4.2339,4.2339,4.2339,4.2339,4.2339,4.2593,4.2696,4.2949,4.3553,4.4199,4.4693,4.5208,4.5331,4.5453,4.5696,4.5939,4.6636,4.8611,4.9274,5.0293,5.2193,5.2759,5.3078,5.3395,5.3919,5.42,5.4304,5.4743,5.5108,5.5179,5.5179,5.5381,5.5979,5.647,5.705,5.759,5.8546,5.9411,5.9989,6.1235,6.2245,6.2978,6.4404,6.5539,6.6411,6.7443,6.8083,6.8551,6.8628,6.8932,6.934,6.9525,6.9991,7.0678,7.1359,7.1975,7.248,7.3124,7.3372,7.3372,7.3372,7.3564,7.3765,3.0299,3.0299,3.0414,3.0324,3.0418,3.029,3.0383,3.0355,3.0421,3.0463,3.033,3.1053,3.294,3.3552,3.4415,3.6331,3.696,3.7568,3.7862,3.8009,3.8155,3.8574,3.8155,3.8155,3.8574,3.8535,3.8516,3.8516,3.7656,3.7246,3.7226,3.6406,3.6016,3.6016,3.6055,3.6074,3.6074,3.6113,3.6152,3.623,3.6621,3.7012,3.7305,3.6934,3.6973,3.7269,3.7401,3.815,3.9299,4.0366,4.1421,4.2339,4.2339,4.2339,4.2339,4.2339,4.2339,4.2339,4.2339,4.2593,4.2696,4.2822,4.3553,4.4422,4.5061,4.5208,4.5331,4.5696,4.5696,4.6276,4.812,4.8469,4.9362,5.1731,5.2193,5.2516,5.3395,5.371,5.3993,5.4304,5.4671,5.4905,5.5179,5.5179,5.5481,5.5979,5.647,5.6761,5.6761,5.8119,5.8998,5.9145,6.0886,6.2354,6.3463,6.4789,6.5593,6.6014,6.7428,6.8319,6.8705,6.8705,6.8967,6.9376,6.956,6.9885,7.0371,7.1232,7.1854,7.2328,7.3071,7.332,7.332,7.3372,7.3476,7.3615,2.9585,2.9712,2.9968,2.9872,2.9888,3.0,3.0415,3.0563,3.094,3.1146,3.0639,3.0852,3.2103,3.2074,3.2643,3.4371,3.5903,3.7107,3.7568,3.7862,3.8009,3.8155,3.8009,3.8009,3.8155,3.7808,3.7778,3.8066,3.7226,3.6816,3.6797,3.6269,3.6016,3.6035,3.6367,3.6523,3.6543,3.6875,3.7207,3.7519,3.7617,3.7715,3.7773,3.7676,3.7305,3.6777,3.6858,3.736,3.8242,4.0105,4.1421,4.2339,4.2339,4.2339,4.2339,4.2339,4.2339,4.2339,4.2339,4.2339,4.2466,4.2696,4.32,4.3553,4.4051,4.4323,4.4594,4.4963,4.4963,4.555,4.7205,4.7886,4.8904,5.1183,5.1839,5.2516,5.3395,5.3919,5.42,5.4304,5.4743,5.5108,5.5179,5.5581,5.588,5.5979,5.647,5.6761,5.6761,5.8119,5.8908,5.8998,6.1297,6.2777,6.3188,6.5141,6.6302,6.6539,6.7591,6.8241,6.8474,6.8628,6.8892,6.9153,6.9376,6.956,6.9849,7.0539,7.1002,7.1323,7.2422,7.2853,7.2908,7.3268,7.3476,7.3665,2.8722,2.8851,2.8913,2.8795,2.8826,2.9158,2.9806,3.0182,3.0473,3.0823,3.0545,3.0712,3.1669,3.1404,3.2041,3.3919,3.5157,3.6201,3.7107,3.7568,3.7715,3.7715,3.7715,3.762,3.741,3.7036,3.7162,3.7663,3.6958,3.6693,3.6393,3.6171,3.5743,3.547,3.6113,3.623,3.6111,3.6816,3.7129,3.7363,3.7611,3.7669,3.7617,3.7332,3.7086,3.6641,3.6445,3.6873,3.7842,3.943,4.0755,4.155,4.155,4.1956,4.2339,4.2339,4.2339,4.2339,4.2339,4.2339,4.2339,4.2466,4.2822,4.32,4.3678,4.4075,4.4347,4.4717,4.484,4.5208,4.6516,4.6968,4.8003,5.0293,5.0962,5.1649,5.3107,5.35,5.3919,5.4304,5.4641,5.4845,5.5179,5.5681,5.5979,5.5979,5.647,5.6761,5.6761,5.7933,5.8728,5.9056,6.0929,6.233,6.3141,6.4856,6.5926,6.6382,6.7581,6.8162,6.8397,6.8628,6.8892,6.9078,6.9302,6.9449,6.956,7.0303,7.0673,7.0907,7.2189,7.2686,7.2742,7.3215,7.3424,7.3527,2.7985,2.8,2.784,2.7565,2.7885,2.8289,2.9045,2.9482,2.9937,3.0233,3.0066,3.0338,3.1125,3.1022,3.1788,3.3768,3.4389,3.5007,3.6052,3.659,3.6848,3.7014,3.7085,3.6878,3.6664,3.6249,3.6417,3.7194,3.6704,3.6322,3.6039,3.5973,3.547,3.4921,3.5606,3.5606,3.5508,3.6131,3.6463,3.6599,3.6932,3.719,3.7144,3.6862,3.6751,3.6621,3.6172,3.6674,3.7709,3.8639,3.9713,4.0777,4.0777,4.1421,4.2212,4.2339,4.2339,4.2339,4.2339,4.2339,4.2339,4.2339,4.2593,4.2949,4.3451,4.395,4.4347,4.4594,4.4717,4.4963,4.5817,4.618,4.6993,4.9274,4.9729,5.0517,5.2544,5.2894,5.3184,5.4097,5.42,5.4539,5.5078,5.5581,5.588,5.5979,5.647,5.6761,5.6761,5.7653,5.8455,5.9145,6.0496,6.1816,6.3093,6.4424,6.5413,6.6024,6.7342,6.8083,6.8319,6.8551,6.8781,6.9078,6.9302,6.9376,6.9449,7.0165,7.0507,7.0678,7.1975,7.2537,7.2593,7.3215,7.3372,7.3424,2.7274,2.742,2.755,2.7129,2.7658,2.8266,2.8642,2.9245,2.9747,2.9793,2.9245,2.9169,2.9914,3.0804,3.1453,3.1807,3.2571,3.318,3.3651,3.4373,3.4935,3.5247,3.5647,3.5856,3.58,3.5388,3.5569,3.6323,3.599,3.5762,3.5622,3.5287,3.5059,3.4921,3.5059,3.5059,3.5059,3.5116,3.5363,3.5724,3.6199,3.6494,3.672,3.672,3.6751,3.6621,3.6172,3.6674,3.7575,3.7709,3.8904,4.0388,4.0647,4.1293,4.1934,4.2212,4.2339,4.2339,4.2339,4.2339,4.2339,4.2339,4.2593,4.2822,4.2949,4.3451,4.395,4.4347,4.4347,4.447,4.4963,4.5453,4.6276,4.7743,4.8442,4.9475,5.1293,5.1948,5.2594,5.35,5.3993,5.4436,5.4803,5.5108,5.5481,5.5979,5.6274,5.6567,5.6761,5.7653,5.8395,5.8908,6.0902,6.2266,6.2863,6.485,6.5922,6.6024,6.7052,6.7719,6.7879,6.8241,6.8551,6.8781,6.9192,6.9376,6.9449,6.967,6.9813,7.0166,7.1359,7.1915,7.2094,7.3071,7.3372,7.3424,2.6983,2.7129,2.7274,2.6983,2.7247,2.7747,2.852,2.9,2.9091,2.9091,2.882,2.8626,2.8477,2.923,3.0097,3.0741,3.1173,3.1743,3.2559,3.3396,3.3775,3.3792,3.4505,3.4755,3.4394,3.4394,3.4536,3.4963,3.5201,3.5126,3.4967,3.4972,3.4646,3.437,3.4784,3.4784,3.4665,3.5029,3.5376,3.5584,3.584,3.602,3.6093,3.5811,3.5845,3.6014,3.5957,3.6268,3.6674,3.6674,3.7595,3.8904,3.9451,4.0366,4.1293,4.1806,4.2212,4.2339,4.2339,4.2339,4.2339,4.2339,4.2466,4.257,4.2696,4.3075,4.3451,4.395,4.4223,4.4347,4.4717,4.5086,4.5671,4.718,4.7652,4.8584,5.0767,5.132,5.1948,5.329,5.3993,5.4406,5.4539,5.4976,5.5381,5.578,5.6176,5.6567,5.6761,5.7495,5.8119,5.8637,5.9855,6.0975,6.1981,6.3381,6.4199,6.464,6.5629,6.6575,6.7638,6.8162,6.8474,6.8551,6.9118,6.9376,6.9376,6.956,6.9742,7.0026,7.1232,7.2094,7.2761,7.3268,7.3424,7.3527]}]]